     2.10           OBSERVATION DATA    G (GPS)             RINEX VERSION / TYPE
teqc 2002Apr3 20050812 22:29:20UTC                          PGM / RUN BY / DATE
                                                            COMMENT
L2: 1 -> 1; 5 -> 5; 40 -> 9                                 COMMENT
L2: 1 -> 1; 5 -> 5; 40 -> 9                                 COMMENT
L2: 1 -> 1; 5 -> 5; 40 -> 9                                 COMMENT
L2: 1 -> 1; 5 -> 5; 40 -> 9                                 COMMENT
Original Marker Name: CAHU                                  COMMENT
Campaign Name: USGS Coachella Subsidence 1996-2000          COMMENT
4-Character Station Name: CAHU                              COMMENT
6-Character Antenna Code: DMRCHT                            COMMENT
Vertical Measurement Point: BPA                             COMMENT
Vertical Offset to Rinex Ref. Point: 0.0000                 COMMENT
Radial Measurement Point: RRP                               COMMENT
Radial Offset to Rinex Ref. Point: 0.0000                   COMMENT
Antenna Height from Field Measurement: 2.2000 m             COMMENT
Additional Antenna Identification Info.:                    COMMENT
Turborogue and Ashtech Choke Ring                           COMMENT
Original XYZ: -2352948.2800 -4766315.4600 3513114.6100      COMMENT
New XYZ position is based on association with SCEC monument COMMENT
E1D0L0H4+0011. Position of that monument is believed to be  COMMENT
valid to within 1 m horizontally; vertical accuracy         COMMENT
should be no worse than 3-times this value.                 COMMENT
                                                            COMMENT
Revised Rinex header created by UCSD GPS archive for        COMMENT
GSAC on 20-Apr-2005 (2005:110) 16:14:41 GMT                 COMMENT
For assistance contact dagnew@ucsd.edu                      COMMENT
or anderson@python.ucsd.edu                                 COMMENT
                                                            COMMENT
UNSTAMPED ROD                                               MARKER NAME
A__ US GEOLOGICAL SURVEY WATER RESOURC.                     OBSERVER / AGENCY
619 ASHTECH L-XII 7C                                        REC # / TYPE / VERS
617 DORNE-MARGOL. TYPE T                                    ANT # / TYPE
 -2352973.0000 -4766391.0000  3513129.0000                  APPROX POSITION XYZ
        2.2000        0.0000        0.0000                  ANTENNA: DELTA H/E/N
     1     1     0                                          WAVELENGTH FACT L1/2
     4    C1    L1    L2    S1                              # / TYPES OF OBSERV
     0                                                      INTERVAL
  1996     6     5    18     3   45.000000                  TIME OF FIRST OBS
  1996     6     5    21     0   30.000000                  TIME OF LAST OBS
                                                            END OF HEADER
 96  6  5 18  3 45.0000000  0  4G 2G 4G 7G 9
  22834148.278    -2126124.383 7     85401.00721        60.000
  20615889.657     5210722.194 9    -31132.69221       116.000
  21714151.056    -2011636.627 8     88486.27321        78.000
  21377810.630     3329238.945 9    -28758.03322       108.000
 96  6  5 18  4  0.0000000  0  4G 2G 4G 7G 9
  22840471.381    -2092923.856 7    111267.18621        62.000
  20613369.721     5197483.134 9    -41443.14721       114.000
  21719973.175    -1981040.922 8    112327.08624        76.000
  21374934.541     3314125.926 9    -40534.36725       110.000
 96  6  5 18  4 15.0000000  0  5G 2G 4G 5G 7G 9
  22846788.757    -2059726.607 7    137136.72221        62.000
  20610860.039     5184310.860 9    -51708.14521       118.000
  23574978.402    -6619137.812 7   -128385.16621        46.000
  21725786.721    -1950484.736 8    136137.07725        78.000
  21372070.024     3299080.280 9    -52258.27026       100.000
 96  6  5 18  4 30.0000000  0  5G 2G 4G 5G 7G 9
  22853122.532    -2026427.027 7    163091.90521        56.000
  20608386.691     5171309.573 9    -61842.63421       118.000
  23567184.038    -6660140.899 7   -160331.52121        46.000
  21731614.266    -1919862.687 8    159998.43225        78.000
  21369242.441     3284208.504 9    -63846.67226       104.000
 96  6  5 18  4 45.0000000  0  6G 2G 4G 5G24G 7G 9
  22859489.405    -1992954.580 7    189176.34821        56.000
  20605959.421     5158553.474 9    -71783.73223       116.000
  23559402.055    -6701034.307 7   -192196.28021        48.000
  21866908.204    -2912826.274 9    -11581.64121       104.000
  21737470.143    -1889103.304 8    183966.75326        78.000
  21366459.228     3269583.698 9    -75242.62827       104.000
 96  6  5 18  5  0.0000000  0  6G 2G 4G 5G24G 7G 9
  22865906.103    -1959259.209 7    215432.49122        58.000
  20603588.632     5146094.679 9    -81491.93226       118.000
  23551642.587    -6741771.791 7   -223939.76621        48.000
  21859030.708    -2954210.142 9    -43820.32321       102.000
  21743357.437    -1858161.923 8    208076.91326        78.000
  21363729.348     3255255.824 9    -86407.20827        96.000
 96  6  5 18  5 15.0000000  0  6G 2G 4G 5G24G 7G 9
  22872371.787    -1925295.288 7    241897.89523        58.000
  20601281.939     5133975.268 9    -90935.62627       118.000
  23543927.908    -6782311.912 7   -255529.44822        46.000
  21851208.583    -2995309.418 9    -75845.92721       100.000
  21749290.360    -1826998.066 8    232360.42026        78.000
  21361067.071     3241269.300 9    -97305.80227       102.000
 96  6  5 18  5 30.0000000  0  6G 2G 4G 5G24G 7G 9
  22878881.750    -1891054.923 7    268578.64724        58.000
  20599041.710     5122200.669 9   -100110.64328       118.000
  23536256.669    -6822645.815 7   -286958.46322        46.000
  21843441.590    -3036116.356 9   -107651.90121       100.000
  21755264.204    -1795604.778 8    256822.71326        80.000
  21358476.115     3227628.080 9   -107935.34427       104.000
 96  6  5 18  5 45.0000000  0  6G 2G 4G 5G24G 7G 9
  22885458.117    -1856514.898 7    295492.91925        58.000
  20596870.074     5110796.936 9   -108996.67128       120.000
  23528620.805    -6862749.675 7   -318208.19322        48.000
  21835737.284    -3076605.091 9   -139207.85421       100.000
  21761283.647    -1763956.925 8    281483.37526        76.000
  21355945.057     3214351.616 9   -118280.64828       100.000
 96  6  5 18  6  0.0000000  0  6G 2G 4G 5G24G 7G 9
  22892082.481    -1821668.625 7    322645.86225        56.000
  20594774.494     5099776.866 9   -117583.70029       120.000
  23521034.497    -6902614.922 7   -349271.99822        48.000
  21828092.576    -3116766.268 9   -170503.84021        98.000
  21767360.230    -1732046.336 8    306348.78026        78.000
  21353489.817     3201443.873 9   -128338.59128       108.000
 96  6  5 18  6 15.0000000  0  6G 2G 4G 5G24G 7G 9
  22898776.967    -1786518.733 7    350035.36825        60.000
  20592753.443     5089137.983 9   -125873.76529       120.000
  23513496.875    -6942246.066 7   -380153.39423        46.000
  21820513.733    -3156604.055 9   -201551.28921       100.000
  21773474.497    -1699881.041 8    331412.60726        74.000
  21351098.852     3188898.607 9   -138114.14328        96.000
 96  6  5 18  6 30.0000000  0  6G 2G 4G 5G24G 7G 9
  22905526.794    -1751055.903 7    377668.71925        60.000
  20590802.454     5078890.782 9   -133858.60029       120.000
  23505997.357    -6981633.094 7   -410844.59423        48.000
  21812995.268    -3196112.422 9   -232344.16321        98.000
  21779649.862    -1667453.186 8    356681.04426        74.000
  21348786.732     3176722.728 9   -147601.85228       104.000
 96  6  5 18  6 45.0000000  0  6G 2G 4G 5G24G 7G 9
  22912336.699    -1715281.147 7    405545.18225        58.000
  20588925.843     5069039.936 9   -141534.55229       120.000
  23498549.912    -7020778.017 7   -441346.97423        48.000
  21805536.161    -3235292.334 9   -262869.20421        98.000
  21785872.924    -1634760.462 8    382155.92526        74.000
  21346541.497     3164916.305 9   -156801.65228        98.000
 96  6  5 18  7  0.0000000  0  6G 2G 4G 5G24G 7G 9
  22919195.201    -1679196.747 7    433662.84625        56.000
  20587127.088     5059586.816 9   -148900.64929       122.000
  23491154.722    -7059683.984 7   -471663.44524        48.000
  21798149.065    -3274144.363 9   -293145.46521        98.000
  21792139.426    -1601803.458 8    407836.67426        76.000
  21344359.338     3153476.518 9   -165715.80228       100.000
 96  6  5 18  7 15.0000000  0  6G 2G 4G 5G24G 7G 9
  22926115.461    -1642822.576 7    462006.28725        56.000
  20585398.605     5050510.807 9   -155972.86429       122.000
  23483785.344    -7098369.833 7   -501808.25424        48.000
  21790812.604    -3312691.389 9   -323182.07725       100.000
  21798459.710    -1568598.770 8    433710.44126        72.000
  21342251.797     3142384.155 9   -174359.20628        98.000
 96  6  5 18  7 30.0000000  0  6G 2G 4G 5G24G 7G 9
  22933097.447    -1606160.684 7    490573.98625        58.000
  20583742.731     5041813.459 9   -162750.00629       120.000
  23476469.538    -7136831.359 7   -531778.25024        48.000
  21783536.521    -3350931.204 9   -352979.33226        98.000
  21804827.872    -1535141.092 8    459781.36326        74.000
  21340210.480     3131641.043 9   -182730.45529       102.000
 96  6  5 18  7 45.0000000  0  6G 2G 4G 5G24G 7G 9
  22940128.480    -1569213.822 7    519363.72025        60.000
  20582159.887     5033496.113 9   -169231.06329       120.000
  23469193.336    -7175069.467 7   -561574.15424        48.000
  21776319.408    -3388862.726 9   -382536.36626       100.000
  21811240.013    -1501429.415 8    486050.17526        76.000
  21338229.031     3121249.482 9   -190827.78929        98.000
 96  6  5 18  8  0.0000000  0  6G 2G 4G 5G24G 7G 9
  22947214.524    -1531996.925 7    548363.89625        62.000
  20580651.991     5025544.224 9   -175427.33829       122.000
  23461955.926    -7213098.123 7   -591206.84025        48.000
  21769152.150    -3426501.260 9   -411865.08426       102.000
  21817702.579    -1467479.037 8    512505.00926        76.000
  21336318.214     3111199.781 9   -198658.71829        98.000
 96  6  5 18  8 15.0000000  0  6G 2G 4G 5G24G 7G 9
  22954343.529    -1494511.443 7    577573.35125        62.000
  20579201.835     5017952.883 9   -181342.65629       122.000
  23454756.890    -7250919.891 7   -620678.35925        48.000
  21762050.966    -3463849.486 9   -440967.58627       104.000
  21824209.034    -1433295.996 8    539141.13826        74.000
  21334471.103     3101492.862 9   -206222.56529        96.000
 96  6  5 18  8 30.0000000  0  6G 2G 4G 5G24G 7G 9
  22961527.605    -1456761.510 7    606988.85425        60.000
  20577828.876     5010717.888 9   -186980.32129       120.000
  23447598.805    -7288536.895 7   -649990.26525        48.000
  21754995.320    -3500907.908 9   -469844.27127       102.000
  21830757.131    -1398885.544 8    565954.45426        76.000
  21332689.287     3092129.188 9   -213518.94729        96.000
 96  6  5 18  8 45.0000000  0  6G 2G 4G 5G24G 7G 9
  22968760.518    -1418765.389 7    636596.18125        62.000
  20576510.778     5003822.758 9   -192353.14829       118.000
  23440477.535    -7325964.800 7   -679154.84025        46.000
  21747997.505    -3537689.138 9   -498504.96627       104.000
  21837348.638    -1364262.151 8    592933.73527        76.000
  21330969.137     3083096.839 9   -220557.14729        94.000
 96  6  5 18  9  0.0000000  0  6G 2G 4G 5G24G 7G 9
  22976035.402    -1380513.002 7    666403.25625        60.000
  20575268.108     4997273.375 9   -197456.55029       118.000
  23433394.429    -7363192.981 7   -708163.80625        50.000
  21741055.990    -3574179.699 9   -526939.15328       100.000
  21843971.923    -1329416.549 8    620086.14927        74.000
  21329316.082     3074408.962 9   -227326.90229        96.000
 96  6  5 18  9 15.0000000  0  6G 2G 4G 5G24G 7G 9
  22983363.049    -1342024.982 8    696393.87125        64.000
  20574086.386     4991043.594 9   -202310.92629       120.000
  23426347.297    -7400238.953 7   -737030.81425        48.000
  21734160.344    -3610400.803 9   -555163.39528       102.000
  21850644.104    -1294371.884 8    647393.66527        74.000
  21327723.075     3066045.576 9   -233843.84629        94.000
 96  6  5 18  9 30.0000000  0  6G 2G 4G 5G24G 7G 9
  22990725.832    -1303314.812 7    726557.62325        62.000
  20572956.049     4985115.935 9   -206929.88429       118.000
  23419319.083    -7437115.144 7   -765765.49825        50.000
  21727315.393    -3646366.578 9   -583188.65828       104.000
  21857349.832    -1259145.398 8    674842.86027        76.000
  21326194.493     3057990.499 9   -240120.53929        96.000
 96  6  5 18  9 45.0000000  0  6G 2G 4G 5G24G 7G 9
  22998136.102    -1264377.905 7    756898.06225        62.000
  20571885.580     4979491.795 9   -211312.33229       118.000
  23412339.824    -7473820.171 7   -794366.80725        52.000
  21720522.755    -3682071.442 9   -611010.63528       104.000
  21864088.057    -1223736.833 8    702433.93827        76.000
  21324714.927     3050245.095 9   -246155.91929        92.000
 96  6  5 18 10  0.0000000  0  6G 2G 4G 5G24G 7G 9
  23005590.261    -1225212.198 7    787416.79025        62.000
  20570874.050     4974169.023 9   -215459.94229       118.000
  23405386.948    -7510356.669 7   -822836.79825        50.000
  21713776.196    -3717517.066 9   -638630.58728       102.000
  21870858.090    -1188151.338 8    730162.88927        74.000
  21323302.125     3042805.624 9   -251952.91929        96.000
 96  6  5 18 10 15.0000000  0  6G 2G 4G 5G24G 7G 9
  23013086.572    -1185817.920 7    818113.61225        62.000
  20569915.044     4969148.654 9   -219371.91229       118.000
  23398466.119    -7546723.383 7   -851174.46925        52.000
  21707082.310    -3752703.325 9   -666048.43928       104.000
  21877661.250    -1152391.145 8    758027.95827        74.000
  21321947.633     3035669.643 9   -257513.41429        96.000
 96  6  5 18 10 30.0000000  0  6G 2G 4G 5G24G 7G 9
  23020621.825    -1146204.732 7    848980.99925        60.000
  20569019.924     4964423.558 9   -223053.80729       116.000
  23391578.777    -7582930.267 7   -879387.61225        54.000
  21700432.703    -3787638.154 9   -693270.36828       104.000
  21884499.726    -1116463.355 8    786023.62327        72.000
  21320639.668     3028824.976 9   -262846.92929        96.000
 96  6  5 18 10 45.0000000  0  6G 2G 4G 5G24G 7G 9
  23028200.489    -1106381.198 7    880012.26125        60.000
  20568169.293     4959987.151 9   -226510.76329       116.000
  23384716.618    -7618983.865 7   -907481.35125        52.000
  21693832.083    -3822329.876 9   -720302.88628       104.000
  21891366.292    -1080370.976 8    814147.53127        74.000
  21319395.080     3022260.708 9   -267961.97129       100.000
 96  6  5 18 11  0.0000000  0  6G 2G 4G 5G24G 7G 9
  23035820.853    -1066350.725 7    911204.83325        60.000
  20567382.248     4955836.089 9   -229745.33129       120.000
  23377886.146    -7654888.604 7   -935459.03425        50.000
  21687273.793    -3856783.923 9   -747150.16929       102.000
  21898264.637    -1044115.820 8    842398.30527        72.000
  21318194.051     3015970.626 9   -272863.31429        94.000
 96  6  5 18 11 15.0000000  0  6G 2G 4G 5G24G 7G 9
  23043479.441    -1026109.966 7    942561.25825        60.000
  20566651.354     4951973.897 9   -232754.83829       118.000
  23371083.496    -7690640.611 7   -963317.71525        54.000
  21680764.729    -3891000.526 9   -773812.45929       104.000
  21905193.140    -1007695.923 8    870777.43327        70.000
  21317048.814     3009953.123 9   -277552.28629        98.000
 96  6  5 18 11 30.0000000  0  6G 2G 4G 5G24G 7G 9
  23051176.822     -985632.046 7    974102.49025        58.000
  20565971.634     4948429.724 9   -235516.52829       116.000
  23364308.546    -7726214.881 7   -991037.91425        54.000
  21674302.013    -3924953.070 9   -800268.96929       104.000
  21912162.925     -971084.810 8    899305.56527        70.000
  21315963.086     3004231.687 9   -282010.54229       102.000
 96  6  5 18 11 45.0000000  0  6G 2G 4G 5G24G 7G 9
  23058916.444     -944957.974 7   1005796.57725        62.000
  20565355.441     4945163.721 9   -238061.43529       116.000
  23357571.640    -7761655.380 7  -1018653.83825        50.000
  21667884.955    -3958681.674 9   -826550.95329       106.000
  21919154.475     -934322.812 8    927951.29727        68.000
  21314920.078     2998765.074 9   -286270.22929        98.000
 96  6  5 18 12  0.0000000  0  6G 2G 4G 5G24G 7G 9
  23066697.018     -904101.779 7   1037632.49725        62.000
  20564781.608     4942165.497 9   -240397.74629       116.000
  23350842.288    -7796975.438 7  -1046175.97025        52.000
  21661504.472    -3992199.612 9   -852668.85429       104.000
  21926176.934     -897420.984 8    956705.92226        68.000
  21313932.142     2993542.595 9   -290339.71929       104.000
 96  6  5 18 12 15.0000000  0  6G 2G 4G 5G24G 7G 9
  23074504.633     -863063.416 7   1069610.42325        62.000
  20564260.808     4939438.462 9   -242522.69729       116.000
  23344149.512    -7832169.149 7  -1073599.64325        52.000
  21655167.999    -4025504.612 9   -878620.79029       104.000
  21933233.388     -860374.079 8    985573.62026        70.000
  21312978.802     2988567.081 9   -294216.73929       102.000
 96  6  5 18 12 30.0000000  0  6G 2G 4G 5G24G 7G 9
  23082345.315     -821847.257 7   1101726.89725        58.000
  20563793.882     4936979.825 9   -244438.51629       118.000
  23337477.361    -7867239.908 7  -1100927.51425        52.000
  21648872.058    -4058599.278 9   -904408.81829       106.000
  21940309.000     -823181.977 8   1014554.49526        68.000
  21312080.594     2983836.606 9   -297902.83329       102.000
 96  6  5 18 12 45.0000000  0  6G 2G 4G 5G24G 7G 9
  23090221.822     -780459.547 7   1133977.03725        58.000
  20563375.731     4934777.421 9   -246154.68429       116.000
  23330824.696    -7902197.177 7  -1128166.93425        50.000
  21642610.353    -4091493.007 9   -930040.30029       106.000
  21947412.253     -785854.167 8   1043641.08527        68.000
  21311224.506     2979342.049 9   -301405.10229       104.000
 96  6  5 18 13  0.0000000  0  6G 2G 4G 5G24G 7G 9
  23098134.874     -738899.992 7   1166361.08525        56.000
  20563006.537     4932828.438 9   -247673.36829       118.000
  23324196.645    -7937042.229 7  -1155318.88125        50.000
  21636387.830    -4124185.345 9   -955514.84529       106.000
  21954542.217     -748393.816 8   1072830.96126        68.000
  21310418.874     2975085.403 9   -304721.95929       106.000
 96  6  5 18 13 15.0000000  0  6G 2G 4G 5G24G 7G 9
  23106073.768     -697166.620 7   1198880.59225        58.000
  20562682.791     4931133.870 9   -248993.82329       116.000
  23317579.985    -7971774.362 7  -1182382.91225        50.000
  21630206.919    -4156673.572 9   -980830.35529       108.000
  21961692.027     -710803.510 8   1102122.06726        66.000
  21309650.416     2971071.180 9   -307849.96629       102.000
 96  6  5 18 13 30.0000000  0  6G 2G 4G 5G24G 7G 9
  23114048.787     -655259.649 7   1231535.32125        58.000
  20562406.502     4929689.878 9   -250119.00029       114.000
  23310993.185    -8006398.021 7  -1209362.32625        50.000
  21624062.973    -4188956.745 9  -1005986.06229       108.000
  21968871.367     -673086.245 8   1131512.15326        68.000
  21308937.749     2967300.484 9   -310788.15729       106.000
 96  6  5 18 13 45.0000000  0  6G 2G 4G 5G24G 7G 9
  23122055.974     -613181.602 7   1264323.37925        56.000
  20562182.227     4928494.327 9   -251050.59929       116.000
  23304425.452    -8040917.880 7  -1236260.89225        52.000
  21617957.969    -4221036.703 9  -1030983.42229       106.000
  21976073.551     -635245.683 8   1160998.30626        68.000
  21308264.386     2963772.947 9   -313536.88329       110.000
 96  6  5 18 14  0.0000000  0  6G 2G 4G 5G24G 7G 9
  23130093.859     -570944.946 7   1297235.05225        54.000
  20561997.465     4927537.784 9   -251795.96629       114.000
  23297874.057    -8075342.768 7  -1263085.52325        50.000
  21611893.647    -4252925.179 9  -1055831.57929       108.000
  21983293.992     -597293.296 8   1190571.57626        68.000
  21307636.800     2960479.674 9   -316103.09429       106.000
 96  6  5 18 14 15.0000000  0  6G 2G 4G 5G24G 7G 9
  23138158.816     -528555.031 7   1330266.10425        56.000
  20561860.280     4926817.821 9   -252356.97029       114.000
  23291344.698    -8109675.559 7  -1289838.34225        48.000
  21605860.474    -4284626.241 9  -1080533.69529       114.000
  21990533.920     -559232.898 8   1220229.01226        66.000
  21307053.614     2957416.092 9   -318490.30229       104.000
 96  6  5 18 14 30.0000000  0  6G 2G 4G 5G24G 7G 9
  23146257.319     -486007.163 7   1363420.30225        56.000
  20561771.692     4926336.756 9   -252731.82129       114.000
  23284822.383    -8143914.843 7  -1316518.24425        50.000
  21599864.415    -4316132.787 9  -1105084.25029       112.000
  21997799.930     -521061.814 8   1249972.72126        64.000
  21306518.634     2954585.542 9   -320695.92529       112.000
 96  6  5 18 14 45.0000000  0  6G 2G 4G 5G24G 7G 9
  23154383.104     -443301.116 7   1396697.71825        56.000
  20561724.924     4926093.634 9   -252921.26729       116.000
  23278324.801    -8178061.592 7  -1343126.09725        50.000
  21593906.370    -4347446.955 9  -1129484.89129       110.000
  22005084.317     -482783.584 8   1279799.88126        66.000
  21306020.979     2951987.223 9   -322720.60129       104.000
 96  6  5 18 15  0.0000000  0  6G 2G 4G 5G24G 7G 9
  23162536.590     -400444.099 7   1430092.78025        56.000
  20561721.806     4926081.059 9   -252931.05529       116.000
  23271841.759    -8212121.509 7  -1369666.29525        48.000
  21587981.152    -4378573.119 9  -1153739.02429       112.000
  22012384.114     -444403.747 8   1309706.24426        64.000
  21305571.770     2949617.517 9   -324567.12929       106.000
 96  6  5 18 15 15.0000000  0  6G 2G 4G 5G24G 7G 9
  23170725.121     -357448.841 7   1463595.53325        54.000
  20561764.647     4926293.045 9   -252765.88229       112.000
  23265377.904    -8246104.632 7  -1396146.64725        50.000
  21582090.739    -4409520.662 9  -1177853.99029       112.000
  22019710.412     -405930.787 8   1339685.16226        66.000
  21305161.204     2947466.913 9   -326242.93029       110.000
 96  6  5 18 15 30.0000000  0  6G 2G 4G 5G24G 7G 9
  23178929.001     -314310.335 7   1497209.90225        52.000
  20561843.042     4926733.653 9   -252422.59029       110.000
  23258930.328    -8280003.737 7  -1422561.57525        50.000
  21576238.761    -4440285.361 9  -1201826.50229       112.000
  22027047.532     -367358.277 8   1369741.59826        66.000
  21304794.708     2945539.609 9   -327744.75929       110.000
 96  6  5 18 15 45.0000000  0  6G 2G 4G 5G24G 7G 9
  23187160.463     -271035.101 7   1530930.84825        52.000
  20561972.583     4927396.709 9   -251905.89029       110.000
  23252498.430    -8313821.267 7  -1448912.86725        48.000
  21570416.162    -4470874.898 9  -1225662.47329       112.000
  22034407.797     -328690.434 8   1399872.40126        66.000
  21304467.814     2943827.607 9   -329078.75729       110.000
 96  6  5 18 16  0.0000000  0  6G 2G 4G 5G24G 7G 9
  23195423.972     -227627.162 7   1564755.22025        54.000
  20562142.085     4928281.581 9   -251216.35929       108.000
  23246067.942    -8347553.585 7  -1475197.72825        48.000
  21564629.088    -4501293.475 9  -1249365.24829       114.000
  22041785.180     -289927.635 8   1430077.19026        64.000
  21304184.510     2942326.695 9   -330248.30729       112.000
 96  6  5 18 16 15.0000000  0  6G 2G 4G 5G24G 7G 9
  23203713.234     -184085.240 7   1598683.97825        52.000
  20562352.120     4929388.984 9   -250353.45329       108.000
  23239673.009    -8381198.074 7  -1501414.20625        48.000
  21558873.253    -4531537.868 9  -1272932.30329       114.000
  22049182.798     -251064.685 8   1460360.00526        64.000
  21303938.530     2941038.564 9   -331252.05829       112.000
 96  6  5 18 16 30.0000000  0  6G 2G 4G 5G24G 7G 9
  23212022.371     -140418.781 7   1632709.77625        54.000
  20562597.140     4930704.688 9   -249328.23129       106.000
  23233284.222    -8414766.719 7  -1527571.52925        50.000
  21553153.033    -4561617.804 9  -1296371.21029       118.000
  22056590.190     -212111.133 8   1490713.41026        64.000
  21303730.624     2939949.936 9   -332100.34629       112.000
 96  6  5 18 16 45.0000000  0  6G 2G 4G 5G24G 7G 9
  23220354.203      -96624.806 7   1666834.92825        56.000
  20562891.866     4932230.292 9   -248139.45029       108.000
  23226911.414    -8448256.628 7  -1553667.59425        52.000
  21547457.396    -4591531.052 9  -1319680.21429       116.000
  22064023.185     -173063.375 8   1521140.22126        66.000
  21303561.571     2939065.622 9   -332789.42329       106.000
 96  6  5 18 17  0.0000000  0  6G 2G 4G 5G24G 7G 9
  23228708.790      -52703.399 7   1701059.35025        54.000
  20563222.777     4933965.256 9   -246787.52129       102.000
  23220554.255    -8481666.611 7  -1579701.35225        52.000
  21541796.295    -4621279.559 9  -1342860.86129       116.000
  22071472.278     -133921.275 8   1551640.53726        64.000
  21303432.870     2938387.208 9   -333318.04929       116.000
 96  6  5 18 17 15.0000000  0  6G 2G 4G 5G24G 7G 9
  23237094.104       -8658.212 7   1735380.25625        54.000
  20563590.053     4935909.523 9   -245272.51429       106.000
  23214211.216    -8515001.701 7  -1605676.74125        48.000
  21536166.282    -4650865.079 9  -1365914.49629       116.000
  22078936.840      -94688.746 8   1582211.32826        64.000
  21303343.682     2937911.950 9   -333688.38429       110.000
 96  6  5 18 17 30.0000000  0  6G 2G 4G 5G24G 7G 9
  23245498.396       35508.821 7   1769796.12025        54.000
  20564003.527     4938060.996 9   -243596.02629       108.000
  23207883.497    -8548261.954 7  -1631593.77725        48.000
  21530565.380    -4680290.155 9  -1388843.12329       112.000
  22086418.461      -55371.381 8   1612848.23126        64.000
  21303289.210     2937634.396 9   -333904.64829       110.000
 96  6  5 18 17 45.0000000  0  6G 2G 4G 5G24G 7G 9
  23253926.552       79796.104 7   1804305.66825        56.000
  20564448.628     4940412.457 9   -241763.73229       106.000
  23201562.582    -8581452.405 7  -1657456.43525        48.000
  21524995.176    -4709559.338 9  -1411650.29529       116.000
  22093913.332      -15974.797 7   1643546.84526        62.000
  21303270.623     2937550.618 9   -333969.94529       112.000
 96  6  5 18 18  0.0000000  0  6G 2G 4G 5G24G 7G 9
  23262373.804      124213.021 7   1838916.21825        56.000
  20564937.590     4942976.840 9   -239765.51229       106.000
  23195264.123    -8614565.943 7  -1683259.17225        54.000
  21519459.508    -4738662.279 9  -1434327.90029       114.000
  22101427.600       23509.450 7   1674313.78226        62.000
  21303294.966     2937669.926 9   -333877.00129       110.000
 96  6  5 18 18 15.0000000  0  6G 2G 4G 5G24G 7G 9
  23270854.363      168748.766 7   1873619.36125        56.000
  20565463.936     4945743.428 9   -237609.74029       104.000
  23188979.034    -8647617.282 7  -1709013.47825        54.000
  21513950.492    -4767609.197 9  -1456883.94229       112.000
  22108957.307       63069.776 8   1705139.99026        64.000
  21303355.134     2937982.149 9   -333633.70629       112.000
 96  6  5 18 18 30.0000000  0  6G 2G 4G 5G24G 7G 9
  23279349.192      213409.703 7   1908420.03125        56.000
  20566026.796     4948716.834 9   -235292.79529       104.000
  23182695.924    -8680604.896 7  -1734718.11925        52.000
  21508473.344    -4796395.728 9  -1479315.00129       112.000
  22116497.447      102707.144 8   1736026.23826        68.000
  21303454.216     2938492.015 9   -333236.41929       112.000
 96  6  5 18 18 45.0000000  0  6G 2G 4G 5G24G 7G 9
  23287871.032      258191.197 7   1943314.68825        54.000
  20566635.135     4951891.656 9   -232818.91829       104.000
  23176432.360    -8713533.434 7  -1760376.73825        52.000
  21503025.605    -4825025.563 9  -1501623.96229       110.000
  22124053.297      142410.877 8   1766964.17626        66.000
  21303581.567     2939195.060 9   -332688.60129       108.000
 96  6  5 18 19  0.0000000  0  6G 2G 4G 5G24G 7G 9
  23296415.027      303093.186 7   1978303.19625        54.000
  20567273.783     4955268.593 9   -230187.56529       104.000
  23170176.111    -8746402.662 7  -1785989.11825        52.000
  21497601.340    -4853498.604 9  -1523810.77529       106.000
  22131624.075      182178.833 8   1797952.17326        66.000
  21303756.556     2940092.610 9   -331989.23829       112.000
 96  6  5 18 19 15.0000000  0  6G 2G 4G 5G24G 7G 9
  23304978.899      348114.769 7   2013384.97625        52.000
  20567961.087     4958847.538 9   -227398.74429       104.000
  23163931.644    -8779213.470 7  -1811555.90825        54.000
  21492218.657    -4881814.067 9  -1545874.72529       108.000
  22139202.769      222008.249 8   1828988.10826        66.000
  21303965.512     2941180.126 9   -331141.79729       110.000
 96  6  5 18 19 30.0000000  0  6G 2G 4G 5G24G 7G 9
  23313573.289      393261.718 7   2048564.40025        52.000
  20568677.171     4962634.751 9   -224447.65829       104.000
  23157700.907    -8811958.556 7  -1837071.50825        56.000
  21486864.064    -4909966.425 9  -1567811.61729       108.000
  22146798.191      261905.259 8   1860076.69026        66.000
  21304207.264     2942462.269 9   -330142.72929       110.000
 96  6  5 18 19 45.0000000  0  6G 2G 4G 5G24G 7G 9
  23322188.155      438521.062 7   2083831.36425        48.000
  20569430.430     4966612.137 9   -221348.41129       104.000
  23151477.336    -8844652.159 7  -1862547.07625        54.000
  21481530.966    -4937969.834 9  -1589632.45629       106.000
  22154398.079      301855.784 8   1891206.94326        64.000
  21304490.328     2943926.126 9   -329002.07129       110.000
 96  6  5 18 20  0.0000000  0  6G 2G 4G 5G24G 7G 9
  23330824.516      483897.586 7   2119189.66125        52.000
  20570229.466     4970786.050 9   -218096.01029       106.000
  23145269.803    -8877290.958 7  -1887979.90125        52.000
  21476227.697    -4965818.969 9  -1611333.07329       102.000
  22162009.960      341866.854 8   1922384.40326        68.000
  21304799.174     2945578.362 9   -327714.63029       108.000
 96  6  5 18 20 15.0000000  0  6G 2G 4G 5G24G 7G 9
  23339475.208      529363.271 7   2154617.42325        48.000
  20571055.994     4975131.868 9   -214709.65729       104.000
  23139061.431    -8909898.924 7  -1913388.68325        48.000
  21470955.966    -4993539.638 9  -1632933.58529       108.000
  22169631.583      381915.184 8   1953590.91826        68.000
  21305149.272     2947393.937 9   -326299.88829       108.000
 96  6  5 18 20 30.0000000  0  6G 2G 4G 5G24G 7G 9
  23348145.715      574930.989 7   2190124.70725        48.000
  20571916.429     4979659.802 9   -211181.38829       104.000
  23132864.781    -8942464.388 7  -1938764.31025        50.000
  21465709.419    -5021117.671 9  -1654422.94829       106.000
  22177255.995      422013.189 8   1984836.06926        66.000
  21305524.163     2949384.834 9   -324748.53929       108.000
 96  6  5 18 20 45.0000000  0  6G 2G 4G 5G24G 7G 9
  23356835.949      620610.360 7   2225719.02825        48.000
  20572815.356     4984380.647 9   -207502.82029       104.000
  23126682.431    -8974974.520 7  -1964096.89525        58.000
  21460492.550    -5048540.484 9  -1675791.37529       108.000
  22184900.343      462173.180 8   2016129.54726        66.000
  21305941.354     2951562.331 9   -323051.81029       108.000
 96  6  5 18 21  0.0000000  0  6G 2G 4G 5G24G 7G 9
  23365551.036      666394.508 7   2261394.96325        46.000
  20573750.619     4989288.034 9   -203678.87729       104.000
  23120501.190    -9007435.682 7  -1989391.29825        52.000
  21455302.663    -5075813.730 9  -1697043.22929       110.000
  22192550.447      502391.941 8   2047468.81726        66.000
  21306386.635     2953921.052 9   -321213.84529       106.000
 96  6  5 18 21 15.0000000  0  6G 2G 4G 5G24G 7G 9
  23374285.339      712284.433 7   2297153.32125        50.000
  20574716.970     4994385.704 9   -199706.66429       104.000
  23114332.301    -9039845.248 7  -2014645.50825        50.000
  21450140.147    -5102938.782 9  -1718179.63629       108.000
  22200223.125      542675.609 8   2078858.67426        68.000
  21306872.749     2956462.611 9   -319233.40529       104.000
 96  6  5 18 21 30.0000000  0  6G 2G 4G 5G24G 7G 9
  23383039.459      758278.890 7   2332993.11325        52.000
  20575727.810     4999674.533 9   -195585.50529       106.000
  23108176.422    -9072203.633 7  -2039859.80225        52.000
  21445004.672    -5129918.359 9  -1739202.67129       106.000
  22207900.001      583023.621 8   2110298.67826        70.000
  21307391.330     2959185.747 9   -317111.48429       108.000
 96  6  5 18 21 45.0000000  0  6G 2G 4G 5G24G 7G 9
  23391808.688      804388.715 7   2368922.82025        52.000
  20576766.531     5005160.490 9   -191310.72029       104.000
  23102032.296    -9104501.407 7  -2065026.88625        52.000
  21439899.566    -5156742.129 9  -1760104.29829       108.000
  22215599.421      623444.514 8   2141795.50326        70.000
  21307945.676     2962101.205 9   -314839.68729       100.000
 96  6  5 18 22  0.0000000  0  6G 2G 4G 5G24G 7G 9
  23400604.599      850602.803 7   2404933.75425        50.000
  20577848.032     5010832.692 9   -186890.83529       102.000
  23095893.745    -9136750.298 7  -2090155.91025        50.000
  21434824.140    -5183420.089 9  -1780892.32429       114.000
  22223297.491      663928.837 8   2173341.71026        70.000
  21308532.850     2965198.010 9   -312426.61229       102.000
 96  6  5 18 22 15.0000000  0  6G 2G 4G 5G24G 7G 9
  23409416.368      896917.061 7   2441022.79725        50.000
  20578963.470     5016691.116 9   -182325.82929       102.000
  23089766.617    -9168951.806 7  -2115247.96525        50.000
  21429775.155    -5209954.877 9  -1801568.78229       116.000
  22231010.372      704475.613 8   2204936.59226        66.000
  21309158.666     2968472.111 9   -309875.37429       104.000
 96  6  5 18 22 30.0000000  0  6G 2G 4G 5G24G 7G 9
  23418252.961      943332.716 7   2477190.81225        50.000
  20580115.393     5022736.195 9   -177615.37829       102.000
  23083644.376    -9201106.482 7  -2140303.52425        52.000
  21424756.420    -5236344.991 9  -1822132.49129       116.000
  22238741.240      745083.115 8   2236578.74626        66.000
  21309814.103     2971922.592 9   -307186.68729       104.000
 96  6  5 18 22 45.0000000  0  6G 2G 4G 5G24G 7G 9
  23427097.678      989847.653 7   2513436.20825        46.000
  20581296.395     5028964.852 9   -172761.87329       102.000
  23077533.316    -9233215.357 7  -2165323.41225        52.000
  21419757.231    -5262591.979 9  -1842584.69429       118.000
  22246479.723      785749.361 8   2268266.73526        66.000
  21310512.169     2975546.205 9   -304363.11529       102.000
 96  6  5 18 23  0.0000000  0  6G 2G 4G 5G24G 7G 9
  23435975.822     1036469.720 7   2549765.00525        48.000
  20582520.777     5035382.624 9   -167761.00729       102.000
  23071441.234    -9265271.739 7  -2190302.41725        52.000
  21414796.325    -5288692.274 9  -1862922.57329       122.000
  22254231.246      826478.634 8   2300003.81726        66.000
  21311225.945     2979348.461 9   -301400.31429       102.000
 96  6  5 18 23 15.0000000  0  6G 2G 4G 5G24G 7G 9
  23444863.439     1083187.964 7   2586168.79825        48.000
  20583775.319     5041979.499 9   -162620.59929       102.000
  23065346.633    -9297284.770 7  -2215247.66425        48.000
  21409847.141    -5314655.972 9  -1883154.03529       118.000
  22261988.376      867260.093 8   2331781.56526        64.000
  21311980.943     2983318.387 9   -298306.87729       102.000
 96  6  5 18 23 30.0000000  0  6G 2G 4G 5G24G 7G 9
  23453775.249     1130007.488 7   2622651.52025        50.000
  20585065.596     5048762.618 9   -157335.04829       102.000
  23059265.253    -9329245.973 7  -2240152.48925        54.000
  21404936.781    -5340474.817 9  -1903272.60729       120.000
  22269757.857      908097.570 8   2363602.97926        64.000
  21312772.904     2987461.237 9   -295078.67229       102.000
 96  6  5 18 23 45.0000000  0  6G 2G 4G 5G24G 7G 9
  23462703.099     1176923.640 7   2659209.55625        48.000
  20586387.860     5055723.420 9   -151911.04229       102.000
  23053190.049    -9361162.277 7  -2265022.31125        58.000
  21400051.243    -5366152.634 9  -1923281.28529       120.000
  22277538.431      948982.837 8   2395461.62026        64.000
  21313593.047     2991772.945 9   -291718.91029       100.000
 96  6  5 18 24  0.0000000  0  6G 2G 4G 5G24G 7G 9
  23471652.293     1223956.994 7   2695858.91825        48.000
  20587755.993     5062882.211 9   -146332.76329       102.000
  23047130.134    -9393014.241 7  -2289842.00925        54.000
  21395195.534    -5391667.698 9  -1943163.14929       118.000
  22285334.984      989937.697 8   2427374.46926        64.000
  21314449.104     2996274.137 9   -288211.50129       106.000
 96  6  5 18 24 15.0000000  0  6G 2G 4G 5G24G 7G 9
  23480630.508     1271117.857 7   2732607.58425        50.000
  20589157.313     5070253.893 9   -140588.59529       104.000
  23041079.842    -9424790.438 7  -2314602.66825        52.000
  21390375.441    -5417011.128 9  -1962911.26829       120.000
  22293146.706     1030972.782 8   2459349.83526        68.000
  21315340.237     3000975.051 9   -284548.47329        94.000
 96  6  5 18 24 30.0000000  0  6G 2G 4G 5G24G 7G 9
  23489621.014     1318372.971 7   2769429.68225        52.000
  20590591.460     5077802.013 9   -134706.93129       102.000
  23035042.112    -9456525.186 7  -2339331.01125        52.000
  21385576.483    -5442219.614 9  -1982554.23129       122.000
  22300958.967     1072050.592 8   2491358.51626        64.000
  21316267.885     3005842.117 9   -280755.95729        94.000
 96  6  5 18 24 45.0000000  0  6G 2G 4G 5G24G 7G 9
  23498634.274     1365724.489 7   2806326.95425        52.000
  20592059.484     5085527.210 9   -128687.30729       102.000
  23029016.674    -9488217.092 7  -2364026.00325        56.000
  21380804.507    -5467292.319 9  -2002091.39529       122.000
  22308780.792     1113171.734 7   2523400.94726        60.000
  21317229.889     3010878.010 9   -276831.86029        98.000
 96  6  5 18 25  0.0000000  0  6G 2G 4G 5G24G 7G 9
  23507656.498     1413173.906 7   2843300.51625        50.000
  20593569.359     5093429.249 9   -122529.87829       108.000
  23022996.811    -9519863.142 7  -2388685.25025        56.000
  21376060.291    -5492229.373 9  -2021522.86129       120.000
  22316614.010     1154336.708 7   2555477.54426        58.000
  21318216.686     3016085.533 9   -272774.07929       100.000
 96  6  5 18 25 15.0000000  0  6G 2G 4G 5G24G 7G 9
  23516710.830     1460727.871 7   2880355.55525        50.000
  20595102.917     5101519.119 9   -116226.07529       104.000
  23016980.996    -9551456.510 7  -2413303.45825        54.000
  21371339.400    -5517023.060 9  -2040842.61429       120.000
  22324464.075     1195551.435 7   2587592.89826        62.000
  21319244.224     3021475.947 9   -268573.77129        96.000
 96  6  5 18 25 30.0000000  0  6G 2G 4G 5G24G 7G 9
  23525776.794     1508370.021 7   2917479.28225        52.000
  20596676.887     5109782.212 9   -109787.30529       106.000
  23010972.255    -9583011.602 7  -2437891.84025        54.000
  21366648.097    -5541687.650 9  -2060061.76629       116.000
  22332316.899     1236802.381 8   2619736.49926        64.000
  21320301.203     3027036.995 9   -264240.50529        96.000
 96  6  5 18 25 45.0000000  0  6G 2G 4G 5G24G 7G 9
  23534855.948     1556109.734 7   2954679.04725        50.000
  20598283.835     5118224.454 9   -103208.92929       106.000
  23004974.128    -9614525.726 7  -2462448.27725        52.000
  21361980.389    -5566218.202 9  -2079176.47029       114.000
  22340166.814     1278096.569 7   2651913.76926        60.000
  21321394.276     3032776.787 9   -259767.93829       100.000
 96  6  5 18 26  0.0000000  0  6G 2G 4G 5G24G 7G 9
  23543959.206     1603945.469 7   2991953.60025        52.000
  20599927.147     5126844.007 9    -96492.39829       106.000
  22998986.223    -9646002.115 7  -2486975.31625        54.000
  21357335.734    -5590615.749 9  -2098187.54629       118.000
  22348034.658     1319433.456 7   2684124.31226        60.000
  21322519.007     3038694.584 9   -255156.67329        98.000
 96  6  5 18 26 15.0000000  0  6G 2G 4G 5G24G 7G 9
  23553082.850     1651874.324 7   3029300.69725        54.000
  20601599.929     5135643.471 9    -89635.66329       108.000
  22993001.976    -9677437.990 7  -2511470.78225        54.000
  21352718.601    -5614880.814 9  -2117095.38929       116.000
  22355908.347     1360813.408 7   2716368.40726        60.000
  21323680.823     3044787.392 9   -250409.03229        96.000
 96  6  5 18 26 30.0000000  0  6G 2G 4G 5G24G 7G 9
  23562219.535     1699891.349 7   3066716.56325        52.000
  20603307.097     5144617.474 9    -82642.94029       108.000
  22987031.609    -9708834.287 7  -2535935.42625        60.000
  21348127.009    -5639016.233 9  -2135902.19229       118.000
  22363791.090     1402233.742 7   2748643.99626        56.000
  21324871.928     3051051.470 9   -245527.92629        94.000
 96  6  5 18 26 45.0000000  0  6G 2G 4G 5G24G 7G 9
  23571373.278     1747990.495 7   3104196.41825        52.000
  20605048.562     5153763.755 9    -75515.97429       108.000
  22981062.831    -9740191.706 7  -2560369.78825        58.000
  21343559.341    -5663022.201 9  -2154608.13229       116.000
  22371680.998     1443694.181 7   2780950.80626        58.000
  21326097.300     3057485.469 9   -240514.44629        96.000
 96  6  5 18 27  0.0000000  0  6G 2G 4G 5G24G 7G 9
  23580542.340     1796166.826 7   3141736.43025        50.000
  20606820.695     5163082.589 9    -68254.54529       106.000
  22975107.874    -9771511.639 7  -2584774.93325        56.000
  21339015.477    -5686895.395 9  -2173210.61229       116.000
  22379580.589     1485191.841 7   2813286.63126        60.000
  21327352.561     3064085.615 9   -235371.46929        98.000
 96  6  5 18 27 15.0000000  0  6G 2G 4G 5G24G 7G 9
  23589722.675     1844421.222 7   3179337.23725        50.000
  20608629.223     5172577.658 9    -60855.78929       110.000
  22969147.670    -9802790.708 7  -2609148.20625        52.000
  21334498.444    -5710632.310 9  -2191706.89729       114.000
  22387484.917     1526728.258 7   2845652.66226        60.000
  21328638.521     3070852.901 9   -230098.27729        98.000
 96  6  5 18 27 30.0000000  0  6G 2G 4G 5G24G 7G 9
  23598917.100     1892748.822 7   3216995.03025        50.000
  20610466.861     5182245.349 9    -53322.50829       108.000
  22963207.192    -9834033.546 7  -2633493.25225        54.000
  21330008.662    -5734234.370 9  -2210098.11529       114.000
  22395394.071     1568300.571 7   2878046.66226        60.000
  21329962.105     3077781.237 9   -224699.56029       100.000
 96  6  5 18 27 45.0000000  0  6G 2G 4G 5G24G 7G 9
  23608132.360     1941154.290 7   3254713.51325        54.000
  20612341.793     5192085.501 9    -45654.87129       110.000
  22957270.912    -9865233.852 7  -2657805.18425        58.000
  21325541.515    -5757696.055 9  -2228379.93729       114.000
  22403312.400     1609911.945 7   2910471.08826        58.000
  21331307.273     3084870.547 9   -219175.43729        96.000
 96  6  5 18 28  0.0000000  0  6G 2G 4G 5G24G 7G 9
  23617354.486     1989637.586 7   3292492.68925        50.000
  20614245.954     5202099.188 9    -37851.99329       110.000
  22951340.717    -9896388.439 7  -2682081.47925        54.000
  21321106.265    -5781014.147 9  -2246549.86129       112.000
  22411235.854     1651561.400 7   2942925.19326        58.000
  21332685.059     3092121.096 9   -213525.66129        98.000
 96  6  5 18 28 15.0000000  0  6G 2G 4G 5G24G 7G 9
  23626595.438     2038190.741 7   3330326.30325        52.000
  20616183.513     5212279.403 9    -29919.36829       110.000
  22945418.018    -9927500.098 7  -2706324.31225        56.000
  21316694.070    -5804194.406 9  -2264612.40629       112.000
  22419167.883     1693240.560 7   2975402.44926        58.000
  21334094.803     3099522.459 9   -207758.39929        98.000
 96  6  5 18 28 30.0000000  0  6G 2G 4G 5G24G 7G 9
  23635850.241     2086821.321 7   3368220.22925        52.000
  20618153.120     5222629.197 9    -21854.59429       108.000
  22939509.588    -9958564.367 7  -2730530.25025        56.000
  21312311.524    -5827230.334 9  -2282562.47929       118.000
  22427102.280     1734955.278 7   3007907.40826        56.000
  21335532.428     3107081.382 9   -201868.33229        98.000
 96  6  5 18 28 45.0000000  0  6G 2G 4G 5G24G 7G 9
  23645121.803     2135532.913 7   3406177.27925        54.000
  20620151.626     5233147.703 9    -13658.35729       106.000
  22933607.274    -9989582.812 7  -2754700.40925        58.000
  21307954.010    -5850118.559 9  -2300397.44429       114.000
  22435054.455     1776706.488 7   3040440.82026        58.000
  21337003.510     3114801.429 9   -195852.71029       100.000
 96  6  5 18 29  0.0000000  0  6G 2G 4G 5G24G 7G 9
  23654405.206     2184325.428 7   3444197.37025        56.000
  20622185.088     5243833.270 9     -5331.93429       104.000
  22927712.905   -10020564.015 7  -2778841.61125        62.000
  21303630.104    -5872861.483 9  -2318119.19229       114.000
  22443004.351     1818486.235 7   3072996.45826        60.000
  21338502.502     3122679.615 9   -189713.87129       100.000
 96  6  5 18 29 15.0000000  0  6G 2G 4G 5G24G 7G 9
  23663706.267     2233203.214 7   3482283.90325        52.000
  20624253.446     5254682.179 9      3121.77629       108.000
  22921822.492   -10051511.082 7  -2802956.18125        60.000
  21299327.422    -5895460.231 9  -2335728.59029       112.000
  22450955.837     1860293.050 7   3105573.18326        56.000
  21340030.035     3130714.391 9   -183453.00229       102.000
 96  6  5 18 29 30.0000000  0  6G 2G 4G 5G24G 7G 9
  23673029.783     2282173.204 7   3520442.35125        52.000
  20626348.636     5265695.106 9     11703.30629       108.000
  22915938.286   -10082423.031 7  -2827043.39725        62.000
  21295056.969    -5917914.276 9  -2353225.22929       114.000
  22458921.592     1902133.477 7   3138176.10726        58.000
  21341590.304     3138910.486 9   -177066.42629       100.000
 96  6  5 18 29 45.0000000  0  6G 2G 4G 5G24G 7G 9
  23682360.553     2331232.570 7   3558670.37625        52.000
  20628474.284     5276864.895 9     20406.97429       110.000
  22910065.442   -10113304.555 7  -2851106.96325        58.000
  21290807.800    -5940228.393 9  -2370612.89029       114.000
  22466888.217     1944003.947 7   3170802.37226        60.000
  21343179.564     3147265.312 9   -170556.21429       102.000
 96  6  5 18 30  0.0000000  0  6G 2G 4G 5G24G 7G 9
  23691714.467     2380377.961 7   3596965.50925        52.000
  20630626.195     5288189.988 9     29231.73829       108.000
  22904191.788   -10144161.998 7  -2875151.66925        62.000
  21286586.663    -5962409.435 9  -2387896.78429       114.000
  22474861.317     1985900.533 7   3203449.07526        58.000
  21344801.142     3155775.338 9   -163925.02429       104.000
 96  6  5 18 30 15.0000000  0  6G 2G 4G 5G24G 7G 9
  23701081.543     2429620.261 7   3635336.04925        52.000
  20632814.020     5299682.409 9     38186.85729       106.000
  22898326.528   -10174989.096 8  -2899172.80725        64.000
  21282394.215    -5984449.540 9  -2405070.89329       114.000
  22482836.036     2027834.442 7   3236124.83426        58.000
  21346451.769     3164450.459 9   -157165.20329       104.000
 96  6  5 18 30 30.0000000  0  6G 2G 4G 5G24G 7G 9
  23710470.593     2478955.975 7   3673779.42225        52.000
  20635035.003     5311336.881 9     47268.27229       106.000
  22892462.618   -10205793.406 7  -2923176.15625        58.000
  21278223.502    -6006356.172 9  -2422140.99429       114.000
  22490826.615     2069803.062 7   3268827.65226        58.000
  21348133.934     3173286.342 9   -150280.10429       106.000
 96  6  5 18 30 45.0000000  0  6G 2G 4G 5G24G 7G 9
  23719881.678     2528385.619 7   3712295.97125        54.000
  20637282.517     5323154.313 9     56476.66229       104.000
  22886605.333   -10236574.089 7  -2947161.08225        58.000
  21274083.009    -6028130.422 9  -2439107.93329       116.000
  22498822.259     2111807.561 7   3301558.42526        62.000
  21349844.760     3182286.041 9   -143267.35029       106.000
 96  6  5 18 31  0.0000000  0  6G 2G 4G 5G24G 7G 9
  23729301.876     2577901.588 7   3750879.86725        54.000
  20639561.299     5335134.471 9     65811.85629       106.000
  22880751.465   -10267334.466 7  -2971130.19826        58.000
  21269961.192    -6049779.523 9  -2455977.35629       116.000
  22506818.264     2153842.809 7   3334313.16026        60.000
  21351588.953     3191444.757 9   -136130.68829       108.000
 96  6  5 18 31 15.0000000  0  6G 2G 4G 5G24G 7G 9
  23738739.493     2627497.982 7   3789526.39025        54.000
  20641873.358     5347272.974 9     75270.42229       108.000
  22874900.866   -10298074.835 7  -2995083.71526        60.000
  21265864.738    -6071309.754 9  -2472754.15229       116.000
  22514822.153     2195906.891 7   3367090.34226        58.000
  21353360.366     3200756.751 9   -128874.60029       106.000
 96  6  5 18 31 30.0000000  0  6G 2G 4G 5G24G 7G 9
  23748191.739     2677181.533 7   3828240.82825        52.000
  20644212.519     5359578.750 9     84859.34029       104.000
  22869057.641   -10328780.085 7  -3019009.88726        62.000
  21261793.527    -6092713.182 9  -2489432.14429       118.000
  22522833.897     2238014.867 7   3399901.74026        58.000
  21355164.517     3210233.845 9   -121489.86329       110.000
 96  6  5 18 31 45.0000000  0  6G 2G 4G 5G24G 7G 9
  23757665.390     2726944.888 7   3867017.38325        50.000
  20646585.586     5372050.528 9     94577.60729       104.000
  22863223.200   -10359448.659 7  -3042907.45726        60.000
  21257743.121    -6113992.300 9  -2506013.27129       116.000
  22530854.844     2280162.853 7   3432744.30126        60.000
  21357001.585     3219875.461 9   -113976.92729       110.000
 96  6  5 18 32  0.0000000  0  6G 2G 4G 5G24G 7G 9
  23767147.346     2776775.757 7   3905846.54425        50.000
  20648990.461     5384680.990 9    104419.51429       102.000
  22857392.926   -10390088.284 7  -3066782.48226        62.000
  21253713.280    -6135157.020 9  -2522505.26229       116.000
  22538883.136     2322338.521 7   3465608.45026        60.000
  21358862.877     3229669.905 9   -106344.88829       110.000
 96  6  5 18 32 15.0000000  0  6G 2G 4G 5G24G 7G 9
  23776644.591     2826685.821 7   3944737.49625        48.000
  20651426.485     5397482.283 9    114394.54829       104.000
  22851571.706   -10420685.381 7  -3090624.37326        62.000
  21249711.081    -6156193.102 9  -2538897.00629       118.000
  22546915.026     2364554.482 7   3498503.99226        58.000
  21360759.844     3239630.646 9    -98583.28129       112.000
 96  6  5 18 32 30.0000000  0  6G 2G 4G 5G24G 7G 9
  23786154.908     2876666.793 7   3983683.70025        48.000
  20653891.498     5410445.128 9    124495.47729       102.000
  22845755.223   -10451241.015 7  -3114433.94226        62.000
  21245732.146    -6177102.921 9  -2555190.37229       116.000
  22554953.151     2406804.757 7   3531426.29425        58.000
  21362682.443     3249753.019 9    -90695.71829       112.000
 96  6  5 18 32 45.0000000  0  6G 2G 4G 5G24G 7G 9
  23795674.188     2926716.036 7   4022683.06925        46.000
  20656392.517     5423567.393 9    134720.60829       104.000
  22839952.410   -10481753.022 7  -3138209.51026        60.000
  21241775.935    -6197885.657 9  -2571384.70929       118.000
  22562998.201     2449087.085 7   3564373.53425        58.000
  21364639.968     3260035.058 9    -82683.75929       114.000
 96  6  5 18 33  0.0000000  0  6G 2G 4G 5G24G 7G 9
  23805213.793     2976834.284 7   4061736.18625        48.000
  20658918.568     5436853.963 9    145073.78629       104.000
  22834153.914   -10512216.646 7  -3161947.41526        62.000
  21237847.544    -6218535.359 9  -2587475.37229       120.000
  22571051.916     2491404.188 7   3597347.91225        56.000
  21366630.739     3270479.762 9    -74545.03429       110.000
 96  6  5 18 33 15.0000000  0  6G 2G 4G 5G24G 7G 9
  23814766.320     3027010.793 7   4100834.74625        50.000
  20661472.560     5450294.797 9    155547.16729       100.000
  22828360.485   -10542642.979 7  -3185656.22926        58.000
  21233944.546    -6239060.479 9  -2603468.96529       122.000
  22579110.637     2533743.972 7   3630339.92925        58.000
  21368648.133     3281074.178 9    -66289.65229       112.000
 96  6  5 18 33 30.0000000  0  6G 2G 4G 5G24G 7G 9
  23824323.674     3077262.575 7   4139991.90725        46.000
  20664065.045     5463903.598 9    166151.41929       104.000
  22822586.542   -10573016.587 7  -3209323.97326        62.000
  21230064.062    -6259442.636 9  -2619351.16729       118.000
  22587174.484     2576119.518 7   3663359.82225        58.000
  21370690.589     3291832.988 9    -57906.15829       116.000
 96  6  5 18 33 45.0000000  0  6G 2G 4G 5G24G 7G 9
  23833897.156     3127545.348 7   4179173.27025        48.000
  20666678.786     5477636.401 9    176852.29429       104.000
  22816805.614   -10603383.942 7  -3232986.84626        60.000
  21226202.945    -6279725.532 9  -2635156.01529       120.000
  22595235.904     2618482.764 7   3696370.13225        58.000
  21372762.305     3302710.717 9    -49430.01929       112.000
 96  6  5 18 34  0.0000000  0  6G 2G 4G 5G24G 7G 9
  23843468.810     3177878.864 7   4218394.18825        48.000
  20669321.457     5491510.821 9    187663.53929       102.000
  22811027.984   -10633731.780 7  -3256634.47726        62.000
  21222366.351    -6299891.602 9  -2650869.82829       118.000
  22603296.154     2660847.787 7   3729381.83125        58.000
  21374856.535     3313720.957 9    -40850.60429       114.000
 96  6  5 18 34 15.0000000  0  6G 2G 4G 5G24G 7G 9
  23853066.965     3228291.429 7   4257676.67525        48.000
  20671993.537     5505553.868 9    198606.18329       102.000
  22805263.065   -10664036.393 7  -3280248.45626        62.000
  21218556.499    -6319914.981 9  -2666472.44529       116.000
  22611365.367     2703242.035 7   3762416.30125        58.000
  21376978.975     3324889.324 9    -32147.98829       114.000
 96  6  5 18 34 30.0000000  0  6G 2G 4G 5G24G 7G 9
  23862673.395     3278778.389 7   4297017.13725        48.000
  20674698.114     5519759.129 9    209675.25029       102.000
  22799499.075   -10694302.765 7  -3303832.61426        62.000
  21214772.249    -6339800.437 9  -2681967.57529       118.000
  22619441.566     2745660.173 7   3795469.41725        60.000
  21379136.372     3336210.028 9    -23326.64428       114.000
 96  6  5 18 34 45.0000000  0  6G 2G 4G 5G24G 7G 9
  23872289.058     3329336.541 7   4336413.01425        48.000
  20677428.744     5534124.986 9    220869.39229       100.000
  22793753.733   -10724536.509 7  -3327391.37926        60.000
  21211012.252    -6359553.694 9  -2697359.75729       118.000
  22627513.958     2788097.697 7   3828537.58625        56.000
  21381318.052     3347676.785 9    -14391.55428       112.000
 96  6  5 18 35  0.0000000  0  6G 2G 4G 5G24G 7G 9
  23881930.773     3379971.249 7   4375868.62825        46.000
  20680193.250     5548654.895 9    232191.39729       102.000
  22787998.677   -10754738.594 7  -3350925.46826        60.000
  21207277.467    -6379176.892 9  -2712650.54129       120.000
  22635594.684     2830554.829 7   3861621.05625        58.000
  21383531.779     3359292.876 9     -5340.04629       112.000
 96  6  5 18 35 15.0000000  0  6G 2G 4G 5G24G 7G 9
  23891575.996     3430681.466 7   4415383.06125        46.000
  20682986.446     5563347.948 9    243640.52229       100.000
  22782260.229   -10784912.486 8  -3374437.60226        64.000
  21203568.855    -6398673.254 9  -2727842.53029       120.000
  22643674.780     2873032.482 7   3894720.48025        56.000
  21385766.582     3371059.654 9      3828.85929       110.000
 96  6  5 18 35 30.0000000  0  6G 2G 4G 5G24G 7G 9
  23901242.084     3481467.811 7   4454956.82325        48.000
  20685813.729     5578200.039 9    255213.56929       102.000
  22776524.090   -10815059.188 7  -3397928.54626        58.000
  21199883.686    -6418043.649 9  -2742936.33529       118.000
  22651765.459     2915529.727 7   3927835.20225        58.000
  21388035.831     3382977.126 9     13115.19229       106.000
 96  6  5 18 35 45.0000000  0  6G 2G 4G 5G24G 7G 9
  23910927.629     3532370.830 7   4494621.49225        46.000
  20688675.608     5593248.201 9    266939.40929       102.000
  22770796.825   -10845137.769 7  -3421366.37626        58.000
  21196226.638    -6437248.880 9  -2757901.43929       114.000
  22659860.755     2958090.524 7   3960999.43025        58.000
  21390343.214     3395089.287 9     22553.24729       110.000
 96  6  5 18 36  0.0000000  0  6G 2G 4G 5G24G 7G 9
  23920627.744     3583373.045 7   4534363.39425        46.000
  20691574.691     5608472.581 9    278802.57929       100.000
  22765080.143   -10875166.984 7  -3444765.73226        62.000
  21192602.417    -6456309.528 9  -2772753.87629       116.000
  22667969.211     3000696.974 7   3994199.25725        58.000
  21392678.597     3407376.032 9     32127.33429       108.000
 96  6  5 18 36 15.0000000  0  6G 2G 4G 5G24G 7G 9
  23930357.418     3634452.579 7   4574165.60124        48.000
  20694504.323     5623851.856 9    290786.42829       104.000
  22759377.941   -10905165.370 7  -3468141.11526        60.000
  21188996.963    -6475244.390 9  -2787508.31929       114.000
  22676083.904     3043330.567 7   4027420.23725        58.000
  21395045.878     3419818.604 9     41822.81929       108.000
 96  6  5 18 36 30.0000000  0  6G 2G 4G 5G24G 7G 9
  23940091.470     3685607.932 7   4614026.90124        50.000
  20697456.739     5639384.269 9    302889.60829       102.000
  22753674.419   -10935129.625 7  -3491489.88126        60.000
  21185419.329    -6494052.053 9  -2802163.63329       116.000
  22684202.913     3085992.356 7   4060663.19025        52.000
  21397445.267     3432417.455 9     51640.10029       106.000
 96  6  5 18 36 45.0000000  0  6G 2G 4G 5G24G 7G 9
  23949840.211     3736836.750 7   4653945.45625        48.000
  20700445.220     5655066.670 9    315109.65629       102.000
  22747976.474   -10965061.963 7  -3514813.77526        58.000
  21181863.881    -6512734.849 9  -2816721.64829       116.000
  22692320.034     3128679.555 7   4093925.92425        56.000
  21399869.688     3445169.653 9     61576.87329       108.000
 96  6  5 18 37  0.0000000  0  6G 2G 4G 5G24G 7G 9
  23959599.624     3788141.882 7   4693923.44624        46.000
  20703454.147     5670904.268 9    327450.63829       102.000
  22742288.901   -10994957.941 7  -3538109.34726        60.000
  21178333.675    -6531290.805 9  -2831180.83029       118.000
  22700453.553     3171396.961 7   4127212.18125        56.000
  21402327.447     3458081.801 9     71638.28929       108.000
 96  6  5 18 37 15.0000000  0  6G 2G 4G 5G24G 7G 9
  23969382.872     3839521.186 7   4733959.21824        50.000
  20706502.107     5686896.562 9    339912.16829       104.000
  22736607.354   -11024815.903 8  -3561375.25826        64.000
  21174826.972    -6549717.289 9  -2845539.12029       116.000
  22708582.515     3214144.527 7   4160521.96825        56.000
  21404811.497     3471152.667 9     81823.36229       102.000
 96  6  5 18 37 30.0000000  0  6G 2G 4G 5G24G 7G 9
  23979170.376     3890972.688 7   4774051.27124        50.000
  20709569.463     5703043.099 9    352493.89029       104.000
  22730932.883   -11054633.051 7  -3584609.39326        62.000
  21171343.834    -6568010.047 9  -2859793.20729       114.000
  22716726.887     3256923.080 7   4193855.89825        56.000
  21407330.743     3484379.017 9     92129.60929       104.000
 96  6  5 18 37 45.0000000  0  6G 2G 4G 5G24G 7G 9
  23988973.739     3942494.410 7   4814198.01524        50.000
  20712673.664     5719341.190 9    365193.69229       106.000
  22725266.565   -11084410.915 7  -3607812.92626        62.000
  21167889.775    -6586170.318 9  -2873944.06529       114.000
  22724874.407     3299727.731 7   4227210.14025        56.000
  21409876.521     3497754.594 9    102552.11329       102.000
 96  6  5 18 38  0.0000000  0  6G 2G 4G 5G24G 7G 9
  23998792.811     3994086.862 7   4854399.91924        50.000
  20715802.149     5735793.894 9    378014.00229       104.000
  22719607.413   -11114149.298 8  -3630985.68526        64.000
  21164461.168    -6604198.015 9  -2887991.61529       112.000
  22733023.575     3342557.949 7   4260584.35626        58.000
  21412453.057     3511278.393 9    113090.14429       104.000
 96  6  5 18 38 15.0000000  0  6G 2G 4G 5G24G 7G 9
  24008622.377     4045748.665 7   4894655.85624        46.000
  20718961.631     5752402.023 9    390955.40129       102.000
  22713957.075   -11143850.242 7  -3654129.29626        62.000
  21161050.460    -6622092.546 9  -2901935.39729       114.000
  22741182.157     3385410.691 7   4293976.09126        60.000
  21415051.538     3524948.055 9    123741.81829       100.000
 96  6  5 18 38 30.0000000  0  6G 2G 4G 5G24G 7G 9
  24018466.392     4097484.426 7   4934969.38824        46.000
  20722155.051     5769171.706 9    404022.67029       104.000
  22708315.730   -11173508.904 7  -3677239.91326        60.000
  21157674.976    -6639850.187 9  -2915772.51729       118.000
  22749336.272     3428292.571 7   4327390.52926        60.000
  21417682.367     3538772.125 9    134513.82629        98.000
 96  6  5 18 38 45.0000000  0  6G 2G 4G 5G24G 7G 9
  24028329.833     4149288.950 7   4975336.50924        46.000
  20725377.190     5786098.037 9    417212.01329       104.000
  22702674.955   -11203133.249 8  -3700323.82026        64.000
  21154321.438    -6657479.233 9  -2929509.43429       116.000
  22757505.377     3471195.974 7   4360821.73226        60.000
  21420340.417     3552744.793 9    145401.60929       100.000
 96  6  5 18 39  0.0000000  0  6G 2G 4G 5G24G 7G 9
  24038195.224     4201166.247 7   5015760.32824        44.000
  20728627.570     5803185.022 9    430526.55729       104.000
  22697042.125   -11232723.480 8  -3723381.11426        64.000
  21150991.104    -6674976.790 9  -2943143.88129       116.000
  22765672.833     3514124.374 7   4394272.41026        58.000
  21423028.956     3566869.307 9    156407.71529       100.000
 96  6  5 18 39 15.0000000  0  6G 2G 4G 5G24G 7G 9
  24048084.208     4253119.401 7   5056243.29324        42.000
  20731912.066     5820432.406 9    443966.08129       104.000
  22691419.517   -11262278.222 8  -3746410.78726        64.000
  21147685.712    -6692336.120 9  -2956670.61629       114.000
  22773842.867     3557079.242 7   4427743.71826        56.000
  21425745.285     3581147.891 9    167533.88129       102.000
 96  6  5 18 39 30.0000000  0  6G 2G 4G 5G24G 7G 9
  24057988.571     4305143.105 7   5096781.18524        44.000
  20735221.775     5837829.923 9    457522.58429       102.000
  22685800.327   -11291806.167 7  -3769419.58326        62.000
  21144407.631    -6709561.888 9  -2970093.29529       116.000
  22782019.016     3600053.028 7   4461229.74526        54.000
  21428493.453     3595573.020 9    178774.22929       102.000
 96  6  5 18 39 45.0000000  0  6G 2G 4G 5G24G 7G 9
  24067895.812     4357238.185 7   5137374.73524        44.000
  20738562.152     5855376.514 9    471195.24329       104.000
  22680188.722   -11321307.723 8  -3792407.80626        66.000
  21141155.003    -6726655.104 9  -2983412.68129       116.000
  22790200.113     3643046.166 7   4494730.89526        54.000
  21431260.657     3610147.878 9    190131.23629        98.000
 96  6  5 18 40  0.0000000  0  6G 2G 4G 5G24G 7G 9
  24077826.078     4409407.503 7   5178026.09424        44.000
  20741930.201     5873076.511 9    484987.45229       104.000
  22674575.708   -11350781.715 7  -3815374.55626        62.000
  21137931.844    -6743614.402 9  -2996627.72329       120.000
  22798392.481     3686061.615 7   4528249.41426        54.000
  21434068.333     3624878.210 9    201609.40029       102.000
 96  6  5 18 40 15.0000000  0  6G 2G 4G 5G24G 7G 9
  24087763.658     4461652.988 7   5218736.79624        42.000
  20745326.699     5890933.250 9    498901.80829       102.000
  22668975.765   -11380225.589 8  -3838317.78926        64.000
  21134726.493    -6760438.627 9  -3009737.48429       118.000
  22806582.661     3729100.870 7   4561786.48426        56.000
  21436902.211     3639766.930 9    213211.02529       100.000
 96  6  5 18 40 30.0000000  0  6G 2G 4G 5G24G 7G 9
  24097724.502     4513972.265 7   5259505.06824        44.000
  20748752.937     5908947.920 9    512939.21429       104.000
  22663376.721   -11409637.480 7  -3861236.12026        62.000
  21131549.623    -6777127.521 9  -3022741.80429       118.000
  22814774.730     3772165.691 7   4595343.48826        54.000
  21439765.439     3654815.111 9    224936.87629       100.000
 96  6  5 18 40 45.0000000  0  6G 2G 4G 5G24G 7G 9
  24107694.251     4566355.216 7   5300322.93024        44.000
  20752210.414     5927112.166 9    527093.15729       102.000
  22657786.341   -11439024.307 8  -3884134.96826        66.000
  21128400.273    -6793688.620 9  -3035646.57029       118.000
  22822973.005     3815246.168 7   4628912.62426        50.000
  21442659.306     3670010.813 9    236777.64829       100.000
 96  6  5 18 41  0.0000000  0  6G 2G 4G 5G24G 7G 9
  24117671.553     4618809.661 7   5341196.46024        46.000
  20755697.030     5945433.994 9    541369.90629       102.000
  22652198.989   -11468378.288 7  -3907008.22226        60.000
  21125275.746    -6810108.792 9  -3048441.50629       120.000
  22831178.444     3858350.324 7   4662500.24425        52.000
  21445577.096     3685358.521 9    248736.88428       100.000
 96  6  5 18 41 15.0000000  0  6G 2G 4G 5G24G 7G 9
  24127667.833     4671321.734 6   5382114.91524        40.000
  20759208.259     5963898.917 9    555758.15229       100.000
  22646623.149   -11497708.350 8  -3929862.79126        64.000
  21122174.393    -6826397.148 9  -3061133.73129       118.000
  22839381.755     3901465.749 7   4696096.66026        52.000
  21448528.253     3700846.822 9    260805.67328       104.000
 96  6  5 18 41 30.0000000  0  6G 2G 4G 5G24G 7G 9
  24137671.788     4723890.860 6   5423077.78924        40.000
  20762753.065     5982509.378 9    570259.81029       100.000
  22641040.204   -11527009.678 8  -3952694.96726        64.000
  21119101.550    -6842554.927 9  -3073724.20029       120.000
  22847583.417     3944594.337 7   4729703.37926        50.000
  21451498.237     3716476.991 9    272985.01829       100.000
 96  6  5 18 41 45.0000000  0  6G 2G 4G 5G24G 7G 9
  24147684.286     4776520.075 7   5464087.54424        42.000
  20766321.075     6001271.709 9    584879.80829       102.000
  22635476.746   -11556274.961 7  -3975499.08926        60.000
  21116052.721    -6858579.287 9  -3086210.70329       122.000
  22855798.090     3987743.067 7   4763325.74926        54.000
  21454500.299     3732253.524 9    285278.43629        98.000
 96  6  5 18 42  0.0000000  0  6G 2G 4G 5G24G 7G 9
  24157709.556     4829204.658 6   5505140.39524        38.000
  20769919.934     6020183.647 9    599616.40229       104.000
  22629910.709   -11585507.540 8  -3998277.71226        64.000
  21113027.815    -6874475.821 9  -3098597.61029       122.000
  22864010.635     4030906.126 7   4796959.28625        54.000
  21457531.950     3748171.072 9    297681.70629        98.000
 96  6  5 18 42 15.0000000  0  6G 2G 4G 5G24G 7G 9
  24167748.916     4881948.570 7   5546239.53824        42.000
  20773550.180     6039245.798 9    614470.00229       104.000
  22624353.546   -11614702.703 7  -4021027.20126        60.000
  21110025.394    -6890240.669 9  -3110881.90129       122.000
  22872234.272     4074087.163 7   4830606.78725        54.000
  21460587.644     3764229.856 9    310195.02128       102.000
 96  6  5 18 42 30.0000000  0  6G 2G 4G 5G24G 7G 9
  24177782.160     4934698.104 6   5587343.03124        38.000
  20777193.648     6058400.993 9    629396.12629       102.000
  22618796.773   -11643912.868 8  -4043788.36726        64.000
  21107041.649    -6905924.160 9  -3123102.79929       122.000
  22880439.112     4117235.362 7   4864228.75625        52.000
  21463655.660     3780376.909 9    322777.12928       102.000
 96  6  5 18 42 45.0000000  0  6G 2G 4G 5G24G 7G 9
  24187836.899     4987509.988 7   5628495.08723        44.000
  20780866.765     6077701.727 9    644435.67029       106.000
  22613244.107   -11673082.851 7  -4066518.22726        58.000
  21104083.927    -6921467.771 9  -3135214.70129       120.000
  22888656.903     4160407.512 7   4897869.35225        52.000
  21466756.144     3796669.487 9    335472.62928       100.000
 96  6  5 18 43  0.0000000  0  6G 2G 4G 5G24G 7G 9
  24197897.754     5040388.860 7   5669699.41523        44.000
  20784566.714     6097145.897 9    659586.97729       102.000
  22607701.514   -11702212.740 8  -4089216.81326        66.000
  21101153.935    -6936870.634 9  -3147216.93029       120.000
  22896876.222     4203603.728 7   4931528.74625        48.000
  21469885.587     3813109.188 9    348282.77729       102.000
 96  6  5 18 43 15.0000000  0  6G 2G 4G 5G24G 7G 9
  24207974.918     5093332.033 7   5710953.77723        44.000
  20788295.323     6116729.112 9    674846.62029       102.000
  22602166.416   -11731306.227 7  -4111887.06426        62.000
  21098250.625    -6952138.591 9  -3159114.01529       120.000
  22905095.842     4246822.128 7   4965205.43425        50.000
  21473045.460     3829695.025 9    361206.81629       106.000
 96  6  5 18 43 30.0000000  0  6G 2G 4G 5G24G 7G 9
  24218056.848     5146341.304 7   5752259.68623        44.000
  20792048.394     6136452.417 9    690215.43129       102.000
  22596639.682   -11760361.591 7  -4134527.59026        62.000
  21095366.322    -6967274.376 9  -3170908.13429       120.000
  22913328.143     4290061.587 7   4998898.50325        50.000
  21476225.568     3846430.058 9    374247.09029       106.000
 96  6  5 18 43 45.0000000  0  6G 2G 4G 5G24G 7G 9
  24228161.683     5199423.155 7   5793622.08423        42.000
  20795829.107     6156319.991 9    705696.65329       104.000
  22591115.856   -11789376.821 7  -4157136.84026        60.000
  21092516.884    -6982276.831 9  -3182598.36729       124.000
  22921556.307     4333324.360 7   5032609.70225        48.000
  21479439.553     3863316.237 9    387405.12929       102.000
 96  6  5 18 44  0.0000000  0  6G 2G 4G 5G24G 7G 9
  24238278.419     5252575.746 7   5835039.70723        42.000
  20799638.660     6176328.868 9    721287.98429       104.000
  22585598.116   -11818356.934 7  -4179718.76626        62.000
  21089683.006    -6997146.062 9  -3194184.77329       122.000
  22929793.464     4376605.132 7   5066334.95825        46.000
  21482683.398     3880351.864 9    400679.63329       106.000
 96  6  5 18 44 15.0000000  0  6G 2G 4G 5G24G 7G 9
  24248405.678     5305803.544 7   5876515.86823        44.000
  20803470.427     6196483.581 9    736992.96029       104.000
  22580095.515   -11847299.332 8  -4202271.27026        64.000
  21086881.626    -7011879.810 9  -3205665.59629       120.000
  22938041.145     4419905.754 7   5100075.68125        46.000
  21485955.662     3897540.601 9    414073.45529       108.000
 96  6  5 18 44 30.0000000  0  6G 2G 4G 5G24G 7G 9
  24258546.218     5359119.935 6   5918061.06423        40.000
  20807338.409     6216799.972 9    752823.88529       106.000
  22574595.763   -11876189.567 8  -4224783.15026        64.000
  21084105.338    -7026460.826 9  -3217027.45429       122.000
  22946285.587     4463241.570 7   5133843.78925        46.000
  21489259.315     3914898.145 9    427598.77929       106.000
 96  6  5 18 44 45.0000000  0  6G 2G 4G 5G24G 7G 9
  24268703.276     5412517.292 6   5959669.44423        38.000
  20811234.632     6237274.268 9    768777.90929       108.000
  22569107.642   -11905035.534 8  -4247260.48126        66.000
  21081356.451    -7040898.424 9  -3228277.50529       118.000
  22954533.297     4506604.408 7   5167633.05425        44.000
  21492592.528     3932419.996 9    441252.18429       108.000
 96  6  5 18 45  0.0000000  0  6G 2G 4G 5G24G 7G 9
  24278888.185     5465984.474 6   6001332.10923        40.000
  20815156.367     6257897.707 9    784848.12629       108.000
  22563624.858   -11933846.604 7  -4269710.66526        60.000
  21078633.855    -7055209.352 9  -3239428.86629       120.000
  22962788.562     4549978.984 7   5201431.42425        44.000
  21495956.829     3950090.466 9    455021.37829       108.000
 96  6  5 18 45 15.0000000  0  6G 2G 4G 5G24G 7G 9
  24289076.272     5519533.628 6   6043058.62423        38.000
  20819114.797     6278688.128 9    801048.44629       112.000
  22558153.285   -11962607.306 8  -4292121.58926        64.000
  21075936.053    -7069381.124 9  -3250471.80229       118.000
  22971042.388     4593380.156 7   5235250.48325        44.000
  21499346.882     3967922.749 9    468916.64629       104.000
 96  6  5 18 45 30.0000000  0  6G 2G 4G 5G24G 7G 9
  24299280.788     5573156.934 6   6084843.01723        38.000
  20823098.199     6299641.722 9    817375.92029       108.000
  22552688.369   -11991322.492 7  -4314497.05426        62.000
  21073268.200    -7083417.281 9  -3261409.07629       120.000
  22979305.987     4636800.954 7   5269084.82525        46.000
  21502773.929     3985913.330 9    482935.26029       110.000
 96  6  5 18 45 45.0000000  0  6G 2G 4G 5G24G 7G 9
  24309501.252     5626859.186 6   6126688.89923        40.000
  20827123.722     6320765.090 9    833835.69329       112.000
  22547229.928   -12019987.751 7  -4336833.62726        62.000
  21070621.752    -7097312.497 9  -3272236.49729       118.000
  22987580.079     4680244.579 7   5302936.99025        46.000
  21506230.446     4004065.932 9    497080.13929       110.000
 96  6  5 18 46  0.0000000  0  6G 2G 4G 5G24G 7G 9
  24319737.066     5680622.588 6   6168582.43023        40.000
  20831170.471     6342042.530 9    850415.51429       114.000
  22541785.726   -12048619.556 8  -4359144.11426        64.000
  21068002.675    -7111080.121 9  -3282964.51129       118.000
  22995845.747     4723697.897 7   5336796.67025        50.000
  21509709.928     4022362.296 9    511337.04529       106.000
 96  6  5 18 46 15.0000000  0  6G 2G 4G 5G24G 7G 9
  24329976.268     5734449.429 6   6210525.38623        38.000
  20835247.378     6363480.366 9    867120.32329       110.000
  22536339.097   -12077212.358 7  -4381424.21326        62.000
  21065408.751    -7124714.188 9  -3293588.46329       120.000
  23004117.771     4767168.240 7   5370669.67225        50.000
  21513218.609     4040807.069 9    525709.58029       108.000
 96  6  5 18 46 30.0000000  0  6G 2G 4G 5G24G 7G 9
  24340229.500     5788340.904 6   6252518.65223        38.000
  20839361.460     6385080.295 9    883951.43329       110.000
  22530910.125   -12105760.968 8  -4403669.86126        66.000
  21062837.731    -7138213.219 9  -3304107.18029       116.000
  23012391.893     4810659.759 7   5404559.15625        52.000
  21516752.382     4059399.802 9    540197.41129       106.000
 96  6  5 18 46 45.0000000  0  6G 2G 4G 5G24G 7G 9
  24350493.884     5842293.914 6   6294559.95123        38.000
  20843501.144     6406839.875 9    900906.94329       110.000
  22525486.280   -12134266.075 8  -4425881.61226        64.000
  21060295.761    -7151579.852 9  -3314522.73629       116.000
  23020674.828     4854173.484 7   5438465.95925        52.000
  21520320.032     4078139.119 9    554799.46929       106.000
 96  6  5 18 47  0.0000000  0  6G 2G 4G 5G24G 7G 9
  24360780.243     5896308.698 6   6336649.32223        34.000
  20847672.367     6428756.652 9    917984.96629       110.000
  22520068.941   -12162727.309 8  -4448059.18026        68.000
  21057776.814    -7164816.022 9  -3324836.62329       114.000
  23028955.696     4897707.547 7   5472388.62425        52.000
  21523912.236     4097021.680 9    569513.16529       104.000
 96  6  5 18 47 15.0000000  0  6G 2G 4G 5G24G 7G 9
  24371056.079     5950384.459 6   6378786.21823        36.000
  20851871.260     6450828.908 9    935184.11829       110.000
  22514658.826   -12191144.542 7  -4470202.50626        60.000
  21055285.809    -7177917.960 9  -3335045.92729       118.000
  23037249.604     4941263.273 7   5506328.10725        50.000
  21527534.838     4116047.438 9    584338.40829       108.000
 96  6  5 18 47 30.0000000  0  6G 2G 4G 5G24G 7G 9
  24381364.203     6004517.395 6   6420967.66923        36.000
  20856099.533     6473051.469 9    952500.39729       112.000
  22509259.294   -12219522.033 7  -4492314.85226        60.000
  21052813.271    -7190885.796 9  -3345150.72929       116.000
  23045542.493     4984840.153 7   5540284.06525        50.000
  21531180.014     4135216.981 9    599275.69928       104.000
 96  6  5 18 47 45.0000000  0  6G 2G 4G 5G24G 7G 9
  24391685.637     6058743.039 6   6463221.40723        38.000
  20860362.102     6495455.745 9    969958.28629       110.000
  22503875.861   -12247825.132 8  -4514369.18626        66.000
  21050382.673    -7203684.062 9  -3355123.39229       116.000
  23053844.945     5028471.994 7   5574282.85825        50.000
  21534865.573     4154562.180 9    614349.86328       110.000
 96  6  5 18 48  0.0000000  0  6G 2G 4G 5G24G 7G 9
  24402013.697     6113051.874 6   6505539.96323        38.000
  20864657.888     6518028.010 9    987547.04929       112.000
  22498498.334   -12276062.684 7  -4536372.48326        60.000
  21047974.560    -7216325.371 9  -3364973.76429       116.000
  23062152.134     5072151.109 7   5608318.54025        50.000
  21538573.286     4174068.489 9    629549.57228       108.000
 96  6  5 18 48 15.0000000  0  6G 2G 4G 5G24G 7G 9
  24412364.452     6167417.579 6   6547902.81823        38.000
  20868985.542     6540741.045 9   1005245.52329       112.000
  22493134.357   -12304256.620 8  -4558341.74626        64.000
  21045593.879    -7228833.812 9  -3374720.58329       114.000
  23070468.107     5115853.931 7   5642372.70225        52.000
  21542314.126     4193712.973 9    644856.97728       112.000
 96  6  5 18 48 30.0000000  0  6G 2G 4G 5G24G 7G 9
  24422721.022     6221841.391 6   6590310.91023        38.000
  20873330.134     6563594.342 9   1023053.28429       110.000
  22487779.674   -12332404.161 7  -4580274.89126        62.000
  21043236.251    -7241210.730 9  -3384364.93629       112.000
  23078792.175     5159579.548 7   5676444.62025        52.000
  21546077.511     4213498.201 9    660274.02728       108.000
 96  6  5 18 48 45.0000000  0  6G 2G 4G 5G24G 7G 9
  24433089.464     6276322.670 6   6632763.81023        38.000
  20877706.175     6586585.192 9   1040968.23929       110.000
  22482432.906   -12360506.520 7  -4602172.82626        62.000
  21040909.471    -7253455.928 9  -3393906.63629       114.000
  23087116.962     5203325.604 7   5710532.46925        54.000
  21549871.265     4233425.179 9    675801.52928       112.000
 96  6  5 18 49  0.0000000  0  6G 2G 4G 5G24G 7G 9
  24443471.877     6330865.559 6   6675264.71023        40.000
  20882107.578     6609713.523 9   1058990.31329       112.000
  22477092.583   -12388562.035 7  -4624034.28626        60.000
  21038606.856    -7265567.935 9  -3403344.56329       116.000
  23095445.706     5247092.355 7   5744636.43825        52.000
  21553689.451     4253496.957 9    691441.85928       108.000
 96  6  5 18 49 15.0000000  0  6G 2G 4G 5G24G 7G 9
  24453863.852     6385469.190 6   6717812.98224        36.000
  20886533.204     6632975.559 9   1077116.58029       112.000
  22471766.200   -12416573.169 7  -4645861.14026        62.000
  21036326.904    -7277547.912 9  -3412679.59329       116.000
  23103780.506     5290874.842 7   5778752.61825        54.000
  21557536.028     4273711.963 9    707193.80028       108.000
 96  6  5 18 49 30.0000000  0  6G 2G 4G 5G24G 7G 9
  24464257.597     6440134.048 6   6760408.92323        36.000
  20890987.250     6656373.293 9   1095348.58329       114.000
  22466440.597   -12444540.337 7  -4667653.70326        60.000
  21034069.047    -7289395.218 9  -3421911.26329       114.000
  23112112.547     5334672.991 7   5812880.95625        54.000
  21561409.976     4294073.907 9    723060.23728       108.000
 96  6  5 18 49 45.0000000  0  6G 2G 4G 5G24G 7G 9
  24474673.796     6494860.138 6   6803052.55823        40.000
  20895464.651     6679907.548 9   1113686.94129       114.000
  22461130.733   -12472466.694 7  -4689414.49126        60.000
  21031837.122    -7301113.208 9  -3431042.16729       112.000
  23120445.699     5378481.826 7   5847017.67725        52.000
  21565315.193     4314579.929 9    739038.94128       110.000
 96  6  5 18 50  0.0010000  0  6G 2G 4G 5G24G 7G 9
  24485103.635     6549653.091 6   6845748.31823        38.000
  20899970.891     6703582.645 9   1132135.07929       114.000
  22455823.957   -12500350.473 8  -4711142.10026        64.000
  21029633.618    -7312702.010 9  -3440072.37429       112.000
  23128787.304     5422305.776 7   5881166.24925        48.000
  21569246.761     4335233.343 9    755132.52828       110.000
 96  6  5 18 50 15.0010000  0  6G 2G 4G 5G24G 7G 9
  24495534.255     6604505.125 6   6888490.13623        36.000
  20904501.175     6727399.224 9   1150693.44629       110.000
  22450523.296   -12528187.552 7  -4732833.34626        60.000
  21027453.017    -7324160.432 9  -3449001.01729       116.000
  23137132.566     5466138.526 7   5915321.63525        52.000
  21573204.651     4356036.010 9    771342.37828       110.000
 96  6  5 18 50 30.0010000  0  6G 2G 4G 5G24G 7G 9
  24505990.506     6659418.500 6   6931279.76223        36.000
  20909063.387     6751359.482 9   1169363.77629       112.000
  22445237.356   -12555985.374 8  -4754493.99426        64.000
  21025296.520    -7335492.425 9  -3457831.13929       114.000
  23145474.801     5509979.062 7   5949483.09125        52.000
  21577189.313     4376988.424 9    787668.92128       110.000
 96  6  5 18 50 45.0010000  0  6G 2G 4G 5G24G 7G 9
  24516453.832     6714398.546 6   6974121.36823        34.000
  20913648.293     6775466.303 9   1188148.31429       110.000
  22439950.725   -12583746.069 7  -4776125.69926        58.000
  21023165.595    -7346696.115 9  -3466561.28529       116.000
  23153819.105     5553828.994 7   5983651.88225        54.000
  21581204.133     4398089.676 9    804111.44428       108.000
 96  6  5 18 51  0.0010000  0  6G 2G 4G 5G24G 7G 9
  24526921.506     6769449.236 6   7017017.93723        34.000
  20918262.668     6799721.063 9   1207048.12129       110.000
  22434678.365   -12611466.474 7  -4797726.00026        62.000
  21021058.324    -7357768.561 9  -3475189.16429       114.000
  23162163.558     5597690.433 7   6017829.58925        52.000
  21585252.021     4419341.366 9    820671.17128       108.000
 96  6  5 18 51 15.0010000  0  6G 2G 4G 5G24G 7G 9
  24537418.858     6824567.702 6   7059967.24023        32.000
  20922907.293     6824120.794 9   1226060.90829       112.000
  22429407.055   -12639151.000 7  -4819298.33326        60.000
  21018975.486    -7368710.892 9  -3483715.64729       114.000
  23170510.200     5641560.542 7   6052013.97325        54.000
  21589322.813     4440738.533 9    837344.27828       108.000
 96  6  5 18 51 30.0010000  0  6G 2G 4G 5G24G 7G 9
  24547915.582     6879752.218 6   7102968.17823        34.000
  20927578.179     6848668.137 9   1245188.70529       112.000
  22424147.196   -12666801.505 8  -4840844.19226        64.000
  21016916.302    -7379520.060 9  -3492138.37529       114.000
  23178864.936     5685440.414 7   6086206.09325        50.000
  21593420.796     4462282.101 9    854131.47028       108.000
 96  6  5 18 51 45.0010000  0  6G 2G 4G 5G24G 7G 9
  24558432.721     6935007.126 6   7146023.91323        32.000
  20932278.145     6873369.815 9   1264436.75629       110.000
  22418888.506   -12694411.285 7  -4862358.31126        62.000
  21014890.904    -7390188.820 9  -3500451.68629       116.000
  23187210.438     5729337.903 7   6120411.92725        52.000
  21597551.696     4483976.130 9    871035.91428       110.000
 96  6  5 18 52  0.0010000  0  6G 2G 4G 5G24G 7G 9
  24568957.924     6990322.332 6   7189126.67923        30.000
  20937003.684     6898213.935 9   1283795.80029       112.000
  22413644.177   -12721988.242 7  -4883846.84826        62.000
  21012882.774    -7400726.758 9  -3508663.06629       114.000
  23195564.035     5773245.730 7   6154625.86725        52.000
  21601704.601     4505807.552 9    888047.40128       108.000
 96  6  5 18 52 15.0010000  0  6G 2G 4G 5G24G 7G 9
  24579501.145     7045709.515 6   7232285.42123        32.000
  20941761.840     6923207.857 9   1303271.58129       114.000
  22408404.464   -12749521.843 8  -4905301.60626        64.000
  21010904.354    -7411122.057 9  -3516763.30129       112.000
  23203932.142     5817175.660 7   6188856.97425        48.000
  21605889.464     4527785.166 9    905172.79528       110.000
 96  6  5 18 52 30.0010000  0  6G 2G 4G 5G24G 7G 9
  24590044.426     7101164.404 6   7275496.94623        34.000
  20946544.429     6948344.878 9   1322858.88429       110.000
  22403172.876   -12777019.596 8  -4926728.39626        66.000
  21008954.803    -7421377.249 9  -3524754.33329       114.000
  23212291.315     5861121.747 7   6223100.70525        48.000
  21610096.002     4549902.427 9    922407.01628       108.000
 96  6  5 18 52 45.0010000  0  6G 2G 4G 5G24G 7G 9
  24600617.627     7156685.107 6   7318759.83623        36.000
  20951354.419     6973618.946 9   1342552.96229       112.000
  22397944.765   -12804485.674 8  -4948130.53126        66.000
  21007030.645    -7431492.539 9  -3532636.38429       114.000
  23220655.555     5905082.269 7   6257355.60725        46.000
  21614330.181     4572155.359 9    939746.95628       110.000
 96  6  5 18 53  0.0010000  0  6G 2G 4G 5G24G 7G 9
  24611191.607     7212266.559 6   7362070.01123        36.000
  20956189.682     6999027.368 9   1362351.73029       112.000
  22392725.858   -12831916.771 8  -4969505.40326        66.000
  21005131.970    -7441463.902 9  -3540406.27929       112.000
  23229026.839     5949056.374 7   6291621.01725        46.000
  21618592.000     4594547.778 9    957195.56628       106.000
 96  6  5 18 53 15.0010000  0  6G 2G 4G 5G24G 7G 9
  24621780.666     7267898.416 6   7405419.46923        36.000
  20961049.677     7024562.241 9   1382249.03129       112.000
  22387512.078   -12859319.103 8  -4990857.88126        68.000
  21003263.064    -7451298.605 9  -3548069.67729       112.000
  23237391.948     5993037.049 7   6325891.66025        46.000
  21622878.583     4617072.713 9    974747.48428       110.000
 96  6  5 18 53 30.0010000  0  6G 2G 4G 5G24G 7G 9
  24632374.132     7323588.116 6   7448814.04023        36.000
  20965935.845     7050235.572 9   1402254.23129       112.000
  22382301.265   -12886684.517 8  -5012181.57626        66.000
  21001416.702    -7460987.842 9  -3555619.72229       112.000
  23245762.903     6037035.101 7   6360175.88825        46.000
  21627192.296     4639742.113 9    992411.95328       108.000
 96  6  5 18 53 45.0010000  0  6G 2G 4G 5G24G 7G 9
  24642983.188     7379330.446 6   7492249.46823        36.000
  20970845.426     7076042.399 9   1422363.42429       110.000
  22377106.222   -12914014.014 8  -5033477.28926        70.000
  20999599.180    -7470539.791 9  -3563062.80029       112.000
  23254143.511     6081046.565 7   6394470.54725        46.000
  21631531.432     4662550.900 9   1010185.01028       108.000
 96  6  5 18 54  0.0010000  0  6G 2G 4G 5G24G 7G 9
  24653603.995     7435128.762 6   7535728.64223        38.000
  20975783.038     7101982.502 9   1442576.47229       110.000
  22371911.478   -12941305.186 8  -5054743.14126        70.000
  20997806.301    -7479954.845 9  -3570399.20229       112.000
  23262517.374     6125074.189 7   6428777.78425        46.000
  21635896.021     4685499.190 9   1028066.77828       104.000
 96  6  5 18 54 15.0010000  0  6G 2G 4G 5G24G 7G 9
  24664231.608     7490987.706 6   7579255.12124        36.000
  20980744.183     7128057.094 9   1462894.35229       112.000
  22366728.486   -12968554.426 8  -5075976.30126        70.000
  20996040.644    -7489230.675 9  -3577627.11029       112.000
  23270899.182     6169120.536 7   6463099.61225        44.000
  21640291.608     4708591.315 9   1046060.62928       108.000
 96  6  5 18 54 30.0010000  0  6G 2G 4G 5G24G 7G 9
  24674872.651     7546897.804 6   7622821.35524        38.000
  20985728.802     7154259.658 9   1483311.93329       110.000
  22361546.603   -12995766.595 8  -5097180.58426        70.000
  20994304.455    -7498374.598 9  -3584752.24629       112.000
  23279287.465     6213178.393 7   6497430.44825        44.000
  21644715.735     4731823.477 9   1064163.60528       108.000
 96  6  5 18 54 45.0010000  0  6G 2G 4G 5G24G 7G 9
  24685519.630     7602861.086 6   7666429.07524        38.000
  20990739.264     7180595.724 9   1503833.54729       110.000
  22356379.920   -13022935.843 8  -5118351.41626        74.000
  20992587.124    -7507382.310 9  -3591771.23829       108.000
  23287667.623     6257254.696 7   6531775.52924        42.000
  21649160.038     4755203.099 9   1082381.48228       104.000
 96  6  5 18 55  0.0010000  0  6G 2G 4G 5G24G 7G 9
  24696176.653     7658864.178 6   7710067.73623        34.000
  20995780.004     7207058.347 9   1524453.78129       112.000
  22351211.618   -13050070.034 8  -5139494.93026        70.000
  20990894.946    -7516265.737 9  -3598693.36529       110.000
  23296062.472     6301338.337 7   6566126.37224        44.000
  21653637.559     4778719.844 9   1100706.24428       106.000
 96  6  5 18 55 15.0010000  0  6G 2G 4G 5G24G 7G 9
  24706847.046     7714918.241 6   7753746.17524        34.000
  21000838.912     7233659.790 9   1545182.16229       110.000
  22346060.524   -13077155.170 8  -5160600.24826        74.000
  20989232.027    -7525016.674 9  -3605512.29229       110.000
  23304455.761     6345439.062 7   6600490.56524        46.000
  21658138.433     4802379.301 9   1119142.15028       104.000
 96  6  5 18 55 30.0010000  0  6G 2G 4G 5G24G 7G 9
  24717528.591     7771032.815 6   7797471.81324        32.000
  21005929.268     7260408.470 9   1566025.28529       112.000
  22340916.295   -13104184.938 8  -5181662.39026        68.000
  20987594.890    -7533632.072 9  -3612225.57729       112.000
  23312843.025     6389562.304 7   6634872.33625        44.000
  21662668.956     4826183.377 9   1137690.77528       104.000
 96  6  5 18 55 45.0010000  0  6G 2G 4G 5G24G 7G 9
  24728213.134     7827202.676 6   7841240.51624        36.000
  21011044.057     7287299.408 9   1586979.24629       110.000
  22335781.840   -13131162.378 8  -5202683.75626        72.000
  20985977.510    -7542117.119 9  -3618837.29429       108.000
  23321251.454     6433701.919 7   6669266.83925        46.000
  21667224.423     4850125.895 9   1156347.26828       104.000
 96  6  5 18 56  0.0010000  0  6G 2G 4G 5G24G 7G 9
  24738908.200     7883410.828 6   7885039.03924        36.000
  21016187.176     7314312.401 9   1608028.33629       112.000
  22330656.348   -13158103.871 8  -5223677.12026        74.000
  20984385.522    -7550488.698 9  -3625360.59829       108.000
  23329655.655     6477839.442 7   6703659.71225        44.000
  21671805.701     4874186.160 9   1175095.51828       102.000
 96  6  5 18 56 15.0010000  0  6G 2G 4G 5G24G 7G 9
  24749614.748     7939678.154 6   7928883.57224        38.000
  21021351.641     7341468.157 9   1629188.65829       110.000
  22325539.910   -13184991.156 8  -5244628.26226        72.000
  20982818.987    -7558725.230 9  -3631778.69029       108.000
  23338050.684     6521993.428 7   6738065.45424        44.000
  21676410.094     4898387.050 9   1193953.32328       104.000
 96  6  5 18 56 30.0010000  0  5G 4G 5G24G 7G 9
  21026546.625     7368759.082 9   1650454.33529       110.000
  22320430.488   -13211833.878 8  -5265544.65426        74.000
  20981275.086    -7566836.254 9  -3638098.95529       110.000
  23346455.575     6566152.336 7   6772474.94124        44.000
  21681035.531     4922718.666 9   1212913.03628       100.000
 96  6  5 18 56 45.0010000  0  5G 4G 5G24G 7G 9
  21031765.412     7396187.689 9   1671827.26429       110.000
  22315331.647   -13238632.457 8  -5286426.68026        74.000
  20979754.448    -7574820.532 9  -3644320.46729       108.000
  23354852.102     6610315.537 7   6806887.69324        44.000
  21685695.655     4947180.544 9   1231974.24128       100.000
 96  6  5 18 57  0.0010000  0  5G 4G 5G24G 7G 9
  21037014.088     7423764.394 9   1693315.62829       112.000
  22310242.700   -13265380.260 8  -5307269.07827        72.000
  20978259.023    -7582668.616 9  -3650435.81529       106.000
  23363260.891     6654489.194 7   6841308.75024        42.000
  21690379.163     4971777.842 9   1251140.98128       104.000
 96  6  5 18 57 15.0010000  0  5G 4G 5G24G 7G 9
  21042289.446     7451482.302 9   1714913.96929       110.000
  22305159.959   -13292080.374 8  -5328074.35427        76.000
  20976793.488    -7590385.609 9  -3656449.09229       106.000
  23371671.119     6698665.627 7   6875731.94125        44.000
  21695079.009     4996501.967 9   1270406.49428       102.000
 96  6  5 18 57 30.0010000  0  5G 4G 5G24G 7G 9
  21047592.775     7479343.856 9   1736624.28029       112.000
  22300087.201   -13318728.061 8  -5348838.75927        70.000
  20975350.887    -7597963.335 9  -3662353.77729       108.000
  23380079.788     6742854.519 7   6910164.90625        46.000
  21699812.942     5021360.430 9   1289776.72628       104.000
 96  6  5 18 57 45.0010000  0  5G 4G 5G24G 7G 9
  21052922.905     7507347.554 9   1758445.33629       112.000
  22295027.094   -13345326.107 8  -5369564.49827        78.000
  20973936.166    -7605398.699 9  -3668147.56529       108.000
  23388493.493     6787058.991 7   6944609.94325        46.000
  21704564.143     5046358.705 9   1309255.88428       100.000
 96  6  5 18 58  0.0010000  0  5G 4G 5G24G 7G 9
  21058278.517     7535487.279 9   1780372.38429       114.000
  22289973.912   -13371877.509 8  -5390253.95127        72.000
  20972548.577    -7612692.286 9  -3673830.89529       110.000
  23396909.087     6831276.341 7   6979064.91424        46.000
  21709344.663     5071495.239 9   1328842.76228        98.000
 96  6  5 18 58 15.0010000  0  5G 4G 5G24G 7G 9
  21063656.344     7563761.360 9   1802404.14129       110.000
  22284931.973   -13398385.392 8  -5410909.43427        76.000
  20971186.170    -7619843.848 9  -3679403.54129       104.000
  23405320.694     6875503.477 7   7013527.52524        46.000
  21714163.797     5096769.673 9   1348537.12628       102.000
 96  6  5 18 58 30.0010000  0  5G 4G 5G24G 7G 9
  21069062.292     7592175.487 9   1824545.01629       110.000
  22279895.519   -13424845.171 8  -5431527.42627        74.000
  20969851.764    -7626846.964 9  -3684860.50629       106.000
  23413741.324     6919745.329 7   7048001.67324        44.000
  21718995.762     5122187.511 9   1368343.23528       102.000
 96  6  5 18 58 45.0010000  0  5G 4G 5G24G 7G 9
  21074493.692     7620723.996 9   1846790.61529       110.000
  22274868.000   -13451258.595 8  -5452109.28127        76.000
  20968550.604    -7633704.101 9  -3690203.70729       108.000
  23422161.715     6963999.427 7   7082485.41625        44.000
  21723856.597     5147744.223 9   1388257.55428        98.000
 96  6  5 18 59  0.0010000  0  5G 4G 5G24G 7G 9
  21079952.343     7649404.607 9   1869139.13329       112.000
  22269853.161   -13477626.470 8  -5472655.67527        78.000
  20967271.210    -7640416.208 9  -3695433.93029       106.000
  23430588.551     7008266.962 7   7116979.61925        44.000
  21728747.501     5173439.730 9   1408279.99428       100.000
 96  6  5 18 59 15.0010000  0  5G 4G 5G24G 7G 9
  21085434.947     7678219.520 9   1891592.30529       110.000
  22264847.467   -13503943.698 8  -5493162.58927        80.000
  20966021.555    -7646980.774 9  -3700549.15529       108.000
  23439013.978     7052554.898 7   7151489.70425        44.000
  21733665.566     5199280.213 9   1428415.42428        98.000
 96  6  5 18 59 30.0010000  0  5G 4G 5G24G 7G 9
  21090943.064     7707157.551 9   1914141.41029       110.000
  22259846.959   -13530221.058 8  -5513638.48327        72.000
  20964796.663    -7653408.419 9  -3705557.71629       108.000
  23447445.671     7096856.755 7   7186010.62525        46.000
  21738610.433     5225258.483 9   1448658.20528        98.000
 96  6  5 18 59 45.0010000  0  5G 4G 5G24G 7G 9
  21096478.162     7736228.666 9   1936794.21129       112.000
  22254854.125   -13556452.022 8  -5534078.20727        76.000
  20963605.198    -7659692.925 9  -3710454.74929       106.000
  23455878.983     7141181.369 7   7220549.17525        46.000
  21743588.607     5251384.543 9   1469016.15128       100.000
 96  6  5 19  0  0.0010000  0  5G 4G 5G24G 7G 9
  21102033.826     7765434.724 9   1959552.19929       110.000
  22249871.455   -13582636.123 8  -5554481.38127        76.000
  20962436.097    -7665836.441 9  -3715241.89029       106.000
  23464316.222     7185524.291 7   7255102.04225        46.000
  21748580.961     5277656.671 9   1489487.95228        98.000
 96  6  5 19  0 15.0010000  0  5G 4G 5G24G 7G 9
  21107614.852     7794773.507 9   1982413.57129       108.000
  22244896.609   -13608774.824 8  -5574849.20727        74.000
  20961289.121    -7671846.062 9  -3719924.73029       108.000
  23472756.459     7229880.101 7   7289665.00125        46.000
  21753606.801     5304068.279 9   1510068.38828       100.000
 96  6  5 19  0 30.0010000  0  5G 4G 5G24G 7G 9
  21113223.190     7824246.608 9   2005379.64729       108.000
  22239930.277   -13634867.048 8  -5595180.77927        80.000
  20960173.144    -7677722.958 9  -3724504.10329       108.000
  23481197.775     7274251.436 7   7324240.08825        46.000
  21758662.022     5330619.951 9   1530758.01728        98.000
 96  6  5 19  0 45.0010000  0  5G 4G 5G24G 7G 9
  21118859.078     7853851.281 9   2028448.21129       110.000
  22234974.408   -13660914.856 8  -5615477.77727        76.000
  20959081.120    -7683473.083 9  -3728984.70929       110.000
  23489647.965     7318638.178 7   7358827.20925        42.000
  21763736.249     5357308.077 9   1551553.92728       100.000
 96  6  5 19  1  0.0010000  0  5G 4G 5G24G 7G 9
  21124521.258     7883589.223 9   2051620.63129       112.000
  22230028.042   -13686916.045 8  -5635738.44227        82.000
  20958008.852    -7689095.939 9  -3733366.15229       106.000
  23498095.127     7363042.703 7   7393428.14225        42.000
  21768840.245     5384132.823 9   1572456.30928        96.000
 96  6  5 19  1 15.0010000  0  5G 4G 5G24G 7G 9
  21130203.405     7913463.917 9   2074899.61729       110.000
  22225088.721   -13712870.323 8  -5655962.56327        76.000
  20956963.896    -7694590.282 9  -3737647.45429       110.000
  23506546.936     7407463.332 6   7428041.66725        40.000
  21773971.403     5411094.002 9   1593465.02328       100.000
 96  6  5 19  1 30.0010000  0  5G 4G 5G24G 7G 9
  21135915.650     7943475.559 9   2098285.31429       112.000
  22220155.397   -13738777.739 8  -5676150.13327        76.000
  20955943.852    -7699955.557 9  -3741828.17229       110.000
  23515005.490     7451897.071 6   7462665.36624        40.000
  21779132.600     5438191.179 9   1614579.70928       102.000
 96  6  5 19  1 45.0010000  0  5G 4G 5G24G 7G 9
  21141649.361     7973625.857 9   2121779.04029       108.000
  22215235.502   -13764637.527 8  -5696300.59627        80.000
  20954946.622    -7705189.417 9  -3745906.50229       110.000
  23523462.276     7496341.246 7   7497296.95823        42.000
  21784314.243     5465422.440 9   1635798.87228       102.000
 96  6  5 19  2  0.0010000  0  5G 4G 5G24G 7G 9
  21147412.541     8003914.971 9   2145380.97329       108.000
  22210323.823   -13790446.843 8  -5716411.71827        80.000
  20953974.995    -7710290.475 9  -3749881.33329       110.000
  23531921.610     7540793.053 6   7531934.76724        40.000
  21789520.979     5492786.830 9   1657121.79828       102.000
 96  6  5 19  2 15.0010000  0  5G 4G 5G24G 7G 9
  21153205.820     8034340.812 9   2169089.39229       114.000
  22205423.745   -13816205.107 8  -5736483.12327        78.000
  20953027.681    -7715259.032 9  -3753752.96229       110.000
  23540383.222     7585251.160 6   7566577.44924        40.000
  21794751.667     5520281.587 9   1678546.22928       100.000
 96  6  5 19  2 30.0010000  0  5G 4G 5G24G 7G 9
  21159018.376     8064903.281 9   2192904.30229       112.000
  22200532.601   -13841911.685 8  -5756514.24527        78.000
  20952109.686    -7720093.249 9  -3757519.87629       110.000
  23548844.264     7629717.818 6   7601226.79725        38.000
  21800011.016     5547906.548 9   1700072.15128       102.000
 96  6  5 19  2 45.0010000  0  5G 4G 5G24G 7G 9
  21164863.790     8095609.445 9   2216831.16429       112.000
  22195649.432   -13867562.418 8  -5776501.84227        80.000
  20951216.844    -7724785.447 9  -3761176.14429       112.000
  23557304.917     7674200.230 6   7635888.39525        38.000
  21805291.950     5575668.763 9   1721705.01628       100.000
 96  6  5 19  3  0.0010000  0  5G 4G 5G24G 7G 9
  21170731.298     8126454.739 9   2240866.46729       110.000
  22190778.674   -13893162.115 8  -5796449.63227        80.000
  20950352.033    -7729339.255 9  -3764724.55629       112.000
  23565775.013     7718691.463 6   7670556.87424        36.000
  21810599.596     5603562.198 9   1743440.15528       102.000
 96  6  5 19  3 15.0010000  0  5G 4G 5G24G 7G 9
  21176625.877     8157434.978 9   2265006.90129       110.000
  22185916.550   -13918714.647 8  -5816360.67027        74.000
  20949511.085    -7733757.410 9  -3768167.27429       108.000
  23574240.493     7763186.559 6   7705228.23224        38.000
  21815932.035     5631582.417 9   1765274.09328       104.000
 96  6  5 19  3 30.0010000  0  5G 4G 5G24G 7G 9
  21182548.937     8188551.168 9   2289253.27829       110.000
  22181065.518   -13944215.620 8  -5836231.55227        80.000
  20948697.778    -7738039.041 9  -3771503.60929       112.000
  23582708.790     7807689.226 6   7739905.63124        40.000
  21821287.947     5659733.717 9   1787210.17628       102.000
 96  6  5 19  3 45.0010000  0  5G 4G 5G24G 7G 9
  21188497.119     8219804.237 9   2313606.31829       110.000
  22176224.409   -13969658.519 8  -5856057.19027        80.000
  20947907.975    -7742179.044 9  -3774729.56829       112.000
  23591182.334     7852207.133 6   7774594.93525        38.000
  21826669.701     5688021.184 9   1809252.34428       102.000
 96  6  5 19  4  0.0010000  0  5G 4G 5G24G 7G 9
  21194469.764     8251190.781 9   2338063.37229       110.000
  22171390.945   -13995042.467 8  -5875836.89427        76.000
  20947145.453    -7746178.921 9  -3777846.36029       112.000
  23599655.968     7896740.837 6   7809296.50825        38.000
  21832079.966     5716441.774 9   1831398.21827        98.000
 96  6  5 19  4 15.0010000  0  5G 4G 5G24G 7G 9
  21200465.643     8282700.512 9   2362616.41129       110.000
  22166571.782   -14020373.895 8  -5895575.67527        80.000
  20946412.640    -7750046.369 9  -3780859.95529       114.000
  23608130.771     7941282.479 6   7844004.29325        38.000
  21837507.468     5744987.738 9   1853641.81427       100.000
 96  6  5 19  4 30.0010000  0  5G 4G 5G24G 7G 9
  21206482.598     8314327.416 9   2387260.77229       110.000
  22161758.434   -14045657.550 8  -5915277.18727        76.000
  20945701.353    -7753785.198 9  -3783773.29429       112.000
  23616614.508     7985829.781 6   7878716.48925        38.000
  21842969.117     5773657.014 9   1875981.51327       104.000
 96  6  5 19  4 45.0010000  0  5G 4G 5G24G 7G 9
  21212526.144     8346079.639 9   2412002.71129       112.000
  22156960.076   -14070883.821 8  -5934934.04627        80.000
  20945016.027    -7757385.236 9  -3786578.56329       112.000
  23625084.844     8030392.875 6   7913440.80824        40.000
  21848449.593     5802461.892 9   1898426.83027       100.000
 96  6  5 19  5  0.0010000  0  5G 4G 5G24G 7G 9
  21218588.337     8377949.595 9   2436836.47929       110.000
  22152167.174   -14096054.989 8  -5954547.90527        72.000
  20944353.965    -7760850.866 9  -3789279.00929       112.000
  23633568.461     8074966.510 6   7948173.52225        38.000
  21853956.601     5831396.999 9   1920973.70828       102.000
 96  6  5 19  5 15.0010000  0  5G 4G 5G24G 7G 9
  21224675.923     8409931.850 9   2461757.67329       112.000
  22147392.169   -14121172.183 8  -5974119.75227        74.000
  20943721.793    -7764184.141 9  -3791876.39929       114.000
  23642056.785     8119546.905 7   7982911.46425        44.000
  21859485.463     5860458.895 9   1943619.29828       100.000
 96  6  5 19  5 30.0010000  0  5G 4G 5G24G 7G 9
  21230783.654     8442025.352 9   2486765.60929       110.000
  22142620.313   -14146235.697 8  -5993649.75327        76.000
  20943113.214    -7767384.447 9  -3794370.11229       112.000
  23650537.404     8164134.478 7   8017655.08225        42.000
  21865042.986     5889647.656 9   1966363.80527       104.000
 96  6  5 19  5 45.0010000  0  5G 4G 5G24G 7G 9
  21236909.344     8474234.135 9   2511863.37629       112.000
  22137860.298   -14171240.649 8  -6013134.13727        74.000
  20942529.908    -7770446.134 9  -3796755.84629       114.000
  23659029.924     8208730.744 7   8052405.44025        44.000
  21870617.477     5918968.709 9   1989211.34327        98.000
 96  6  5 19  6  0.0010000  0  5G 4G 5G24G 7G 9
  21243063.603     8506558.300 9   2537051.03629       110.000
  22133112.185   -14196191.331 8  -6032576.21227        74.000
  20941972.174    -7773369.262 9  -3799033.60529       112.000
  23667519.087     8253331.562 7   8087159.35225        42.000
  21876223.086     5948419.236 9   2012159.77527       100.000
 96  6  5 19  6 15.0010000  0  5G 4G 5G24G 7G 9
  21249237.019     8539000.428 9   2562330.60929       110.000
  22128376.424   -14221089.616 8  -6051977.48227        74.000
  20941441.482    -7776155.248 9  -3801204.50829       110.000
  23676001.445     8297935.852 7   8121915.89025        44.000
  21881851.719     5977999.303 9   2035209.16327       102.000
 96  6  5 19  6 30.0010000  0  5G 4G 5G24G 7G 9
  21255433.280     8571564.166 9   2587704.93029       112.000
  22123648.367   -14245935.511 8  -6071337.90127        74.000
  20940938.460    -7778800.752 9  -3803265.95129       112.000
  23684492.647     8342548.887 7   8156679.17624        42.000
  21887502.477     6007714.396 9   2058363.77727       100.000
 96  6  5 19  6 45.0010000  0  5G 4G 5G24G 7G 9
  21261654.693     8604249.138 9   2613173.73529       112.000
  22118927.175   -14270733.843 8  -6090661.27127        72.000
  20940459.002    -7781310.448 9  -3805221.55729       110.000
  23692978.392     8387168.924 7   8191447.97924        46.000
  21893186.362     6037559.881 9   2081620.00127       102.000
 96  6  5 19  7  0.0010000  0  5G 4G 5G24G 7G 9
  21267897.781     8637059.846 9   2638740.51229       112.000
  22114219.474   -14295482.332 8  -6109945.81127        72.000
  20940009.253    -7783682.601 9  -3807069.97529       110.000
  23701475.410     8431798.531 7   8226224.33424        44.000
  21898890.963     6067535.125 9   2104977.33427       102.000
 96  6  5 19  7 15.0010000  0  5G 4G 5G24G 7G 9
  21274164.492     8669997.951 9   2664406.56029       112.000
  22109521.817   -14320182.829 8  -6129192.96427        74.000
  20939586.156    -7785917.606 9  -3808811.53129       110.000
  23709968.111     8476437.646 7   8261008.07125        44.000
  21904621.916     6097638.057 9   2128434.13227       102.000
 96  6  5 19  7 30.0010000  0  5G 4G 5G24G 7G 9
  21280456.507     8703068.153 9   2690175.54129       108.000
  22104823.889   -14344835.492 8  -6148402.81927        72.000
  20939187.792    -7788015.512 9  -3810446.25629       112.000
  23718463.479     8521088.831 7   8295801.22325        42.000
  21910372.535     6127870.440 9   2151991.79027       102.000
 96  6  5 19  7 45.0010000  0  5G 4G 5G24G 7G 9
  21286777.990     8736271.045 9   2716047.93929       110.000
  22100145.088   -14369441.389 8  -6167576.22627        72.000
  20938809.814    -7789979.128 9  -3811976.34229       108.000
  23726962.356     8565750.991 7   8330602.91825        42.000
  21916149.086     6158232.933 9   2175650.86627       104.000
 96  6  5 19  8  0.0010000  0  5G 4G 5G24G 7G 9
  21293118.421     8769602.449 9   2742020.46229       106.000
  22095471.593   -14394003.914 8  -6186715.85227        76.000
  20938459.836    -7791813.469 9  -3813405.69629       108.000
  23735468.757     8610423.098 7   8365412.27125        44.000
  21921953.128     6188722.965 9   2199409.32727       104.000
 96  6  5 19  8 15.0010000  0  5G 4G 5G24G 7G 9
  21299484.064     8803060.420 9   2768091.60429       108.000
  22090805.863   -14418521.911 8  -6205820.77927        76.000
  20938136.450    -7793519.995 9  -3814735.46329       110.000
  23743969.882     8655110.203 7   8400233.35425        46.000
  21927778.994     6219339.470 9   2223266.33427       102.000
 96  6  5 19  8 30.0010000  0  5G 4G 5G24G 7G 9
  21305872.222     8836627.858 9   2794248.04529       106.000
  22086144.211   -14443007.163 8  -6224900.20027        74.000
  20937835.818    -7795114.937 9  -3815978.26729       112.000
  23752477.032     8699797.842 7   8435054.86425        46.000
  21933623.119     6250066.645 9   2247209.57827       100.000
 96  6  5 19  8 45.0010000  0  5G 4G 5G24G 7G 9
  21312279.416     8870290.824 9   2820478.89829       110.000
  22081491.072   -14467472.367 8  -6243964.00827        76.000
  20937549.396    -7796613.614 9  -3817146.07829       110.000
  23760971.232     8744467.949 7   8469862.69825        44.000
  21939490.237     6280887.398 9   2271225.72227       100.000
 96  6  5 19  9  0.0010000  0  5G 4G 5G24G 7G 9
  21318711.253     8904085.459 9   2846812.40329       110.000
  22076845.248   -14491878.934 8  -6262982.08727        78.000
  20937288.607    -7797979.954 9  -3818210.72529       108.000
  23769483.029     8789153.902 7   8504682.95625        44.000
  21945376.092     6311836.209 9   2295341.69427        98.000
 96  6  5 19  9 15.0010000  0  5G 4G 5G24G 7G 9
  21325168.183     8938017.495 9   2873252.93629       108.000
  22072213.994   -14516217.083 8  -6281946.88727        72.000
  20937053.270    -7799205.007 9  -3819165.32929       106.000
  23777983.974     8833861.621 7   8539520.11625        46.000
  21951295.854     6342922.353 9   2319564.62927       108.000
 96  6  5 19  9 30.0010000  0  5G 4G 5G24G 7G 9
  21331652.304     8972075.273 9   2899791.49529       106.000
  22067596.381   -14540498.439 8  -6300867.37627        78.000
  20936849.021    -7800300.100 9  -3820018.61729       108.000
  23786490.315     8878578.393 7   8574364.37425        44.000
  21957233.873     6374135.202 9   2343886.34827       100.000
 96  6  5 19  9 45.0010000  0  5G 4G 5G24G 7G 9
  21338153.244     9006255.953 9   2926425.76129       108.000
  22062986.832   -14564721.617 8  -6319742.59427        80.000
  20936664.169    -7801265.944 9  -3820771.23129       110.000
  23794999.085     8923301.552 7   8609213.56925        46.000
  21963204.240     6405476.638 9   2368308.21227       104.000
 96  6  5 19 10  0.0010000  0  5G 4G 5G24G 7G 9
  21344681.195     9040563.953 9   2953159.27529       108.000
  22058385.198   -14588876.385 8  -6338564.49627        74.000
  20936508.097    -7802091.885 9  -3821414.81929       108.000
  23803519.306     8968037.580 7   8644072.76625        44.000
  21969189.267     6436954.308 9   2392836.26727       104.000
 96  6  5 19 10 15.0010000  0  5G 4G 5G24G 7G 9
  21351232.289     9074999.467 9   2979992.15829       106.000
  22053807.607   -14612962.237 8  -6357332.67427        82.000
  20936374.899    -7802775.584 9  -3821947.55929       104.000
  23812037.280     9012786.332 7   8678941.90025        42.000
  21975206.191     6468564.459 9   2417467.55427       102.000
 96  6  5 19 10 30.0010000  0  5G 4G 5G24G 7G 9
  21357806.978     9109542.562 9   3006908.82429       106.000
  22049230.645   -14636999.243 8  -6376062.84627        80.000
  20936269.282    -7803335.491 9  -3822383.87229       106.000
  23820546.559     9057524.017 7   8713802.40425        44.000
  21981241.343     6500285.403 9   2442185.13127       106.000
 96  6  5 19 10 45.0010000  0  5G 4G 5G24G 7G 9
  21364407.299     9144196.148 9   3033911.61029       108.000
  22044667.474   -14660990.002 8  -6394756.91227        82.000
  20936189.298    -7803769.146 9  -3822721.78529       104.000
  23829062.194     9102247.997 6   8748652.25325        40.000
  21987297.751     6532118.665 9   2466990.26127       104.000
 96  6  5 19 11  0.0010000  0  5G 4G 5G24G 7G 9
  21371023.508     9178973.181 9   3061010.60529       108.000
  22040109.730   -14684921.036 8  -6413404.45927        78.000
  20936130.508    -7804059.117 9  -3822947.71729       104.000
  23837567.126     9146973.015 7   8783502.89425        42.000
  21993381.109     6564080.984 9   2491895.96127       104.000
 96  6  5 19 11 15.0010000  0  5G 4G 5G24G 7G 9
  21377660.883     9213870.084 9   3088202.99629       106.000
  22035566.884   -14708793.803 8  -6432006.61227        80.000
  20936104.456    -7804206.503 9  -3823062.55429       106.000
  23846083.840     9191702.493 6   8818357.03825        40.000
  21999487.582     6596173.047 9   2516902.74327       100.000
 96  6  5 19 11 30.0010000  0  5G 4G 5G24G 7G 9
  21384324.041     9248880.992 9   3115484.21129       108.000
  22031035.851   -14732615.209 8  -6450568.75927        78.000
  20936100.139    -7804216.555 9  -3823070.39029       106.000
  23854593.718     9236433.707 6   8853212.48925        40.000
  22005614.770     6628388.871 9   2542005.96327        98.000
 96  6  5 19 11 45.0010000  0  5G 4G 5G24G 7G 9
  21391011.661     9284029.644 9   3142872.77029       106.000
  22026516.990   -14756359.294 8  -6469070.64127        82.000
  20936131.468    -7804064.312 9  -3822951.77229       106.000
  23863109.533     9281192.838 6   8888089.66225        38.000
  22011777.753     6660752.968 9   2567224.73327       102.000
 96  6  5 19 12  0.0010000  0  5G 4G 5G24G 7G 9
  21397723.564     9319291.350 9   3170349.42929       110.000
  22022012.578   -14780046.549 8  -6487528.25427        80.000
  20936185.281    -7803769.480 9  -3822722.01429       104.000
  23871635.121     9325959.936 6   8922973.06125        40.000
  22017958.215     6693242.538 9   2592541.27527       100.000
 96  6  5 19 12 15.0010000  0  5G 4G 5G24G 7G 9
  21404459.331     9354678.460 9   3197923.81229       110.000
  22017514.282   -14803667.105 8  -6505933.86927        80.000
  20936269.552    -7803322.608 9  -3822373.79929       104.000
  23880151.325     9370748.761 6   8957873.47025        38.000
  22024167.576     6725866.255 9   2617962.33327       100.000
 96  6  5 19 12 30.0010000  0  5G 4G 5G24G 7G 9
  21411211.497     9390177.409 9   3225585.31729       108.000
  22013031.605   -14827235.057 9  -6524298.48427        86.000
  20936381.705    -7802739.856 9  -3821919.70929       106.000
  23888672.806     9415547.846 6   8992781.84825        38.000
  22030398.403     6758612.125 9   2643478.56127        98.000
 96  6  5 19 12 45.0010000  0  5G 4G 5G24G 7G 9
  21417988.575     9425797.382 9   3253341.13429       108.000
  22008557.892   -14850741.567 9  -6542615.24127        84.000
  20936519.369    -7802012.608 9  -3821353.01129       106.000
  23897203.580     9460367.264 6   9027706.05325        40.000
  22036659.238     6791490.981 9   2669098.45027       100.000
 96  6  5 19 13  0.0010000  0  5G 4G 5G24G 7G 9
  21424790.986     9461546.538 9   3281197.60429       110.000
  22004099.799   -14874175.144 9  -6560875.16327        86.000
  20936689.651    -7801132.206 9  -3820666.98529       108.000
  23905738.402     9505217.504 6   9062654.26625        38.000
  22042939.590     6824512.213 9   2694829.24527        98.000
 96  6  5 19 13 15.0010000  0  5G 4G 5G24G 7G 9
  21431620.828     9497424.331 9   3309154.33029       112.000
  21999649.799   -14897534.250 8  -6579077.07127        82.000
  20936885.806    -7800100.779 9  -3819863.25829       106.000
  23914279.099     9550099.313 6   9097627.02125        38.000
  22049244.915     6857673.302 9   2720669.05027        94.000
 96  6  5 19 13 30.0010000  0  5G 4G 5G24G 7G 9
  21438474.563     9533428.040 9   3337209.16528       114.000
  21995220.486   -14920822.384 9  -6597223.67827        86.000
  20937111.759    -7798922.888 9  -3818945.43029       106.000
  23922828.910     9595009.370 6   9132621.80724        38.000
  22055584.177     6890968.590 9   2746613.42227        92.000
 96  6  5 19 13 45.0010000  0  5G 4G 5G24G 7G 9
  21445343.048     9569560.796 9   3365364.56028       106.000
  21990804.873   -14944035.508 9  -6615311.80927        84.000
  20937362.206    -7797594.406 9  -3817910.24829       104.000
  23931375.813     9639946.549 6   9167637.77824        34.000
  22061948.351     6924402.047 9   2772665.45627        96.000
 96  6  5 19 14  0.0010000  0  5G 4G 5G24G 7G 9
  21452243.881     9605822.421 9   3393620.36528       110.000
  21986405.268   -14967171.599 9  -6633339.95027        84.000
  20937642.242    -7796114.563 9  -3816757.12329       104.000
  23939927.003     9684907.250 6   9202672.10925        38.000
  22068335.939     6957974.726 9   2798825.96927        92.000
 96  6  5 19 14 15.0010000  0  5G 4G 5G24G 7G 9
  21459174.123     9642217.537 9   3421980.18728       112.000
  21982013.789   -14990229.474 9  -6651307.10127        84.000
  20937953.576    -7794483.754 9  -3815486.35429       106.000
  23948494.562     9729892.520 6   9237725.56025        36.000
  22074749.399     6991686.639 9   2825094.98127        94.000
 96  6  5 19 14 30.0010000  0  5G 4G 5G24G 7G 9
  21466126.400     9678745.607 9   3450443.62028       112.000
  21977640.716   -15013212.755 8  -6669216.13027        82.000
  20938292.911    -7792708.462 9  -3814103.00429       104.000
  23957051.029     9774897.167 6   9272794.11224        36.000
  22081190.680     7025532.871 9   2851468.68327        98.000
 96  6  5 19 14 45.0010000  0  5G 4G 5G24G 7G 9
  21473102.570     9715409.449 9   3479012.84228       112.000
  21973280.355   -15036116.316 8  -6687063.07027        82.000
  20938659.108    -7790783.000 9  -3812602.63829       104.000
  23965624.403     9819921.071 6   9307877.63924        36.000
  22087660.381     7059515.463 9   2877948.60427       100.000
 96  6  5 19 15  0.0010000  0  5G 4G 5G24G 7G 9
  21480101.735     9752204.936 9   3507684.64228       112.000
  21968936.572   -15058944.790 8  -6704851.50227        82.000
  20939052.526    -7788711.563 9  -3810988.52329       104.000
  23974200.596     9864956.022 6   9342969.72824        36.000
  22094149.359     7093628.881 9   2904530.45127        94.000
 96  6  5 19 15 15.0010000  0  5G 4G 5G24G 7G 9
  21487125.992     9789131.005 9   3536458.20328       110.000
  21964609.457   -15081698.051 8  -6722581.31727        78.000
  20939475.952    -7786496.559 9  -3809262.54929       106.000
  23982764.108     9910001.328 6   9378069.96424        40.000
  22100663.489     7127873.211 9   2931214.34727        98.000
 96  6  5 19 15 30.0010000  0  5G 4G 5G24G 7G 9
  21494180.678     9826191.804 9   3565336.75028       112.000
  21960294.814   -15104371.144 8  -6740248.64027        82.000
  20939920.485    -7784134.660 9  -3807422.11329       106.000
  23991349.205     9955061.101 6   9413181.47024        38.000
  22107207.928     7162252.832 9   2958003.64327        96.000
 96  6  5 19 15 45.0010000  0  5G 4G 5G24G 7G 9
  21501257.459     9863382.650 9   3594316.62328       110.000
  21955990.904   -15126967.130 8  -6757855.89327        80.000
  20940401.382    -7781628.224 9  -3805469.02729       106.000
  23999916.703    10000129.730 6   9448299.86124        38.000
  22113773.023     7196763.416 9   2984895.00027        94.000
 96  6  5 19 16  0.0010000  0  5G 4G 5G24G 7G 9
  21508362.630     9900715.621 9   3623407.23828       112.000
  21951711.366   -15149474.485 9  -6775394.10627        84.000
  20940907.371    -7778966.195 9  -3803394.72529       102.000
  24008506.897    10045220.237 6   9483435.34724        38.000
  22120371.515     7231416.351 9   3011897.26627        98.000
 96  6  5 19 16 15.0010000  0  5G 4G 5G24G 7G 9
  21515502.338     9938217.654 9   3652629.60228       114.000
  21947445.560   -15171867.440 8  -6792843.15827        80.000
  20941448.077    -7776123.476 9  -3801179.61029       102.000
  24017089.715    10090363.362 6   9518611.84224        38.000
  22126993.301     7266237.001 9   3039030.23727        94.000
 96  6  5 19 16 30.0010000  0  5G 4G 5G24G 7G 9
  21522659.613     9975847.743 9   3681951.73428       110.000
  21943200.139   -15194188.423 9  -6810236.15027        84.000
  20942013.845    -7773140.661 9  -3798855.34929       102.000
  24025684.285    10135521.200 7   9553799.75023        42.000
  22133647.195     7301185.703 9   3066262.98127        98.000
 96  6  5 19 16 45.0010000  0  5G 4G 5G24G 7G 9
  21529843.869    10013601.639 9   3711370.36128       112.000
  21938963.921   -15216439.194 8  -6827574.38227        78.000
  20942610.762    -7770015.568 9  -3796420.19229       102.000
  24034273.968    10180693.286 7   9588998.73023        42.000
  22140326.781     7336262.916 9   3093595.86127       100.000
 96  6  5 19 17  0.0010000  0  5G 4G 5G24G 7G 9
  21537050.910    10051472.629 9   3740880.23228       112.000
  21934743.173   -15238623.453 8  -6844860.80727        82.000
  20943228.635    -7766750.999 9  -3793876.36229       102.000
  24042874.384    10225878.827 7   9624208.11823        42.000
  22147022.435     7371466.502 9   3121027.22127        98.000
 96  6  5 19 17 15.0010000  0  5G 4G 5G24G 7G 9
  21544281.814    10089460.920 9   3770481.49028       112.000
  21930534.987   -15260741.624 8  -6862095.73727        82.000
  20943879.244    -7763349.549 9  -3791225.89029       104.000
  24051481.426    10271082.660 7   9659431.94023        42.000
  22153745.221     7406796.217 9   3148556.85227        96.000
 96  6  5 19 17 30.0010000  0  5G 4G 5G24G 7G 9
  21551531.125    10127562.439 9   3800170.96428       112.000
  21926341.610   -15282795.798 9  -6879280.80827        86.000
  20944550.839    -7759812.700 9  -3788469.89429       102.000
  24060084.960    10316304.174 7   9694669.45723        42.000
  22160486.594     7442248.091 9   3176181.68827        96.000
 96  6  5 19 17 45.0010000  0  5G 4G 5G24G 7G 9
  21558802.592    10165785.312 9   3829955.00728       112.000
  21922157.166   -15304778.899 9  -6896410.51727        84.000
  20945254.632    -7756129.747 9  -3785600.07129       102.000
  24068697.457    10361551.607 7   9729927.19223        42.000
  22167261.664     7477827.591 9   3203905.95127        94.000
 96  6  5 19 18  0.0010000  0  5G 4G 5G24G 7G 9
  21566099.870    10204119.519 9   3859825.81728       112.000
  21917985.464   -15326704.313 9  -6913495.25427        84.000
  20945980.370    -7752311.900 9  -3782625.12129       102.000
  24077308.156    10406816.134 7   9765198.31323        42.000
  22174049.145     7513525.386 9   3231722.41927        92.000
 96  6  5 19 18 15.0010000  0  5G 4G 5G24G 7G 9
  21573418.163    10242565.990 9   3889784.11028       114.000
  21913821.497   -15348570.541 8  -6930533.86927        82.000
  20946729.461    -7748362.298 9  -3779547.50729        98.000
  24085924.641    10452098.806 7   9800483.53223        42.000
  22180870.443     7549340.434 9   3259630.24127        96.000
 96  6  5 19 18 30.0010000  0  5G 4G 5G24G 7G 9
  21580753.665    10281132.792 9   3919836.14428       112.000
  21909675.517   -15370369.903 9  -6947520.38527        86.000
  20947505.324    -7744273.274 9  -3776361.24629       102.000
  24094547.122    10497406.840 6   9835788.28222        40.000
  22187708.889     7585277.755 9   3287633.32127        98.000
 96  6  5 19 18 45.0010000  0  5G 4G 5G24G 7G 9
  21588116.988    10319821.367 9   3949983.09128       112.000
  21905538.801   -15392099.887 8  -6964452.83027        80.000
  20948314.194    -7740044.058 9  -3773065.74629       102.000
  24103173.410    10542738.120 6   9871111.37323        38.000
  22194563.583     7621337.233 9   3315731.61627        94.000
 96  6  5 19 19  0.0010000  0  5G 4G 5G24G 7G 9
  21595505.253    10358630.433 9   3980223.90328       112.000
  21901421.302   -15413759.329 9  -6981330.30327        88.000
  20949143.240    -7735678.166 9  -3769663.77229       102.000
  24111803.386    10588090.382 6   9906450.75123        40.000
  22201451.015     7657515.904 9   3343922.75427        92.000
 96  6  5 19 19 15.0010000  0  5G 4G 5G24G 7G 9
  21602910.127    10397554.479 9   4010554.33328       110.000
  21897308.689   -15435357.074 9  -6998159.69727        86.000
  20949999.147    -7731183.477 9  -3766161.39129       100.000
  24120436.269    10633453.965 6   9941799.02923        38.000
  22208362.251     7693806.061 9   3372200.82327        96.000
 96  6  5 19 19 30.0010000  0  5G 4G 5G24G 7G 9
  21610340.962    10436605.976 9   4040984.06528       112.000
  21893210.286   -15456882.065 9  -7014932.43627        84.000
  20950883.685    -7726546.985 9  -3762548.54729       102.000
  24129072.781    10678837.431 6   9977162.80124        36.000
  22215290.844     7730219.378 9   3400574.81727        96.000
 96  6  5 19 19 45.0010000  0  5G 4G 5G24G 7G 9
  21617795.062    10475776.921 9   4071506.88428       114.000
  21889123.515   -15478341.166 8  -7031653.80128        80.000
  20951790.527    -7721774.720 9  -3758829.88729       102.000
  24137714.598    10724232.200 6  10012535.31923        38.000
  22222242.851     7766748.416 9   3429038.98927        96.000
 96  6  5 19 20  0.0010000  0  5G 4G 5G24G 7G 9
  21625269.937    10515072.199 9   4102126.56828       110.000
  21885058.389   -15499731.932 9  -7048321.95528        86.000
  20952723.991    -7716865.160 9  -3755004.26529       102.000
  24146350.719    10769642.745 6  10047920.15623        36.000
  22229215.874     7803399.923 9   3457598.58227        94.000
 96  6  5 19 20 15.0010000  0  5G 4G 5G24G 7G 9
  21632771.464    10554492.715 9   4132843.84528       106.000
  21881003.786   -15521048.098 9  -7064931.94028        86.000
  20953683.896    -7711817.099 9  -3751070.69929       102.000
  24155001.620    10815069.920 6  10083317.79223        34.000
  22236216.777     7840176.224 9   3486255.41827        94.000
 96  6  5 19 20 30.0010000  0  5G 4G 5G24G 7G 9
  21640296.734    10594037.962 9   4163658.30428       108.000
  21876961.055   -15542287.387 9  -7081482.03028        86.000
  20954674.890    -7706625.191 9  -3747025.06429       102.000
  24163642.388    10860512.941 6  10118727.92123        34.000
  22243235.249     7877078.207 9   3515010.18327        90.000
 96  6  5 19 20 45.0010000  0  5G 4G 5G24G 7G 9
  21647848.416    10633701.732 9   4194565.13728       108.000
  21872929.356   -15563455.191 8  -7097976.41828        80.000
  20955691.037    -7701289.951 9  -3742867.73229       100.000
  24172291.071    10905965.711 6  10154145.71324        32.000
  22250281.001     7914105.207 9   3543862.39927        96.000
 96  6  5 19 21  0.0010000  0  5G 4G 5G24G 7G 9
  21655415.628    10673479.568 9   4225560.85628       110.000
  21868917.953   -15584551.508 9  -7114415.10628        84.000
  20956729.398    -7695812.603 9  -3738599.66429       100.000
  24180943.231    10951426.321 6  10189569.57524        32.000
  22257354.184     7951257.952 9   3572812.58927        94.000
 96  6  5 19 21 15.0010000  0  5G 4G 5G24G 7G 9
  21663005.773    10713364.650 9   4256640.14028       110.000
  21864916.653   -15605581.966 9  -7130802.49428        86.000
  20957799.058    -7690195.150 9  -3734222.42129       102.000
  24189588.646    10996890.734 6  10224996.42124        32.000
  22264449.912     7988531.558 9   3601856.94527        96.000
 96  6  5 19 21 30.0010000  0  5G 4G 5G24G 7G 9
  21670617.234    10753362.561 9   4287807.31628       108.000
  21860929.054   -15626540.491 9  -7147133.81628        88.000
  20958896.928    -7684429.946 9  -3729730.06629       102.000
  24198247.402    11042365.549 6  10260431.35123        32.000
  22271559.250     8025931.747 9   3630999.92127        90.000
 96  6  5 19 21 45.0010000  0  5G 4G 5G24G 7G 9
  21678247.222    10793471.029 9   4319060.68928       108.000
  21856950.898   -15647423.647 9  -7163406.38428        84.000
  20960023.188    -7678519.135 9  -3725124.21929       102.000
  24206911.164    11087853.059 6  10295875.98123        34.000
  22278697.878     8063457.014 9   3660240.40927        92.000
 96  6  5 19 22  0.0010000  0  5G 4G 5G24G 7G 9
  21685901.913    10833684.763 9   4350396.05728       106.000
  21852995.886   -15668236.440 9  -7179624.12128        90.000
  20961171.243    -7672469.249 9  -3720410.02229       102.000
  24215562.635    11133348.121 6  10331326.63223        34.000
  22285871.462     8101102.226 9   3689574.30527        92.000
 96  6  5 19 22 15.0010000  0  5G 4G 5G24G 7G 9
  21693572.402    10874006.409 9   4381815.49728       104.000
  21849045.760   -15688974.356 9  -7195783.55828        86.000
  20962352.545    -7666278.870 9  -3715586.36229       104.000
  24224218.123    11178851.738 6  10366783.98823        36.000
  22293053.950     8138868.945 9   3719002.89227        96.000
 96  6  5 19 22 30.0010000  0  5G 4G 5G24G 7G 9
  21701267.535    10914432.118 9   4413316.05628       106.000
  21845114.672   -15709638.958 9  -7211885.82628        86.000
  20963552.794    -7659950.295 9  -3710654.99229       100.000
  24232882.365    11224361.192 6  10402245.95024        34.000
  22300262.520     8176753.013 9   3748522.94927        92.000
 96  6  5 19 22 45.0010000  0  5G 4G 5G24G 7G 9
  21708980.476    10954965.678 9   4444900.60628       106.000
  21841195.425   -15730230.164 9  -7227930.95228        86.000
  20964785.751    -7653482.978 9  -3705615.55029       102.000
  24241552.512    11269881.056 6  10437715.98124        36.000
  22307494.383     8214757.726 9   3778136.95827        94.000
 96  6  5 19 23  0.0010000  0  5G 4G 5G24G 7G 9
  21716714.342    10995607.753 9   4476569.78628       104.000
  21837294.765   -15750747.600 9  -7243918.53728        92.000
  20966042.901    -7646881.145 9  -3700471.22829       100.000
  24250212.227    11315414.016 6  10473196.17723        36.000
  22314746.512     8252881.168 9   3807843.55527        92.000
 96  6  5 19 23 15.0010000  0  5G 4G 5G24G 7G 9
  21724470.002    11036358.123 9   4508323.32828       104.000
  21833402.800   -15771191.410 9  -7259848.75328        88.000
  20967324.124    -7640145.416 9  -3695222.60029       100.000
  24258874.191    11360962.177 6  10508688.12123        36.000
  22322024.154     8291120.889 9   3837640.73527        92.000
 96  6  5 19 23 30.0010000  0  5G 4G 5G24G 7G 9
  21732241.492    11077217.000 9   4540161.39328       102.000
  21829522.076   -15791564.365 9  -7275723.79828        86.000
  20968634.247    -7633278.510 9  -3689871.77129       102.000
  24267552.823    11406525.641 6  10544192.06523        36.000
  22329325.210     8329472.349 9   3867524.96027        96.000
 96  6  5 19 23 45.0010000  0  5G 4G 5G24G 7G 9
  21740040.863    11118186.144 9   4572085.40628       106.000
  21825660.000   -15811863.543 9  -7291541.30728        88.000
  20969963.376    -7626281.481 9  -3684419.52029       100.000
  24276217.155    11452108.671 6  10579711.34923        38.000
  22336637.568     8367936.376 9   3897496.92527        94.000
 96  6  5 19 24  0.0010000  0  5G 4G 5G24G 7G 9
  21747852.585    11159260.212 9   4604091.15928       104.000
  21821813.423   -15832093.831 9  -7307305.20328        94.000
  20971315.321    -7619158.683 9  -3678869.30529       100.000
  24284899.804    11497706.218 6  10615241.89123        36.000
  22343982.753     8406508.571 9   3927553.14227        96.000
 96  6  5 19 24 15.0010000  0  5G 4G 5G24G 7G 9
  21755692.757    11200447.690 9   4636185.30628       102.000
  21817974.850   -15852246.801 9  -7323008.81128        86.000
  20972699.822    -7611900.484 9  -3673213.55429       102.000
  24293579.395    11543325.837 6  10650789.67824        40.000
  22351341.458     8445196.534 9   3957699.60927        96.000
 96  6  5 19 24 30.0010000  0  5G 4G 5G24G 7G 9
  21763547.889    11241741.904 9   4668362.59728       100.000
  21814156.664   -15872327.607 9  -7338656.18828        94.000
  20974106.718    -7604509.835 9  -3667454.61529       100.000
  24302261.624    11588962.295 6  10686350.53523        40.000
  22358725.826     8483991.610 9   3987929.52927        98.000
 96  6  5 19 24 45.0010000  0  5G 4G 5G24G 7G 9
  21771427.904    11283139.739 9   4700620.64328       102.000
  21810348.370   -15892339.197 9  -7354249.62928        94.000
  20975538.137    -7596986.217 9  -3661592.04729       100.000
  24310952.398    11634613.950 6  10721923.24623        40.000
  22366131.959     8522890.989 9   4018240.71627        98.000
 96  6  5 19 25  0.0010000  0  5G 4G 5G24G 7G 9
  21779328.455    11324641.545 9   4732959.70828       102.000
  21806551.229   -15912278.924 9  -7369787.07828        88.000
  20976995.488    -7589327.331 9  -3655624.08429       102.000
  24319642.452    11680279.494 7  10757506.62723        42.000
  22373546.846     8561892.955 9   4048631.84827        98.000
 96  6  5 19 25 15.0010000  0  5G 4G 5G24G 7G 9
  21787245.704    11366252.791 9   4765384.04728       102.000
  21802772.884   -15932137.933 9  -7385261.62628        92.000
  20978480.060    -7581523.148 9  -3649542.90829       100.000
  24328336.163    11725965.050 6  10793105.71023        38.000
  22380997.768     8601003.656 9   4079107.69527       102.000
 96  6  5 19 25 30.0020000  0  5G 4G 5G24G 7G 9
  21795182.859    11407972.307 9   4797892.76128       104.000
  21799008.121   -15951918.406 9  -7400674.97528        92.000
  20979992.453    -7573575.378 9  -3643349.83129       102.000
  24337029.725    11771666.723 6  10828717.49223        38.000
  22388453.816     8640222.071 9   4109667.46727       100.000
 96  6  5 19 25 45.0020000  0  5G 4G 5G24G 7G 9
  21803144.327    11449797.114 9   4830483.51128       102.000
  21795261.914   -15971613.726 9  -7416022.00128        92.000
  20981534.196    -7565484.902 9  -3637045.57129       104.000
  24345731.111    11817377.474 6  10864336.25024        38.000
  22395939.154     8679547.407 9   4140310.56727        98.000
 96  6  5 19 26  0.0020000  0  5G 4G 5G24G 7G 9
  21811123.214    11491725.349 9   4863154.85428       102.000
  21791528.958   -15991228.190 9  -7431306.00328        94.000
  20983097.074    -7557255.717 9  -3630633.22529       100.000
  24354429.349    11863093.795 6  10899959.38624        38.000
  22403446.107     8718980.052 9   4171037.29627        98.000
 96  6  5 19 26 15.0020000  0  5G 4G 5G24G 7G 9
  21819122.216    11533755.787 9   4895905.83728       102.000
  21787812.581   -16010763.033 9  -7446527.94528        94.000
  20984689.842    -7548888.631 9  -3624113.41129       102.000
  24363132.564    11908809.956 6  10935582.39823        38.000
  22410970.118     8758519.993 9   4201847.64027       100.000
 96  6  5 19 26 30.0020000  0  5G 4G 5G24G 7G 9
  21827141.964    11575891.298 9   4928738.69128       102.000
  21784109.994   -16030217.822 9  -7461687.52628        94.000
  20986305.213    -7540382.694 9  -3617485.39729       102.000
  24371827.835    11954528.301 6  10971207.02522        36.000
  22418510.048     8798169.776 9   4232743.56127        98.000
 96  6  5 19 26 45.0020000  0  5G 4G 5G24G 7G 9
  21835176.132    11618128.867 9   4961651.07628       102.000
  21780420.958   -16049595.362 9  -7476786.87928       100.000
  20987952.393    -7531740.643 9  -3610751.32929       102.000
  24380529.191    12000245.607 6  11006830.67222        36.000
  22426081.487     8837929.403 9   4263725.07127       100.000
 96  6  5 19 27  0.0020000  0  5G 4G 5G24G 7G 9
  21843233.894    11660470.636 9   4994644.66728        98.000
  21776750.090   -16068894.804 9  -7491825.40928        96.000
  20989623.826    -7522964.063 9  -3603912.44329       100.000
  24389224.281    12045963.137 6  11042454.72323        34.000
  22433670.883     8877802.995 9   4294795.38227       102.000
 96  6  5 19 27 15.0020000  0  6G 4G 5G24G 7G 9G16
  21851307.545    11702914.892 9   5027718.09128        98.000
  21773093.071   -16088119.316 9  -7506805.56828       102.000
  20991318.373    -7514056.267 9  -3596971.31529       100.000
  24397927.856    12091681.441 6  11078079.40523        34.000
  22441280.515     8917791.984 9   4325955.59627       100.000
  25263995.950    -4051001.863 7  -1417070.05525        52.000
 96  6  5 19 27 30.0020000  0  6G 4G 5G24G 7G 9G16
  21859404.309    11745463.367 9   5060872.78028       100.000
  21769447.325   -16107267.912 9  -7521726.51928        96.000
  20993038.822    -7505015.352 9  -3589926.40129       102.000
  24406626.754    12137404.641 6  11113708.00623        32.000
  22448912.301     8957899.974 9   4357208.60127       100.000
  25257165.388    -4086883.415 6  -1445029.60725        38.000
 96  6  5 19 27 45.0020000  0  6G 4G 5G24G 7G 9G16
  21867520.950    11788112.732 9   5094106.02128       102.000
  21765818.727   -16126343.512 9  -7536590.64528        98.000
  20994780.766    -7495847.248 9  -3582782.45029       100.000
  24415329.729    12183132.009 6  11149339.71023        34.000
  22456568.851     8998126.250 9   4388553.73127        98.000
  25250330.120    -4122789.772 7  -1473008.61225        50.000
 96  6  5 19 28  0.0020000  0  6G 4G 5G24G 7G 9G16
  21875656.958    11830869.980 9   5127423.35728       102.000
  21762202.721   -16145341.624 9  -7551394.35728        96.000
  20996551.790    -7486544.168 9  -3575533.29629        98.000
  24424033.663    12228875.952 6  11184984.55022        36.000
  22464242.908     9038478.420 9   4419996.99227        98.000
  25243491.704    -4158711.008 7  -1500999.21625        56.000
 96  6  5 19 28 15.0020000  0  6G 4G 5G24G 7G 9G16
  21883809.964    11873724.711 9   5160816.63828       100.000
  21758600.205   -16164272.150 9  -7566145.41328        98.000
  20998347.756    -7477112.035 9  -3568183.58129       102.000
  24432746.651    12274629.575 6  11220636.74623        36.000
  22471942.718     9078943.764 9   4451528.39927        94.000
  25236658.985    -4194655.325 7  -1529007.72825        44.000
 96  6  5 19 28 30.0020000  0  6G 4G 5G24G 7G 9G16
  21891988.901    11916674.877 9   5194284.28928       106.000
  21755011.929   -16183134.979 9  -7580843.73028        98.000
  21000168.126    -7467549.345 9  -3560732.12629       102.000
  24441447.708    12320394.481 6  11256297.69923        32.000
  22479669.269     9119521.083 9   4483147.07327        96.000
  25229809.266    -4230619.482 6  -1557031.64525        38.000
 96  6  5 19 28 45.0020000  0  6G 4G 5G24G 7G 9G16
  21900182.649    11959726.829 9   5227831.22928       104.000
  21751439.362   -16201922.716 9  -7595483.54928        98.000
  21002016.377    -7457848.717 9  -3553173.22329       102.000
  24450165.942    12366178.940 6  11291973.94323        34.000
  22487409.460     9160213.817 9   4514855.65127        94.000
  25222964.675    -4266596.469 7  -1585065.66425        52.000
 96  6  5 19 29  0.0020000  0  6G 4G 5G24G 7G 9G16
  21908392.585    12002882.048 9   5261458.70628       102.000
  21747875.369   -16220631.362 9  -7610061.69528       100.000
  21003889.480    -7448008.783 9  -3545505.71529       102.000
  24458884.686    12411986.123 6  11327667.85023        36.000
  22495176.993     9201023.140 9   4546655.12427        92.000
  25216116.636    -4302584.944 7  -1613108.63925        52.000
 96  6  5 19 29 15.0020000  0  6G 4G 5G24G 7G 9G16
  21916625.066    12046133.100 9   5295160.80128       102.000
  21744331.103   -16239269.670 9  -7624585.05928       100.000
  21005784.498    -7438039.119 9  -3537737.15329       102.000
  24467606.039    12457807.431 6  11363372.75123        36.000
  22502952.320     9241937.602 9   4578536.47527        88.000
  25209261.012    -4338593.791 6  -1641167.47925        40.000
 96  6  5 19 29 30.0020000  0  6G 4G 5G24G 7G 9G16
  21924870.528    12089486.809 9   5328942.91828       106.000
  21740795.291   -16257826.797 9  -7639045.12928       100.000
  21007707.727    -7427930.412 9  -3529860.22629       100.000
  24476324.573    12503649.764 6  11399094.20522        32.000
  22510768.120     9282962.966 9   4610504.30427        88.000
  25202406.737    -4374614.732 7  -1669235.61325        46.000
 96  6  5 19 29 45.0020000  0  6G 4G 5G24G 7G 9G16
  21933140.273    12132935.057 9   5362798.67728       106.000
  21737281.873   -16276306.567 9  -7653444.95928       100.000
  21009655.178    -7417691.632 9  -3521881.96529       104.000
  24485053.690    12549504.034 6  11434824.99222        32.000
  22518598.069     9324087.977 9   4642549.75427        90.000
  25195548.775    -4410655.042 7  -1697318.94226        48.000
 96  6  5 19 30  0.0020000  0  6G 4G 5G24G 7G 9G16
  21941424.438    12176480.760 9   5396730.40528       104.000
  21733780.807   -16294710.100 9  -7667785.37128       102.000
  21011626.644    -7407324.048 9  -3513803.31029       104.000
  24493775.792    12595367.290 6  11470562.58323        32.000
  22526438.511     9365312.436 9   4674672.70827        90.000
  25188698.817    -4446713.183 6  -1725416.19726        36.000
 96  6  5 19 30 15.0020000  0  6G 4G 5G24G 7G 9G16
  21949732.796    12220130.063 9   5430742.83728       106.000
  21730290.053   -16313032.467 9  -7682062.56728        96.000
  21013624.850    -7396822.324 9  -3505620.15829       104.000
  24502503.470    12641240.100 6  11506307.65723        32.000
  22534299.939     9406636.909 9   4706873.55227        90.000
  25181818.070    -4482787.015 6  -1753525.66226        32.000
 96  6  5 19 30 30.0020000  0  6G 4G 5G24G 7G 9G16
  21958056.264    12263884.333 9   5464837.06427       106.000
  21726821.994   -16331268.572 9  -7696272.49828       100.000
  21015650.428    -7386184.805 9  -3497331.18529       102.000
  24511235.105    12687119.273 6  11542057.69723        28.000
  22542184.420     9448065.002 9   4739155.17027        86.000
  25174962.296    -4518875.241 6  -1781646.30026        40.000
 96  6  5 19 30 45.0020000  0  6G 4G 5G24G 7G 9G16
  21966406.563    12307745.302 9   5499014.45127       108.000
  21723369.794   -16349417.270 9  -7710414.32428        98.000
  21017699.899    -7375412.415 9  -3488937.09629       104.000
  24519966.500    12733005.128 6  11577812.87023        26.000
  22550085.750     9489600.216 9   4771520.27026        84.000
  25168079.631    -4554976.054 6  -1809776.76025        32.000
 96  6  5 19 31  0.0020000  0  6G 4G 5G24G 7G 9G16
  21974766.306    12351685.502 9   5533253.54327       108.000
  21719927.007   -16367505.629 9  -7724509.15728        96.000
  21019772.005    -7364535.101 9  -3480461.26429       104.000
  24528695.647    12778870.105 6  11613551.84923        28.000
  22558008.186     9531217.180 9   4803949.04926        84.000
  25161201.013    -4591116.215 5  -1837937.86325        20.000
 96  6  5 19 31 15.0020000  0  6G 4G 5G24G 7G 9G16
  21983144.216    12395697.593 9   5567548.68127       108.000
  21716494.294   -16385539.887 9  -7738561.82228        96.000
  21021858.350    -7353559.977 9  -3471909.23129       104.000
  24537419.068    12824709.274 6  11649270.77322        30.000
  22565937.397     9572911.074 9   4836437.78126        84.000
  25154330.909    -4627296.805 6  -1866130.52925        34.000
 96  6  5 19 31 30.0020000  0  6G 4G 5G24G 7G 9G16
  21991535.677    12439814.431 9   5601925.41127       106.000
  21713081.187   -16403484.327 9  -7752544.53128        98.000
  21023974.136    -7342452.250 9  -3463253.88529       102.000
  24546143.988    12870555.589 6  11684995.35822        26.000
  22573904.471     9614715.810 9   4869012.84626        90.000
  25147439.640    -4663481.389 6  -1894326.34925        38.000
 96  6  5 19 31 45.0020000  0  6G 4G 5G24G 7G 9G16
  21999954.209    12484037.917 9   5636385.32927       106.000
  21709682.320   -16421332.437 9  -7766452.10728        94.000
  21026113.305    -7331206.818 9  -3454491.14929       104.000
  24554868.608    12916413.243 6  11720728.59522        28.000
  22581868.068     9656635.598 9   4901677.67926        84.000
  25140557.604    -4699665.195 6  -1922521.37225        28.000
 96  6  5 19 32  0.0020000  0  6G 4G 5G24G 7G 9G16
  22008384.822    12528361.454 9   5670923.11327       104.000
  21706301.860   -16439093.057 9  -7780291.56828        90.000
  21028278.046    -7319828.823 9  -3445625.21329       106.000
  24563599.524    12962277.731 6  11756467.21622        28.000
  22589871.357     9698666.411 9   4934428.91026        88.000
  25133671.461    -4735855.830 6  -1950721.78425        34.000
 96  6  5 19 32 15.0020000  0  6G 4G 5G24G 7G 9G16
  22016841.878    12572780.090 9   5705535.03627       108.000
  21702937.259   -16456771.423 9  -7794066.90528        96.000
  21030468.899    -7308320.770 9  -3436657.89429       102.000
  24572317.668    13008146.360 6  11792208.96622        22.000
  22597890.506     9740805.742 9   4967264.73526        86.000
  25126779.892    -4772059.694 6  -1978932.54525        40.000
 96  6  5 19 32 30.0020000  0  6G 4G 5G24G 7G 9G16
  22025311.254    12617297.704 9   5740224.06927       106.000
  21699591.126   -16474359.339 9  -7807771.76228        92.000
  21032680.408    -7296671.554 9  -3427580.58229       104.000
  24581052.002    13054027.999 6  11827960.87522        24.000
  22605930.850     9783060.543 9   5000190.50826        90.000
  25119895.308    -4808270.932 6  -2007149.17225        34.000
 96  6  5 19 32 45.0020000  0  6G 4G 5G24G 7G 9G16
  22033802.456    12661907.473 9   5774984.89327       104.000
  21696262.350   -16491864.013 9  -7821411.78028        92.000
  21034925.734    -7284886.387 9  -3418397.35729       104.000
  24589788.823    13099920.822 6  11863721.30222        26.000
  22613992.689     9825427.175 9   5033203.45526        92.000
  25112993.786    -4844493.346 6  -2035374.39325        40.000
 96  6  5 19 33  0.0020000  0  6G 4G 5G24G 7G 9G16
  22042304.330    12706610.305 9   5809818.28727       104.000
  21692946.376   -16509288.364 9  -7834989.17428        94.000
  21037195.493    -7272967.055 9  -3409109.53729       102.000
  24598521.928    13145827.372 6  11899492.64222        30.000
  22622080.969     9867901.516 9   5066300.35726        88.000
  25106099.579    -4880727.572 7  -2063608.77425        48.000
 96  6  5 19 33 15.0020000  0  6G 4G 5G24G 7G 9G16
  22050833.186    12751416.652 9   5844732.31727       102.000
  21689645.721   -16526624.226 9  -7848497.65528        92.000
  21039493.162    -7260903.784 9  -3399709.60929       106.000
  24607265.585    13191759.208 6  11935283.75623        28.000
  22630185.948     9910490.682 9   5099486.69126        92.000
  25099201.055    -4916965.430 6  -2091846.08424        38.000
 96  6  5 19 33 30.0020000  0  6G 4G 5G24G 7G 9G16
  22059380.029    12796343.418 9   5879740.18227       100.000
  21686366.921   -16543854.848 9  -7861924.12628        90.000
  21041815.684    -7248679.039 9  -3390183.82729       102.000
  24616017.366    13237730.761 6  11971105.73423        32.000
  22638309.784     9953207.093 9   5132772.18826        92.000
  25092305.169    -4953193.501 6  -2120075.81524        34.000
 96  6  5 19 33 45.0020000  0  6G 4G 5G24G 7G 9G16
  22067957.541    12841397.701 9   5914847.42327       102.000
  21683109.975   -16560975.439 9  -7875264.81628        92.000
  21044175.650    -7236286.441 9  -3380527.23329       100.000
  24624771.066    13283748.058 6  12006963.42623        34.000
  22646466.597     9996054.972 9   5166160.15926        94.000
  25085413.929    -4989406.461 7  -2148293.57324        54.000
 96  6  5 19 34  0.0020000  0  6G 4G 5G24G 7G 9G16
  22076547.824    12886546.530 9   5950028.30527       102.000
  21679865.831   -16578023.770 9  -7888549.22728        88.000
  21046558.821    -7223761.331 9  -3370767.40629       102.000
  24633534.389    13329780.053 6  12042832.57622        38.000
  22654633.783    10039000.644 9   5199624.29526        90.000
  25078519.902    -5025640.849 7  -2176528.17924        52.000
 96  6  5 19 34 15.0020000  0  6G 4G 5G24G 7G 9G16
  22085160.202    12931796.147 9   5985287.72827       100.000
  21676636.047   -16594997.890 9  -7901775.82828        92.000
  21048967.773    -7211100.575 9  -3360901.90129       100.000
  24642294.295    13375830.988 6  12078716.56922        36.000
  22662832.328    10082049.139 9   5233168.54826        90.000
  25071619.879    -5061892.371 6  -2204776.18423        40.000
 96  6  5 19 34 30.0020000  0  6G 4G 5G24G 7G 9G16
  22093787.509    12977146.641 9   6020625.76227       100.000
  21673420.533   -16611895.100 9  -7914942.47928        88.000
  21051401.818    -7198304.551 9  -3350930.97529       102.000
  24651060.916    13421900.721 6  12114615.08022        34.000
  22671037.917    10125196.284 9   5266789.65326        90.000
  25064718.716    -5098157.228 7  -2233034.49724        52.000
 96  6  5 19 34 45.0020000  0  6G 4G 5G24G 7G 9G16
  22102436.312    13022594.280 9   6056039.49027       100.000
  21670222.377   -16628715.227 9  -7928049.06928        88.000
  21053865.033    -7185375.012 9  -3340856.00929       102.000
  24659829.006    13467986.877 6  12150526.37723        36.000
  22679272.376    10168437.953 9   5300484.47426        96.000
  25057824.659    -5134434.391 7  -2261302.37924        58.000
 96  6  5 19 35  0.0020000  0  6G 4G 5G24G 7G 9G16
  22111107.299    13068141.116 9   6091530.54827       100.000
  21667035.224   -16645454.633 9  -7941092.77528        88.000
  21056347.944    -7172316.311 9  -3330680.38629       100.000
  24668602.432    13514091.203 6  12186451.85123        38.000
  22687514.780    10211773.347 9   5334252.32126        92.000
  25050924.336    -5170720.978 7  -2289577.58025        46.000
 96  6  5 19 35 15.0020000  0  6G 4G 5G24G 7G 9G16
  22119796.214    13113794.537 9   6127104.63527       102.000
  21663867.257   -16662104.395 9  -7954066.62028        86.000
  21058860.654    -7159122.969 9  -3320399.87529       102.000
  24677380.835    13560218.856 7  12222395.50023        42.000
  22695779.849    10255207.322 9   5368096.95626        94.000
  25044008.574    -5207012.985 7  -2317857.02025        54.000
 96  6  5 19 35 30.0020000  0  6G 4G 5G24G 7G 9G16
  22128500.928    13159555.585 9   6162762.60227        96.000
  21660718.447   -16678659.715 9  -7966966.85128        88.000
  21061393.121    -7145790.905 9  -3310011.22929       100.000
  24686161.546    13606369.158 6  12258356.84523        40.000
  22704067.401    10298742.856 9   5402020.75026        92.000
  25037099.767    -5243308.158 7  -2346138.97525        60.000
 96  6  5 19 35 45.0020000  0  6G 4G 5G24G 7G 9G16
  22137224.319    13205411.489 9   6198494.44627        94.000
  21657580.039   -16695130.007 9  -7979800.85928        90.000
  21063956.706    -7132332.816 9  -3299524.41329       100.000
  24694947.294    13652528.309 7  12294325.19822        44.000
  22712364.787    10342369.416 9   5436015.43426        92.000
  25030191.019    -5279616.694 6  -2374431.32325        40.000
 96  6  5 19 36  0.0020000  0  6G 4G 5G24G 7G 9G16
  22145970.823    13251360.522 9   6234298.87627        96.000
  21654467.504   -16711516.329 9  -7992569.40728        88.000
  21066537.739    -7118748.233 9  -3288939.03029       102.000
  24703736.939    13698695.397 7  12330299.59422        44.000
  22720679.141    10386088.799 9   5470082.44126        92.000
  25023275.977    -5315938.732 6  -2402734.11125        38.000
 96  6  5 19 36 15.0020000  0  6G 4G 5G24G 7G 9G16
  22154736.155    13297408.762 9   6270180.62027        98.000
  21651361.564   -16727806.185 9  -8005262.79128        86.000
  21069154.808    -7105028.623 9  -3278248.43029       102.000
  24712518.340    13744876.216 7  12366284.65523        42.000
  22729025.603    10429911.057 9   5504229.64726        94.000
  25016365.011    -5352265.214 7  -2431040.43825        56.000
 96  6  5 19 36 30.0020000  0  6G 4G 5G24G 7G 9G16
  22163508.712    13343548.814 9   6306133.89527        94.000
  21648282.186   -16744002.033 9  -8017882.95028        90.000
  21071788.754    -7091178.653 9  -3267456.23029       102.000
  24721301.749    13791061.757 6  12402273.42323        40.000
  22737383.397    10473828.246 9   5538450.83526        92.000
  25009447.300    -5388597.261 7  -2459351.22225        44.000
 96  6  5 19 36 45.0020000  0  6G 4G 5G24G 7G 9G16
  22172310.409    13389783.578 9   6342160.96927        98.000
  21645219.626   -16760098.898 9  -8030425.96828        92.000
  21074450.072    -7077194.877 9  -3256559.78229       104.000
  24730099.698    13837256.000 6  12438268.98023        38.000
  22745760.588    10517844.276 9   5572749.03026        92.000
  25002534.625    -5424930.701 6  -2487662.85725        38.000
 96  6  5 19 37  0.0020000  0  6G 4G 5G24G 7G 9G16
  22181127.005    13436122.398 9   6378269.13327        96.000
  21642173.495   -16776093.327 9  -8042889.14128        88.000
  21077138.371    -7063074.264 9  -3245556.71029       102.000
  24738890.063    13883464.921 6  12474275.94423        40.000
  22754155.466    10561969.229 9   5607132.10227        94.000
  24995629.626    -5461260.340 7  -2515971.61425        56.000
 96  6  5 19 37 15.0020000  0  6G 4G 5G24G 7G 9G16
  22189963.568    13482543.754 9   6414441.60727       100.000
  21639147.630   -16792011.253 9  -8055292.72928        94.000
  21079844.387    -7048839.465 9  -3234464.66629       100.000
  24747685.974    13929666.050 7  12510276.79722        42.000
  22762564.734    10606180.988 9   5641582.79727        88.000
  24988709.756    -5497610.406 7  -2544296.38125        46.000
 96  6  5 19 37 30.0020000  0  6G 4G 5G24G 7G 9G16
  22198813.801    13529057.261 9   6450685.92427        98.000
  21636128.240   -16807842.340 9  -8067628.61628        88.000
  21082579.274    -7034473.526 9  -3223270.40729       104.000
  24756477.387    13975871.057 6  12546280.98222        38.000
  22770997.087    10650493.867 9   5676112.29726        92.000
  24981785.210    -5533967.518 6  -2572626.59525        36.000
 96  6  5 19 37 45.0020000  0  6G 4G 5G24G 7G 9G16
  22207680.103    13575664.248 9   6487003.01827        94.000
  21633138.440   -16823579.312 9  -8079891.20228        94.000
  21085338.144    -7019971.474 9  -3211970.12829       104.000
  24765275.876    14022085.536 6  12582292.27122        40.000
  22779451.504    10694913.144 9   5710724.67126        88.000
  24974873.735    -5570320.661 7  -2600953.65625        54.000
 96  6  5 19 38  0.0020000  0  6G 4G 5G24G 7G 9G16
  22216568.260    13622355.446 9   6523385.75227        96.000
  21630156.135   -16839230.445 9  -8092086.91228        92.000
  21088122.676    -7005341.081 9  -3200569.82929       102.000
  24774063.423    14068305.510 6  12618307.84523        38.000
  22787922.949    10739433.034 9   5745415.47426        90.000
  24967957.133    -5606677.173 7  -2629283.37725        46.000
 96  6  5 19 38 15.0020000  0  6G 4G 5G24G 7G 9G16
  22225469.428    13669132.237 9   6559835.20527        98.000
  21627197.842   -16854793.786 9  -8104214.19028        94.000
  21090929.573    -6990579.939 9  -3189067.62729       100.000
  24782865.209    14114532.804 7  12654329.12323        42.000
  22796419.008    10784054.436 9   5780185.41227        92.000
  24961028.300    -5643034.226 6  -2657613.52925        28.000
 96  6  5 19 38 30.0020000  0  6G 4G 5G24G 7G 9G16
  22234388.853    13715999.511 9   6596355.13927        98.000
  21624252.651   -16870266.453 9  -8116270.80528        94.000
  21093765.550    -6975686.440 9  -3177462.30929       104.000
  24791663.039    14160773.136 6  12690360.62023        36.000
  22804929.606    10828779.907 9   5815036.40427        92.000
  24954122.311    -5679385.868 7  -2685939.42625        42.000
 96  6  5 19 38 45.0020000  0  6G 4G 5G24G 7G 9G16
  22243323.208    13762960.187 9   6632947.86827       102.000
  21621328.656   -16885647.638 9  -8128256.13728        94.000
  21096623.412    -6960658.777 9  -3165752.44729       102.000
  24800473.849    14207031.763 6  12726406.30123        36.000
  22813461.219    10873611.050 9   5849969.74927        90.000
  24947194.167    -5715733.624 6  -2714262.37025        36.000
 96  6  5 19 39  0.0020000  0  6G 4G 5G24G 7G 9G16
  22252278.818    13810009.613 9   6669609.75727       100.000
  21618415.422   -16900942.797 9  -8140174.43128        96.000
  21099514.580    -6945501.583 9  -3153941.63829       104.000
  24809273.118    14253305.953 6  12762464.33422        36.000
  22822006.264    10918543.989 9   5884982.43527        90.000
  24940277.355    -5752085.733 6  -2742588.60525        22.000
 96  6  5 19 39 15.0020000  0  6G 4G 5G24G 7G 9G16
  22261253.495    13857150.388 9   6706342.81527       102.000
  21615520.596   -16916145.019 9  -8152020.31428        94.000
  21102418.730    -6930209.132 9  -3142025.44529       102.000
  24818078.892    14299599.057 6  12798536.93022        32.000
  22830578.080    10963580.608 9   5920075.82927        88.000
  24933365.250    -5788437.381 7  -2770914.50125        44.000
 96  6  5 19 39 30.0020000  0  6G 4G 5G24G 7G 9G16
  22270238.095    13904377.190 9   6743142.91927       100.000
  21612651.373   -16931253.274 9  -8163792.99828       100.000
  21105353.908    -6914781.240 9  -3130003.70429       100.000
  24826899.985    14345908.466 6  12834622.18023        30.000
  22839172.980    11008717.935 9   5955247.74227        88.000
  24926448.859    -5824790.255 7  -2799241.48125        44.000
 96  6  5 19 39 45.0020000  0  6G 4G 5G24G 7G 9G16
  22279239.274    13951692.462 9   6780011.97027        98.000
  21609793.991   -16946263.650 9  -8175489.37428       104.000
  21108316.966    -6899217.738 9  -3117876.27629       100.000
  24835709.296    14392234.630 6  12870720.54423        30.000
  22847770.638    11053958.394 9   5990500.06227        84.000
  24919528.689    -5861140.804 6  -2827566.46725        32.000
 96  6  5 19 40  0.0020000  0  6G 4G 5G24G 7G 9G16
  22288262.337    13999098.790 9   6816951.92227        98.000
  21606949.440   -16961177.163 9  -8187110.32528        96.000
  21111304.608    -6883520.323 9  -3105644.56429       102.000
  24844516.029    14438578.916 6  12906832.95523        24.000
  22856400.103    11099302.399 8   6025833.00327        82.000
  24912615.265    -5897491.024 7  -2855891.25425        50.000
 96  6  5 19 40 15.0020000  0  6G 4G 5G24G 7G 9G16
  22297298.651    14046592.663 9   6853960.14227       100.000
  21604134.059   -16976003.301 9  -8198663.14128       102.000
  21114314.584    -6867694.642 9  -3093312.85529       100.000
  24853343.778    14484935.489 6  12942954.97123        22.000
  22865052.743    11144741.663 8   6061240.20927        82.000
  24905691.648    -5933849.949 7  -2884222.90025        50.000
 96  6  5 19 40 30.0020000  0  6G 4G 5G24G 7G 9G16
  22306352.713    14094173.825 9   6891036.36527       102.000
  21601328.062   -16990743.267 9  -8210148.82928        98.000
  21117350.612    -6851741.578 9  -3080881.89029       102.000
  24862176.473    14531303.620 6  12979085.98622        24.000
  22873721.932    11190273.585 9   6096719.61427        86.000
  24898773.188    -5970218.304 6  -2912561.92425        38.000
 96  6  5 19 40 45.0020000  0  6G 4G 5G24G 7G 9G16
  22315421.405    14141839.969 9   6928178.79527        96.000
  21598538.733   -17005398.066 9  -8221568.15128       100.000
  21120412.812    -6835661.489 9  -3068351.96229       102.000
  24870998.466    14577683.255 6  13015226.22322        22.000
  22882396.247    11235896.534 8   6132269.96626        82.000
  24891849.691    -6006599.292 7  -2940910.65925        56.000
 96  6  5 19 41  0.0020000  0  6G 4G 5G24G 7G 9G16
  22324512.102    14189595.662 9   6965391.01427        98.000
  21595765.563   -17019962.907 9  -8232917.38928        96.000
  21123497.557    -6819447.715 9  -3055717.84529       104.000
  24879835.059    14624076.143 6  13051376.52322        26.000
  22891096.823    11281612.618 8   6167892.85426        82.000
  24884924.515    -6042988.093 7  -2969265.51725        60.000
 96  6  5 19 41 15.0020000  0  6G 4G 5G24G 7G 9G16
  22333613.801    14237438.125 9   7002670.87227        96.000
  21593013.678   -17034439.751 9  -8244198.04528       102.000
  21126606.345    -6803103.786 9  -3042982.29229       102.000
  24888648.057    14670476.398 5  13087532.60623        20.000
  22899809.931    11327417.650 8   6203585.05926        80.000
  24878004.466    -6079382.876 7  -2997625.07625        48.000
 96  6  5 19 41 30.0020000  0  6G 4G 5G24G 7G 9G16
  22342734.956    14285365.117 9   7040016.55427        94.000
  21590273.934   -17048830.655 9  -8255411.74428        98.000
  21129744.093    -6786634.006 9  -3030148.70929       104.000
  24897496.342    14716880.440 6  13123691.61723        24.000
  22908549.211    11373308.377 9   6239344.05826        84.000
  24871072.815    -6115785.313 7  -3025990.62125        56.000
 96  6  5 19 41 45.0020000  0  6G 4G 5G24G 7G 9G16
  22351871.102    14333379.285 9   7077430.17727        96.000
  21587550.650   -17063136.962 9  -8266559.50228        96.000
  21132898.929    -6770037.909 9  -3017216.68729       104.000
  24906318.694    14763291.041 6  13159855.65623        22.000
  22917291.519    11419286.425 8   6275171.08626        78.000
  24864143.202    -6152194.429 7  -3054361.32825        58.000
 96  6  5 19 42  0.0020000  0  6G 4G 5G24G 7G 9G16
  22361025.624    14381483.724 9   7114914.15127        98.000
  21584847.451   -17077356.243 9  -8277639.46129        98.000
  21136079.637    -6753313.874 9  -3004184.96929       104.000
  24915151.120    14809711.130 6  13196026.90922        24.000
  22926063.447    11465353.438 8   6311067.45326        82.000
  24857210.951    -6188608.195 7  -3082735.66925        42.000
 96  6  5 19 42 15.0020000  0  6G 4G 5G24G 7G 9G16
  22370198.614    14429677.737 9   7152467.91827        94.000
  21582157.623   -17091486.507 9  -8288650.06729        98.000
  21139290.234    -6736461.230 9  -2991053.05129       104.000
  24923982.136    14856142.051 6  13232206.86623        26.000
  22934850.154    11511508.661 8   6347032.54126        82.000
  24850287.004    -6225025.443 7  -3111112.69025        58.000
 96  6  5 19 42 30.0020000  0  6G 4G 5G24G 7G 9G16
  22379382.186    14477959.368 9   7190089.95727        94.000
  21579484.404   -17105523.358 9  -8299587.88129        92.000
  21142519.778    -6719480.231 9  -2977821.11029       102.000
  24932829.431    14902581.003 6  13268393.06723        24.000
  22943649.962    11557751.870 8   6383066.17326        82.000
  24843356.612    -6261442.352 8  -3139489.55425        64.000
 96  6  5 19 42 45.0020000  0  6G 4G 5G24G 7G 9G16
  22388590.581    14526331.331 9   7227782.37927        96.000
  21576831.510   -17119460.445 9  -8310447.95629        94.000
  21145774.985    -6702367.612 9  -2964486.59729       104.000
  24941650.465    14949031.400 6  13304588.20323        26.000
  22952463.350    11604085.530 8   6419170.27926        80.000
  24836423.702    -6297856.459 7  -3167864.16025        48.000
 96  6  5 19 43  0.0020000  0  6G 4G 5G24G 7G 9G16
  22397813.277    14574792.089 9   7265543.97127        96.000
  21574200.112   -17133297.343 9  -8321229.98229        94.000
  21149059.691    -6685125.844 9  -2951051.48029       102.000
  24950502.467    14995490.770 6  13340790.24423        28.000
  22961292.448    11650508.048 8   6455343.63026        82.000
  24829495.978    -6334267.149 7  -3196236.05125        54.000
 96  6  5 19 43 15.0020000  0  6G 4G 5G24G 7G 9G16
  22407045.295    14623336.224 9   7303370.62227        92.000
  21571585.022   -17147036.933 9  -8331936.10129        96.000
  21152362.924    -6667762.713 9  -2937521.72329       102.000
  24959344.036    15041953.775 6  13376995.24423        28.000
  22970148.047    11697015.147 8   6491582.95526        82.000
  24822567.804    -6370676.362 7  -3224606.88425        52.000
 96  6  5 19 43 30.0020000  0  6G 4G 5G24G 7G 9G16
  22416300.368    14671962.836 9   7341261.45127        98.000
  21568989.539   -17160679.425 9  -8342566.64729        98.000
  21155686.843    -6650279.746 9  -2923898.65729       104.000
  24968192.230    15088425.446 6  13413206.71422        32.000
  22979016.088    11743608.078 8   6527889.11026        82.000
  24815638.671    -6407082.617 6  -3252975.40725        38.000
 96  6  5 19 43 45.0020000  0  6G 4G 5G24G 7G 9G16
  22425570.131    14720675.358 9   7379219.25927        94.000
  21566414.442   -17174221.805 9  -8353119.12629        96.000
  21159038.582    -6632670.729 9  -2910177.33329       104.000
  24977029.003    15134913.288 6  13449431.02123        32.000
  22987895.851    11790292.161 8   6564266.29526        82.000
  24808718.741    -6443480.434 7  -3281337.23125        54.000
 96  6  5 19 44  0.0020000  0  6G 4G 5G24G 7G 9G16
  22434852.365    14769468.930 9   7417240.22527        92.000
  21563854.904   -17187665.532 9  -8363594.77429       102.000
  21162414.365    -6614935.837 9  -2896357.93929       106.000
  24985884.602    15181416.108 6  13485667.04023        34.000
  22996798.787    11837066.663 9   6600713.95726        84.000
  24801793.775    -6479871.004 7  -3309693.50725        54.000
 96  6  5 19 44 15.0020000  0  6G 4G 5G24G 7G 9G16
  22444158.672    14818339.897 9   7455321.48027        94.000
  21561314.792   -17201010.322 9  -8373993.31529       100.000
  21165810.894    -6597076.292 9  -2882441.42029       104.000
  24994736.034    15227933.273 6  13521914.17623        34.000
  23005714.465    11883927.756 8   6637229.04626        80.000
  24794866.051    -6516253.218 6  -3338043.29025        40.000
 96  6  5 19 44 30.0020000  0  6G 4G 5G24G 7G 9G16
  22453469.117    14867284.324 9   7493459.98527        92.000
  21558790.780   -17214261.397 9  -8384318.82929        94.000
  21169231.346    -6579095.292 9  -2868430.25029       102.000
  25003591.514    15274463.064 6  13558171.17723        38.000
  23014647.651    11930869.605 9   6673807.07526        86.000
  24787950.139    -6552630.145 7  -3366388.84225        54.000
 96  6  5 19 44 45.0020000  0  6G 4G 5G24G 7G 9G16
  22462800.697    14916304.341 9   7531657.39026        94.000
  21556289.371   -17227420.813 9  -8394572.91029        98.000
  21172679.979    -6560990.024 9  -2854322.24229       102.000
  25012447.953    15321008.780 6  13594440.51223        40.000
  23023600.713    11977893.437 9   6710449.00326        86.000
  24781020.287    -6589002.523 7  -3394730.93825        42.000
 96  6  5 19 45  0.0020000  0  6G 4G 5G24G 7G 9G16
  22472143.789    14965401.432 9   7569914.85126        94.000
  21553801.933   -17240490.873 9  -8404757.35329        98.000
  21176151.725    -6542759.187 9  -2840116.40329       102.000
  25021309.968    15367570.345 7  13630722.08023        44.000
  23032560.970    12025001.635 9   6747156.70026        84.000
  24774099.997    -6625370.101 6  -3423069.30825        28.000
 96  6  5 19 45 15.0020000  0  6G 4G 5G24G 7G 9G16
  22481497.763    15014577.157 9   7608233.59226        94.000
  21551334.971   -17253468.888 9  -8414870.10329        98.000
  21179642.808    -6524401.407 9  -2825811.64629       102.000
  25030174.950    15414148.682 7  13667016.90123        44.000
  23041539.814    12072199.843 8   6783934.50226        82.000
  24767186.514    -6661727.395 7  -3451399.63125        44.000
 96  6  5 19 45 30.0020000  0  6G 4G 5G24G 7G 9G16
  22490872.123    15063829.698 9   7646612.18926        92.000
  21548876.883   -17266360.456 9  -8424915.49329        98.000
  21183158.535    -6505919.285 9  -2811410.00429       104.000
  25039044.850    15460740.876 7  13703322.53123        46.000
  23050538.174    12119485.432 8   6820780.40126        82.000
  24760261.038    -6698077.822 6  -3479724.66725        34.000
 96  6  5 19 45 45.0020000  0  6G 4G 5G24G 7G 9G16
  22500262.343    15113161.030 9   7685052.18926        90.000
  21546445.656   -17279162.731 9  -8434891.28929       100.000
  21186702.681    -6487308.664 9  -2796908.20229       104.000
  25047909.593    15507350.487 7  13739641.71824        44.000
  23059551.495    12166861.517 9   6857696.83726        84.000
  24753358.676    -6734419.830 6  -3508042.98425        40.000
 96  6  5 19 46  0.0020000  0  6G 4G 5G24G 7G 9G16
  22509658.288    15162566.152 9   7723549.64526        92.000
  21544025.252   -17291878.503 9  -8444799.69729        98.000
  21190263.076    -6468573.947 9  -2782309.73529       100.000
  25056780.212    15553969.326 7  13775968.07124        44.000
  23068588.199    12214324.893 9   6894681.21826        88.000
  24746440.965    -6770760.777 7  -3536360.63225        54.000
 96  6  5 19 46 15.0020000  0  6G 4G 5G24G 7G 9G16
  22519081.694    15212053.519 9   7762111.22826        94.000
  21541620.766   -17304499.383 9  -8454634.14829       102.000
  21193855.669    -6449707.859 9  -2767608.90629       102.000
  25065648.493    15600603.109 7  13812306.06824        42.000
  23077638.573    12261880.363 9   6931737.39726        88.000
  24739521.246    -6807092.386 6  -3564670.98426        40.000
 96  6  5 19 46 30.0020000  0  6G 4G 5G24G 7G 9G16
  22528510.347    15261622.497 9   7800736.41826        92.000
  21539238.136   -17317030.948 9  -8464398.99029        96.000
  21197472.275    -6430717.196 9  -2752810.96429       102.000
  25074532.692    15647245.090 6  13848650.38423        38.000
  23086700.580    12309524.055 9   6968862.34226        86.000
  24732614.687    -6843418.567 7  -3592976.98126        50.000
 96  6  5 19 46 45.0020000  0  6G 4G 5G24G 7G 9G16
  22537957.677    15311282.872 9   7839432.80326        90.000
  21536867.767   -17329463.635 9  -8474086.78729        96.000
  21201113.375    -6411592.890 9  -2737908.89329       104.000
  25083409.157    15693900.429 6  13885005.11723        36.000
  23095784.171    12357269.619 9   7006066.67526        84.000
  24725698.355    -6879731.593 7  -3621272.84026        54.000
 96  6  5 19 47  0.0020000  0  6G 4G 5G24G 7G 9G16
  22547426.621    15361024.663 9   7878192.63426        92.000
  21534526.747   -17341802.718 9  -8483701.65429       100.000
  21204772.072    -6392347.040 9  -2722912.12329       102.000
  25092288.620    15740557.713 6  13921361.48623        36.000
  23104896.693    12405107.824 9   7043343.20626        86.000
  24718783.222    -6916039.757 6  -3649564.90726        38.000
 96  6  5 19 47 15.0020000  0  6G 4G 5G24G 7G 9G16
  22556907.198    15410851.403 9   7917018.65726        90.000
  21532194.302   -17354038.421 9  -8493235.97729        98.000
  21208458.799    -6372977.189 9  -2707818.73629       102.000
  25101165.475    15787222.216 6  13957723.42823        34.000
  23114017.309    12453041.822 9   7080694.37526        86.000
  24711883.019    -6952337.213 7  -3677848.56126        54.000
 96  6  5 19 47 30.0020000  0  6G 4G 5G24G 7G 9G16
  22566411.219    15460761.092 9   7955909.30426        92.000
  21529885.331   -17366173.077 9  -8502691.56129        98.000
  21212163.455    -6353488.548 9  -2692632.78629       102.000
  25110050.124    15833894.762 6  13994091.67424        34.000
  23123150.726    12501063.090 8   7118113.49726        80.000
  24704977.270    -6988630.538 7  -3706129.09726        56.000
 96  6  5 19 47 45.0020000  0  6G 4G 5G24G 7G 9G16
  22575914.580    15510750.715 9   7994862.26926        88.000
  21527595.156   -17378209.453 9  -8512070.54829       102.000
  21215899.259    -6333882.075 9  -2677355.01729       102.000
  25118930.846    15880574.337 6  14030465.37224        30.000
  23132303.270    12549167.241 8   7155597.22826        80.000
  24698071.611    -7024922.640 7  -3734408.67025        46.000
 96  6  5 19 48  0.0020000  0  6G 4G 5G24G 7G 9G16
  22585445.761    15560822.489 9   8033879.21026        90.000
  21525325.817   -17390141.053 9  -8521367.89129       100.000
  21219650.262    -6314154.564 9  -2661982.93729       102.000
  25127820.232    15927262.696 6  14066846.02123        30.000
  23141482.405    12597355.964 8   7193146.83926        82.000
  24691161.305    -7061210.254 7  -3762684.70725        58.000
 96  6  5 19 48 15.0020000  0  6G 4G 5G24G 7G 9G16
  22594993.012    15610977.326 9   8072960.86426        90.000
  21523073.476   -17401969.313 9  -8530584.73529       100.000
  21223425.248    -6294305.932 9  -2646516.49429       102.000
  25136700.025    15973957.690 6  14103231.84523        30.000
  23150666.847    12645625.889 9   7230759.71826        84.000
  24684261.731    -7097492.826 7  -3790956.83926        56.000
 96  6  5 19 48 30.0020000  0  6G 4G 5G24G 7G 9G16
  22604550.515    15661214.109 9   8112106.43626        90.000
  21520843.170   -17413693.462 9  -8539720.41429       100.000
  21227226.677    -6274337.230 9  -2630956.44629       102.000
  25145588.331    16020661.414 6  14139624.43823        26.000
  23159858.184    12693976.957 8   7268435.88826        78.000
  24677358.530    -7133769.363 7  -3819224.20125        52.000
 96  6  5 19 48 45.0020000  0  6G 4G 5G24G 7G 9G16
  22614122.529    15711527.815 9   8151311.88826        88.000
  21518629.743   -17425313.686 9  -8548775.15229       100.000
  21231045.193    -6254252.005 9  -2615305.62529       102.000
  25154479.876    16067373.616 6  14176023.54923        22.000
  23169078.721    12742407.538 8   7306173.99126        82.000
  24670452.421    -7170046.243 7  -3847491.89525        62.000
 96  6  5 19 49  0.0020000  0  6G 4G 5G24G 7G 9G16
  22623710.971    15761916.841 9   8190576.06526        86.000
  21516440.748   -17436825.698 9  -8557745.55429       102.000
  21234895.548    -6234047.329 9  -2599561.72429       104.000
  25163374.958    16114100.364 6  14212434.00423        24.000
  23178311.249    12790915.974 8   7343972.74826        78.000
  24663548.261    -7206321.223 7  -3875758.11725        58.000
 96  6  5 19 49 15.0020000  0  6G 4G 5G24G 7G 9G16
  22633311.644    15812382.296 9   8229899.77926        88.000
  21514273.309   -17448230.221 9  -8566632.18429       100.000
  21238762.930    -6213721.528 9  -2583723.43329       104.000
  25172264.224    16160846.275 5  14248859.48423        20.000
  23187554.210    12839499.466 8   7381829.98726        78.000
  24656645.569    -7242590.627 7  -3904019.97425        54.000
 96  6  5 19 49 30.0020000  0  6G 4G 5G24G 7G 9G16
  22642933.363    15862914.154 9   8269275.25526        88.000
  21512118.880   -17459538.949 9  -8575444.17429       102.000
  21242652.827    -6193279.155 9  -2567794.30929       104.000
  25181160.026    16207603.769 5  14285293.99123        20.000
  23196817.258    12888151.669 8   7419740.74826        80.000
  24649745.786    -7278860.938 7  -3932282.54125        56.000
 96  6  5 19 49 45.0020000  0  6G 4G 5G24G 7G 9G16
  22652562.307    15913514.411 9   8308703.99726        88.000
  21509984.987   -17470752.764 9  -8584182.22329       100.000
  21246566.678    -6172715.705 9  -2551770.84929       104.000
  25190059.455    16254373.147 5  14321737.74423        20.000
  23206086.301    12936876.921 8   7457708.42926        78.000
  24642841.836    -7315123.968 7  -3960539.46725        52.000
 96  6  5 19 50  0.0020000  0  6G 4G 5G24G 7G 9G16
  22662203.063    15964179.768 9   8348183.47926        88.000
  21507869.502   -17481873.020 9  -8592847.34529        98.000
  21250503.433    -6152033.880 9  -2535655.13829       106.000
  25198963.261    16301150.017 5  14358187.31923        20.000
  23215370.064    12985672.807 8   7495731.20326        78.000
  24635948.858    -7351377.530 7  -3988788.92725        56.000
 96  6  5 19 50 15.0020000  0  6G 4G 5G24G 7G 9G16
  22671859.648    16014913.407 9   8387716.17626        88.000
  21505772.214   -17492897.718 9  -8601438.02629       100.000
  21254465.550    -6131228.824 9  -2519443.41429       106.000
  25207869.525    16347939.993 5  14394647.01623        20.000
  23224666.388    13034542.624 8   7533811.56726        74.000
  24629050.243    -7387619.749 7  -4017029.58825        60.000
 96  6  5 19 50 30.0020000  0  6G 4G 5G24G 7G 9G16
  22681520.130    16065715.135 8   8427301.94226        82.000
  21503691.714   -17503827.778 9  -8609954.95629        98.000
  21258443.826    -6110300.385 9  -2503135.52829       106.000
  25216769.074    16394748.498 5  14431121.25623        20.000
  23233989.184    13083489.907 8   7571952.31326        76.000
  24622156.606    -7423849.376 7  -4045260.47525        50.000
 96  6  5 19 50 45.0020000  0  6G 4G 5G24G 7G 9G16
  22691206.185    16116590.169 9   8466944.80426        84.000
  21501632.769   -17514656.695 9  -8618393.07729       102.000
  21262449.772    -6089244.302 9  -2486728.20229       104.000
  25225688.919    16441580.234 6  14467613.59423        22.000
  23243314.348    13132519.523 8   7610157.17226        74.000
  24615266.596    -7460060.226 7  -4073476.70225        56.000
 96  6  5 19 51  0.0020000  0  5G 4G 5G24G 9G16
  22700900.574    16167537.614 9   8506644.08226        86.000
  21499586.956   -17525388.491 9  -8626755.51929        98.000
  21266482.191    -6068061.654 9  -2470222.24929       106.000
  23252658.370    13181626.399 8   7648422.21626        76.000
  24608381.352    -7496251.570 7  -4101677.72125        56.000
 96  6  5 19 51 15.0020000  0  5G 4G 5G24G 9G16
  22710611.901    16218557.585 9   8546399.91626        92.000
  21497562.037   -17536029.147 9  -8635046.93529        94.000
  21270537.184    -6046755.815 9  -2453620.29729       102.000
  23262017.560    13230808.577 8   7686745.95826        80.000
  24601492.931    -7532422.735 7  -4129863.03925        44.000
 96  6  5 19 51 30.0020000  0  5G 4G 5G24G 9G16
  22720335.039    16269651.919 9   8586213.68326        90.000
  21495553.548   -17546575.272 9  -8643264.69229        94.000
  21274613.522    -6025323.983 9  -2436920.15729       102.000
  23271399.865    13280069.654 8   7725131.19826        82.000
  24594612.124    -7568573.308 7  -4158032.28725        50.000
 96  6  5 19 51 45.0020000  0  5G 4G 5G24G 9G16
  22730069.930    16320821.830 9   8626086.32926        88.000
  21493568.022   -17557023.064 9  -8651405.81529        94.000
  21278717.141    -6003765.752 9  -2420121.53029       104.000
  23280778.542    13329410.775 8   7763578.86726        76.000
  24587742.830    -7604703.457 7  -4186185.58325        56.000
 96  6  5 19 52  0.0020000  0  5G 4G 5G24G 9G16
  22739825.057    16372062.281 9   8666013.92826        90.000
  21491598.416   -17567375.524 9  -8659472.69729        96.000
  21282840.876    -5982090.872 9  -2403232.04429       104.000
  23290188.968    13378824.531 8   7802083.07126        80.000
  24580870.927    -7640823.816 7  -4214331.27525        46.000
 96  6  5 19 52 15.0020000  0  5G 4G 5G24G 9G16
  22749584.231    16423382.807 9   8706003.92326        86.000
  21489650.155   -17577620.398 9  -8667455.72829        98.000
  21286990.723    -5960289.531 9  -2386243.99129       106.000
  23299606.048    13428320.291 8   7840651.15426        78.000
  24574002.382    -7676928.799 7  -4242464.98925        54.000
 96  6  5 19 52 30.0020000  0  5G 4G 5G24G 9G16
  22759358.994    16474758.028 9   8746036.56226        84.000
  21487714.994   -17587779.893 9  -8675372.20329        98.000
  21291158.408    -5938385.193 9  -2369175.65229       106.000
  23309033.262    13477878.051 8   7879267.55826        82.000
  24567127.961    -7713041.784 7  -4270605.02425        52.000
 96  6  5 19 52 45.0020000  0  5G 4G 5G24G 9G16
  22769145.359    16526159.255 9   8786089.46026        86.000
  21485793.355   -17597877.880 9  -8683240.75929       100.000
  21295341.862    -5916408.415 9  -2352050.90329       104.000
  23318472.527    13527468.313 9   7917909.30026        84.000
  24560251.861    -7749186.900 7  -4298770.03625        50.000
 96  6  5 19 53  0.0020000  0  5G 4G 5G24G 9G16
  22778934.422    16577632.017 9   8826198.08526        84.000
  21483890.482   -17607866.833 9  -8691024.36429        96.000
  21299545.012    -5894312.981 9  -2334833.68129       106.000
  23327915.060    13577134.907 8   7956610.51126        78.000
  24553373.243    -7785318.755 7  -4326924.62825        54.000
 96  6  5 19 53 15.0020000  0  5G 4G 5G24G 9G16
  22788744.231    16629172.267 9   8866359.29626        84.000
  21482015.250   -17617749.345 9  -8698725.03829        98.000
  21303767.948    -5872103.175 9  -2317527.33529       102.000
  23337389.851    13626876.525 8   7995370.19526        78.000
  24546497.114    -7821441.960 7  -4355072.58925        54.000
 96  6  5 19 53 30.0020000  0  5G 4G 5G24G 9G16
  22798570.378    16680779.282 9   8906572.55326        86.000
  21480150.841   -17627522.085 9  -8706340.15329        98.000
  21308019.425    -5849779.324 9  -2300132.10929       104.000
  23346870.188    13676694.623 8   8034189.51626        76.000
  24539625.511    -7857559.894 7  -4383216.34825        56.000
 96  6  5 19 53 45.0020000  0  5G 4G 5G24G 9G16
  22808403.151    16732450.780 9   8946836.03326        86.000
  21478314.912   -17637185.723 9  -8713870.27329        98.000
  21312288.710    -5827342.577 9  -2282648.95829       104.000
  23356358.829    13726585.736 8   8073065.69226        76.000
  24532751.150    -7893673.312 7  -4411356.63725        56.000
 96  6  5 19 54  0.0020000  0  5G 4G 5G24G 9G16
  22818246.207    16784187.847 9   8987150.62726        84.000
  21476494.152   -17646743.628 9  -8721317.97929        98.000
  21316580.658    -5804795.812 9  -2265080.03629       104.000
  23365865.848    13776551.263 8   8111999.82526        74.000
  24525875.350    -7929777.801 7  -4439489.96325        50.000
 96  6  5 19 54 15.0020000  0  5G 4G 5G24G 9G16
  22828101.074    16835994.532 9   9027519.50326        84.000
  21474692.939   -17656193.637 9  -8728681.61229        96.000
  21320891.464    -5782135.076 9  -2247422.29829       102.000
  23375386.447    13826592.776 8   8150993.15426        74.000
  24519009.473    -7965869.087 7  -4467612.98525        58.000
 96  6  5 19 54 30.0020000  0  5G 4G 5G24G 9G16
  22837973.150    16887862.964 9   9067936.43126        86.000
  21472917.838   -17665542.844 9  -8735966.71429        96.000
  21325226.163    -5759364.199 9  -2229678.78129       104.000
  23384929.590    13876702.110 8   8190039.33026        76.000
  24512145.635    -8001950.517 7  -4495728.41925        56.000
 96  6  5 19 54 45.0020000  0  5G 4G 5G24G 9G16
  22847856.168    16939797.150 9   9108404.63426        84.000
  21471157.607   -17674788.984 9  -8743171.49529        96.000
  21329577.351    -5736481.274 9  -2211847.92129       104.000
  23394472.074    13926881.815 8   8229140.40926        72.000
  24505284.375    -8038017.497 7  -4523832.57825        54.000
 96  6  5 19 55  0.0020000  0  5G 4G 5G24G 9G16
  22857753.097    16991828.218 8   9148948.30726        82.000
  21469423.457   -17683903.372 9  -8750273.63429        98.000
  21333958.338    -5713455.885 9  -2193906.06529       104.000
  23404047.505    13977157.457 8   8268316.22726        76.000
  24498424.913    -8074041.676 7  -4551903.30425        60.000
 96  6  5 19 55 15.0020000  0  5G 4G 5G24G 9G16
  22867675.957    17043957.753 9   9189568.69726        84.000
  21467713.231   -17692889.846 9  -8757276.07829        98.000
  21338368.975    -5690286.975 9  -2175852.36629       104.000
  23413631.600    14027528.818 8   8307566.67326        78.000
  24491578.013    -8110023.524 7  -4579941.07825        62.000
 96  6  5 19 55 30.0020000  0  5G 4G 5G24G 9G16
  22877611.949    17096159.578 9   9230245.40926        86.000
  21466022.432   -17701775.809 9  -8764200.21629        98.000
  21342797.329    -5667001.160 9  -2157707.59529       104.000
  23423222.890    14077969.114 8   8346870.74826        74.000
  24484736.779    -8145985.736 7  -4607963.55625        62.000
 96  6  5 19 55 45.0020000  0  6G 6G 4G 5G24G 9G16
  25319010.474   -16599201.309 6   -101322.03621        22.000
  22887559.452    17148425.069 9   9270971.77626        86.000
  21464350.070   -17710568.153 9  -8771051.36229       100.000
  21347252.395    -5643602.894 9  -2139475.16629       106.000
  23432834.356    14128469.533 8   8386221.70226        72.000
  24477899.683    -8181931.556 8  -4635973.19225        66.000
 96  6  5 19 56  0.0020000  0  6G 6G 4G 5G24G 9G16
  25314685.518   -16621961.268 5   -119057.00921        18.000
  22897513.281    17200755.348 9   9311748.59426        86.000
  21462697.674   -17719263.518 9  -8777826.98529       100.000
  21351727.906    -5620088.630 9  -2121152.37029       104.000
  23442459.223    14179034.541 8   8425622.93226        74.000
  24471065.344    -8217853.035 7  -4663963.93825        62.000
 96  6  5 19 56 15.0020000  0  6G 6G 4G 5G24G 9G16
  25310358.673   -16644702.761 5   -136777.57622        20.000
  22907483.959    17253149.954 9   9352575.58326        84.000
  21461060.207   -17727859.837 9  -8784525.40029        98.000
  21356222.905    -5596458.404 9  -2102739.19529       104.000
  23452097.101    14229665.314 8   8465075.47926        72.000
  24464232.294    -8253751.447 7  -4691936.65525        62.000
 96  6  5 19 56 30.0020000  0  6G 6G 4G 5G24G 9G16
  25306033.568   -16667425.219 5   -154483.34422        20.000
  22917468.816    17305605.683 8   9393450.15226        82.000
  21459443.936   -17736355.703 9  -8791145.57429       100.000
  21360742.426    -5572711.167 9  -2084234.85729       104.000
  23461738.966    14280359.225 8   8504577.20326        70.000
  24457405.960    -8289632.149 8  -4719895.64725        64.000
 96  6  5 19 56 45.0020000  0  6G 6G 4G 5G24G 9G16
  25301708.192   -16690128.184 5   -172173.83122        20.000
  22927459.970    17358120.583 8   9434370.85426        80.000
  21457839.807   -17744750.561 9  -8797687.02829        98.000
  21365285.840    -5548847.942 9  -2065640.13729       104.000
  23471400.707    14331121.256 8   8544132.05726        72.000
  24450580.705    -8325493.612 7  -4747839.69125        56.000
 96  6  5 19 57  0.0020000  0  6G 6G 4G 5G24G 9G16
  25297396.667   -16712813.010 6   -189850.24622        22.000
  22937463.265    17410692.835 8   9475336.22926        80.000
  21456264.637   -17753047.667 9  -8804152.30129        98.000
  21369845.084    -5524870.980 9  -2046956.79629       106.000
  23481073.631    14381950.824 8   8583739.50526        72.000
  24443757.849    -8361337.397 7  -4775769.91325        58.000
 96  6  5 19 57 15.0020000  0  6G 6G 4G 5G24G 9G16
  25293091.107   -16735476.372 6   -207509.84122        26.000
  22947478.581    17463327.263 8   9516350.05526        80.000
  21454705.417   -17761243.161 9  -8810538.40129       100.000
  21374432.658    -5500774.474 9  -2028180.29029       108.000
  23490754.019    14432852.738 8   8623403.30126        70.000
  24436935.831    -8397158.648 7  -4803682.52625        56.000
 96  6  5 19 57 30.0020000  0  6G 6G 4G 5G24G 9G16
  25288787.077   -16758121.041 6   -225154.96822        26.000
  22957510.086    17516023.239 8   9557411.84426        80.000
  21453164.963   -17769336.457 9  -8816844.87229       102.000
  21379039.449    -5476560.149 9  -2009311.99029       106.000
  23500460.730    14483830.289 8   8663126.01426        74.000
  24430129.074    -8432956.054 7  -4831576.54625        54.000
 96  6  5 19 57 45.0020000  0  6G 6G 4G 5G24G 9G16
  25284470.545   -16780748.768 6   -242786.86722        30.000
  22967549.536    17568783.386 8   9598523.61726        80.000
  21451647.084   -17777320.661 9  -8823066.31829       100.000
  21383670.133    -5452226.140 9  -1990350.42929       106.000
  23510176.823    14534885.752 8   8702909.43726        72.000
  24423319.498    -8468727.801 7  -4859450.57625        54.000
 96  6  5 19 58  0.0020000  0  6G 6G 4G 5G24G 9G16
  25280163.727   -16803367.332 6   -260411.68323        30.000
  22977600.618    17621602.699 8   9639681.51126        80.000
  21450145.453   -17785200.855 9  -8829206.74129       102.000
  21388319.794    -5427780.554 9  -1971301.92129       106.000
  23519906.977    14586014.225 8   8742749.80226        72.000
  24416519.545    -8504481.299 7  -4887310.42425        54.000
 96  6  5 19 58 15.0020000  0  6G 6G 4G 5G24G 9G16
  25275866.682   -16825972.952 6   -278026.37324        30.000
  22987665.460    17674489.807 8   9680892.23726        80.000
  21448670.444   -17792971.176 9  -8835261.54029       104.000
  21392996.976    -5403219.838 9  -1952163.69629       108.000
  23529648.853    14637220.600 8   8782650.88526        72.000
  24409719.953    -8540212.041 7  -4915152.51125        54.000
 96  6  5 19 58 30.0020000  0  6G 6G 4G 5G24G 9G16
  25271569.936   -16848569.634 6   -295634.11024        32.000
  22997736.328    17727443.914 8   9722155.19526        76.000
  21447210.455   -17800632.564 9  -8841231.45429       104.000
  21397690.347    -5378545.076 9  -1932936.61329       106.000
  23539405.958    14688498.941 8   8822608.01426        72.000
  24402922.728    -8575924.928 7  -4942980.85225        56.000
 96  6  5 19 58 45.0030000  0  6G 6G 4G 5G24G 9G16
  25267266.206   -16871157.799 6   -313235.19225        34.000
  23007827.043    17780469.905 8   9763474.11726        76.000
  21445772.021   -17808184.355 9  -8847115.95929       100.000
  21402411.629    -5353753.136 9  -1913618.22729       108.000
  23549176.854    14739852.591 8   8862623.83726        72.000
  24396130.031    -8611615.172 7  -4970791.40225        54.000
 96  6  5 19 59  0.0030000  0  6G 6G 4G 5G24G 9G16
  25262968.951   -16893736.961 6   -330829.26725        36.000
  23017935.955    17833561.572 8   9804844.22726        76.000
  21444358.260   -17815626.939 9  -8852915.37629       100.000
  21407147.060    -5328850.133 9  -1894213.26829       108.000
  23558961.181    14791270.480 8   8902689.69926        70.000
  24389344.078    -8647276.671 7  -4998579.51825        56.000
 96  6  5 19 59 15.0030000  0  6G 6G 4G 5G24G 9G16
  25258675.923   -16916306.893 6   -348416.13625        36.000
  23028053.410    17886728.306 8   9846272.81826        76.000
  21442963.265   -17822954.777 9  -8858625.38229        98.000
  21411910.643    -5303831.126 9  -1874717.95129       108.000
  23568761.366    14842754.355 8   8942806.92626        70.000
  24382564.512    -8682908.260 7  -5026344.34225        56.000
 96  6  5 19 59 30.0030000  0  6G 6G 4G 5G24G 9G16
  25254380.166   -16938880.529 6   -366005.87325        34.000
  23038183.248    17939959.092 8   9887751.32426        76.000
  21441591.475   -17830172.524 9  -8864249.59829       102.000
  21416689.604    -5278707.633 9  -1855141.19829       108.000
  23578561.791    14894293.591 8   8982967.32726        68.000
  24375785.125    -8718518.717 7  -5054092.68825        56.000
 96  6  5 19 59 45.0030000  0  6G 6G 4G 5G24G 9G16
  25250082.761   -16961452.916 6   -383594.70325        36.000
  23048321.869    17993254.655 8   9929280.30526        76.000
  21440241.150   -17837273.300 9  -8869782.72029       100.000
  21421493.269    -5253476.230 9  -1835480.40929       112.000
  23588389.528    14945889.147 8   9023171.61326        70.000
  24369013.893    -8754102.346 7  -5081820.18625        54.000
 96  6  5 20  0  0.0030000  0  6G 6G 4G 5G24G 9G16
  25245791.652   -16984022.280 6   -401181.06625        36.000
  23058476.649    18046614.364 8   9970859.33426        76.000
  21438907.403   -17844257.098 9  -8875224.60329       100.000
  21426314.561    -5228136.018 9  -1815734.75629       108.000
  23598225.478    14997539.423 8   9063418.61226        74.000
  24362252.434    -8789657.125 7  -5109525.14525        56.000
 96  6  5 20  0 15.0030000  0  6G 6G 4G 5G24G 9G16
  25241497.575   -17006589.688 6   -418765.97625        38.000
  23068641.412    18100033.679 8  10012484.76826        70.000
  21437601.717   -17851129.826 9  -8880579.96529       100.000
  21431154.590    -5202688.420 9  -1795905.44929       106.000
  23608056.303    15049241.068 8   9103705.61126        70.000
  24355487.827    -8825186.230 7  -5137210.14025        56.000
 96  6  5 20  0 30.0030000  0  6G 6G 4G 5G24G 9G16
  25237201.669   -17029149.405 6   -436344.93225        38.000
  23078817.717    18153514.616 8  10054158.23226        74.000
  21436316.897   -17857885.711 9  -8885844.29229       102.000
  21436018.483    -5177126.795 9  -1775987.30329       108.000
  23617904.035    15100999.102 8   9144036.52926        70.000
  24348736.381    -8860686.035 7  -5164872.38025        56.000
 96  6  5 20  0 45.0030000  0  6G 6G 4G 5G24G 9G16
  25232906.542   -17051706.117 6   -453921.49825        38.000
  23089004.335    18207051.075 8  10095874.93526        74.000
  21435055.340   -17864529.070 9  -8891020.93829       102.000
  21440903.961    -5151454.970 9  -1755983.30129       106.000
  23627763.190    15152813.824 8   9184411.56726        68.000
  24341984.964    -8896158.567 7  -5192513.30225        56.000
 96  6  5 20  1  0.0030000  0  6G 6G 4G 5G24G 9G16
  25228614.444   -17074260.787 6   -471496.51825        38.000
  23099206.842    18260646.285 8  10137637.42326        74.000
  21433807.634   -17871058.387 9  -8896108.71029       100.000
  21445809.825    -5125673.252 9  -1735893.63329       106.000
  23637638.054    15204689.862 8   9224834.40126        68.000
  24335240.653    -8931599.998 7  -5220129.92925        58.000
 96  6  5 20  1 15.0030000  0  6G 6G 4G 5G24G 9G16
  25224328.041   -17096812.290 6   -489068.98825        40.000
  23109416.304    18314300.033 8  10179445.49926        76.000
  21432588.198   -17877474.324 9  -8901108.16029       100.000
  21450735.595    -5099782.586 9  -1715719.09029       108.000
  23647507.551    15256630.658 7   9265307.73026        62.000
  24328504.317    -8967015.133 7  -5247726.12225        60.000
 96  6  5 20  1 30.0030000  0  6G 6G 4G 5G24G 9G16
  25220038.371   -17119357.862 6   -506636.85525        38.000
  23119633.531    18368008.254 8  10221296.03926        74.000
  21431389.478   -17883776.400 9  -8906018.87229        98.000
  21455685.858    -5073781.080 9  -1695458.18129       106.000
  23657421.328    15308638.898 8   9305833.60726        70.000
  24321766.062    -9002402.204 7  -5275300.43926        60.000
 96  6  5 20  1 45.0030000  0  6G 6G 4G 5G24G 9G16
  25215750.709   -17141893.473 6   -524196.96525        40.000
  23129866.047    18421769.677 8  10263188.04726        76.000
  21430210.754   -17889968.040 9  -8910843.53129       100.000
  21460653.599    -5047669.410 9  -1675111.43329       106.000
  23667329.499    15360716.861 8   9346413.83526        68.000
  24315036.261    -9037760.760 7  -5302852.51726        58.000
 96  6  5 20  2  0.0030000  0  6G 6G 4G 5G24G 9G16
  25211456.902   -17164417.840 7   -541748.36325        42.000
  23140103.600    18475585.733 8  10305122.62926        72.000
  21429052.596   -17896054.361 9  -8915586.11029       100.000
  21465645.173    -5021447.939 9  -1654679.11029       108.000
  23677258.055    15412864.833 8   9387048.60326        72.000
  24308314.584    -9073090.053 7  -5330381.84625        60.000
 96  6  5 20  2 15.0030000  0  6G 6G 4G 5G24G 9G16
  25207174.966   -17186934.956 6   -559294.09825        40.000
  23150355.452    18529455.785 8  10347099.29326        72.000
  21427914.523   -17902040.901 9  -8920250.94929       100.000
  21470653.146    -4995118.104 9  -1634162.35729       106.000
  23687184.304    15465082.169 8   9427737.36826        68.000
  24301593.657    -9108395.363 7  -5357892.52025        58.000
 96  6  5 20  2 30.0030000  0  6G 6G 4G 5G24G 9G16
  25202892.161   -17209439.141 6   -576829.75925        38.000
  23160620.286    18583384.178 8  10389121.40826        72.000
  21426799.176   -17907919.381 9  -8924831.57929       102.000
  21475684.833    -4968673.438 9  -1613556.13329       106.000
  23697139.332    15517375.307 8   9468485.20026        70.000
  24294883.162    -9143671.965 7  -5385380.75225        58.000
 96  6  5 20  2 45.0030000  0  6G 6G 4G 5G24G 9G16
  25198610.615   -17231934.817 6   -594358.76225        40.000
  23170894.414    18637369.302 8  10431187.75226        74.000
  21425698.218   -17913693.380 9  -8929330.79029       102.000
  21480736.995    -4942119.026 9  -1592864.37329       106.000
  23707103.384    15569740.455 8   9509289.22226        70.000
  24288175.066    -9178920.374 7  -5412846.97625        58.000
 96  6  5 20  3  0.0030000  0  6G 6G 4G 5G24G 9G16
  25194334.015   -17254417.063 6   -611877.32225        36.000
  23181182.931    18691418.655 8  10473304.06526        78.000
  21424622.083   -17919359.128 9  -8933745.70629       100.000
  21485815.929    -4915448.983 9  -1572082.54329       110.000
  23717083.984    15622177.165 8   9550148.96426        70.000
  24281472.876    -9214134.808 7  -5440286.79926        58.000
 96  6  5 20  3 15.0030000  0  6G 6G 4G 5G24G 9G16
  25190061.164   -17276883.944 6   -629383.85324        38.000
  23191478.973    18745530.135 8  10515468.84126        78.000
  21423560.877   -17924918.943 9  -8938078.01129        98.000
  21490912.221    -4888663.672 9  -1551210.85429       106.000
  23727076.397    15674679.970 8   9591060.23826        72.000
  24274780.879    -9249316.411 7  -5467700.98226        60.000
 96  6  5 20  3 30.0030000  0  6G 6G 4G 5G24G 9G16
  25185786.243   -17299332.184 6   -646875.89724        38.000
  23201783.500    18799702.756 8  10557681.25026        76.000
  21422522.366   -17930369.756 9  -8942325.38629        98.000
  21496030.608    -4861759.059 9  -1530246.23229       106.000
  23737082.060    15727247.312 8   9632021.78726        72.000
  24268093.648    -9284463.167 7  -5495088.04826        58.000
 96  6  5 20  3 45.0030000  0  6G 6G 4G 5G24G 9G16
  25181519.867   -17321762.788 6   -664354.22424        36.000
  23212106.613    18853937.702 8  10599942.26126        76.000
  21421504.931   -17935708.782 9  -8946485.66529       100.000
  21501173.128    -4834733.814 9  -1509187.60529       106.000
  23747091.591    15779875.790 8   9673030.95726        72.000
  24261408.217    -9319573.788 7  -5522446.95526        58.000
 96  6  5 20  4  0.0030000  0  6G 6G 4G 5G24G 9G16
  25177254.689   -17344180.872 6   -681822.76825        36.000
  23222438.121    18908234.305 8  10642251.30626        76.000
  21420512.408   -17940940.121 9  -8950562.04329       100.000
  21506338.132    -4807593.338 9  -1488039.18129       104.000
  23757116.471    15832560.306 8   9714083.73326        72.000
  24254734.267    -9354654.411 7  -5549782.54326        56.000
 96  6  5 20  4 15.0030000  0  6G 6G 4G 5G24G 9G16
  25172994.249   -17366587.557 6   -699282.47325        36.000
  23232784.228    18962592.901 8  10684608.65026        76.000
  21419536.943   -17946060.079 9  -8954551.61929       100.000
  21511528.019    -4780335.592 9  -1466799.37729       106.000
  23767157.299    15885299.214 8   9755178.97126        72.000
  24248065.234    -9389706.987 7  -5577096.19626        54.000
 96  6  5 20  4 30.0030000  0  6G 6G 4G 5G24G 9G16
  25168725.384   -17388978.723 6   -716730.03725        36.000
  23243136.062    19017014.234 8  10727014.87926        76.000
  21418585.852   -17951062.445 9  -8958449.56129        98.000
  21516736.793    -4752958.464 9  -1445466.54429       106.000
  23777198.938    15938094.396 8   9796318.08126        72.000
  24241400.098    -9424729.543 7  -5604386.45226        56.000
 96  6  5 20  4 45.0030000  0  6G 6G 4G 5G24G 9G16
  25164474.927   -17411357.306 6   -734167.85125        38.000
  23253498.478    19071493.413 8  10769466.14326        76.000
  21417654.966   -17955948.351 9  -8962256.80029        96.000
  21521965.383    -4725470.823 9  -1424047.62929       102.000
  23787255.925    15990940.526 8   9837496.85926        72.000
  24234742.817    -9459725.258 7  -5631655.81526        56.000
 96  6  5 20  5  0.0030000  0  6G 6G 4G 5G24G 9G16
  25160211.188   -17433721.507 6   -751594.40125        36.000
  23263882.269    19126032.182 8  10811963.87026        80.000
  21416747.134   -17960715.252 9  -8965971.25329       100.000
  21527215.799    -4697872.419 9  -1402542.36129       100.000
  23797319.179    16043838.953 8   9878716.41126        68.000
  24228087.424    -9494691.815 7  -5658902.40726        58.000
 96  6  5 20  5 15.0030000  0  6G 6G 4G 5G24G 9G16
  25155958.512   -17456071.865 6   -769010.19425        36.000
  23274270.168    19180625.612 8  10854504.20026        76.000
  21415863.676   -17965362.267 9  -8969592.28729        98.000
  21532494.694    -4670164.664 9  -1380951.91729       104.000
  23807397.542    16096789.739 8   9919976.73526        70.000
  24221438.657    -9529630.946 7  -5686127.70426        58.000
 96  6  5 20  5 30.0030000  0  6G 6G 4G 5G24G 9G16
  25151713.121   -17478414.090 6   -786419.57324        36.000
  23284665.771    19235267.237 8  10897082.06826        72.000
  21415005.460   -17969889.568 9  -8973120.07229       100.000
  21537785.761    -4642354.634 9  -1359281.77329       106.000
  23817480.551    16149793.305 8   9961278.15525        66.000
  24214792.828    -9564546.411 7  -5713334.52726        58.000
 96  6  5 20  5 45.0030000  0  6G 6G 4G 5G24G 9G16
  25147461.914   -17500751.661 6   -803825.34724        38.000
  23295074.476    19289958.395 8  10939698.55926        72.000
  21414164.692   -17974296.783 9  -8976554.25629        98.000
  21543094.186    -4614444.767 9  -1337533.81629       104.000
  23827579.930    16202849.328 8  10002620.45025        70.000
  24208153.744    -9599439.852 7  -5740524.22326        60.000
 96  6  5 20  6  0.0030000  0  6G 6G 4G 5G24G 9G16
  25143206.121   -17523082.847 6   -821226.23024        40.000
  23305492.473    19344701.745 8  10982355.69226        72.000
  21413346.409   -17978583.718 9  -8979894.75129        98.000
  21548421.918    -4586435.069 9  -1315708.09529       102.000
  23837685.064    16255960.993 8  10044006.13425        68.000
  24201519.487    -9634309.799 7  -5767695.61926        62.000
 96  6  5 20  6 15.0030000  0  6G 6G 4G 5G24G 9G16
  25138964.807   -17545402.197 6   -838617.83625        40.000
  23315923.662    19399500.984 8  11025056.41126        72.000
  21412554.987   -17982744.474 9  -8983136.88429       100.000
  21553772.404    -4558319.196 9  -1293799.60529       102.000
  23847810.404    16309134.100 8  10085439.74125        72.000
  24194888.257    -9669149.050 8  -5794843.05026        64.000
 96  6  5 20  6 30.0030000  0  6G 6G 4G 5G24G 9G16
  25134717.407   -17567717.325 6   -856006.23425        38.000
  23326361.566    19454346.909 8  11067793.48626        74.000
  21411790.066   -17986784.417 9  -8986284.90829       102.000
  21559146.244    -4530104.612 9  -1271814.23629       104.000
  23857939.882    16362362.072 8  10126916.06625        68.000
  24188265.392    -9703961.889 7  -5821969.90426        62.000
 96  6  5 20  6 45.0030000  0  6G 6G 4G 5G24G 9G16
  25130467.969   -17590029.411 6   -873392.18325        34.000
  23336800.549    19509236.642 8  11110564.68126        72.000
  21411039.746   -17990704.828 9  -8989339.75429       102.000
  21564530.336    -4501794.205 9  -1249754.17429       102.000
  23868078.143    16415645.336 8  10168435.46925        70.000
  24181643.996    -9738744.964 7  -5849073.54926        62.000
 96  6  5 20  7  0.0030000  0  6G 6G 4G 5G24G 9G16
  25126220.210   -17612337.485 6   -890774.99325        34.000
  23347259.798    19564174.063 8  11153373.06426        76.000
  21410318.895   -17994505.446 9  -8992301.25629       106.000
  21569937.483    -4473383.095 9  -1227615.62629       102.000
  23878222.700    16468986.245 8  10209999.77425        66.000
  24175034.952    -9773495.303 7  -5876151.66926        62.000
 96  6  5 20  7 15.0030000  0  6G 6G 4G 5G24G 9G16
  25121979.555   -17634639.862 6   -908153.47025        34.000
  23357723.425    19619159.466 8  11196218.77226        74.000
  21409618.190   -17998190.333 9  -8995172.63629       102.000
  21575361.868    -4444867.036 9  -1205395.35829       100.000
  23888384.526    16522383.822 8  10251608.20425        68.000
  24168427.466    -9808210.459 8  -5903202.42326        66.000
 96  6  5 20  7 30.0030000  0  6G 6G 4G 5G24G 9G16
  25117734.224   -17656937.049 6   -925527.73724        34.000
  23368195.805    19674193.504 8  11239102.43926        72.000
  21408935.502   -18001760.479 9  -8997954.56829       104.000
  21580811.375    -4416246.420 9  -1183093.59029       104.000
  23898552.916    16575835.486 8  10293258.82125        64.000
  24161827.475    -9842891.884 8  -5930226.92625        66.000
 96  6  5 20  7 45.0030000  0  6G 6G 4G 5G24G 9G16
  25113495.609   -17679221.927 6   -942892.37824        32.000
  23378679.757    19729285.159 8  11282030.96526        70.000
  21408282.225   -18005211.339 9  -9000643.56329       104.000
  21586278.480    -4387514.618 9  -1160705.17329       104.000
  23908736.746    16629344.165 8  10334953.89125        66.000
  24155230.452    -9877534.900 8  -5957221.53725        66.000
 96  6  5 20  8  0.0030000  0  6G 6G 4G 5G24G 9G16
  25109257.053   -17701494.506 6   -960247.59824        36.000
  23389172.403    19784430.803 8  11325001.59526        70.000
  21407643.907   -18008546.646 9  -9003242.52029       104.000
  21591768.250    -4358671.969 9  -1138230.39129       104.000
  23918929.300    16682905.505 8  10376689.99525        64.000
  24148647.939    -9912141.097 8  -5984187.40025        66.000
 96  6  5 20  8 15.0030000  0  6G 6G 4G 5G24G 9G16
  25105022.095   -17723759.356 6   -977596.79625        34.000
  23399680.638    19839622.933 8  11368008.45426        70.000
  21407030.651   -18011769.365 9  -9005753.71429       104.000
  21597275.287    -4329725.801 9  -1115674.92829       104.000
  23929131.447    16736513.403 7  10418462.39525        60.000
  24142067.375    -9946714.190 8  -6011127.40225        66.000
 96  6  5 20  8 30.0030000  0  6G 6G 4G 5G24G 9G16
  25100789.145   -17746012.877 6   -994937.12125        34.000
  23410186.655    19894867.077 8  11411055.82726        68.000
  21406442.938   -18014876.268 9  -9008174.67329       106.000
  21602803.940    -4300671.383 9  -1093035.13229       104.000
  23939343.937    16790173.560 7  10460275.42425        62.000
  24135496.613    -9981247.088 8  -6038036.11326        64.000
 96  6  5 20  8 45.0030000  0  6G 6G 4G 5G24G 9G16
  25096552.448   -17768251.537 6  -1012265.88425        32.000
  23420710.390    19950164.808 8  11454144.94426        68.000
  21405873.752   -18017866.973 9  -9010505.08929       106.000
  21608354.148    -4271507.810 9  -1070310.25529       106.000
  23949565.451    16843889.234 8  10502131.74825        64.000
  24128933.017   -10015735.954 8  -6064910.50726        68.000
 96  6  5 20  9  0.0030000  0  6G 6G 4G 5G24G 9G16
  25092324.175   -17790478.174 6  -1029585.28725        34.000
  23431245.216    20005512.824 8  11497273.21826        66.000
  21405324.082   -18020746.181 9  -9012748.64029       104.000
  21613922.853    -4242236.287 9  -1047501.28729       108.000
  23959792.301    16897655.506 7  10544027.49425        62.000
  24122380.513   -10050185.548 8  -6091754.33426        70.000
 96  6  5 20  9 15.0030000  0  6G 6G 4G 5G24G 9G16
  25088096.082   -17812688.873 6  -1046892.20425        34.000
  23441786.249    20060916.859 8  11540445.19026        64.000
  21404798.127   -18023509.694 9  -9014901.98529       104.000
  21619515.841    -4212850.223 9  -1024603.03429       106.000
  23970036.839    16951475.218 8  10585964.95425        64.000
  24115831.157   -10084592.251 8  -6118564.76225        72.000
 96  6  5 20  9 30.0030000  0  6G 6G 4G 5G24G 9G16
  25083873.086   -17834886.563 6  -1064188.95524        34.000
  23452337.055    20116373.574 8  11583658.17326        64.000
  21404294.745   -18026156.559 9  -9016964.53029       104.000
  21625129.275    -4183353.372 9  -1001618.51529       104.000
  23980290.850    17005345.504 8  10627941.75425        64.000
  24109292.984   -10118957.294 8  -6145342.76125        70.000
 96  6  5 20  9 45.0030000  0  6G 6G 4G 5G24G 9G16
  25079649.070   -17857077.961 6  -1081480.91824        34.000
  23462900.482    20171878.236 8  11626908.55725        64.000
  21403814.508   -18028687.383 9  -9018936.60229       104.000
  21630762.585    -4153751.112 9   -978551.82729       106.000
  23990551.877    17059263.462 8  10669955.75425        64.000
  24102761.555   -10153284.217 8  -6172091.00025        70.000
 96  6  5 20 10  0.0030000  0  6G 6G 4G 5G24G 9G16
  25075433.659   -17879264.016 6  -1098768.60124        36.000
  23473467.447    20227429.494 7  11670195.25826        62.000
  21403350.519   -18031104.083 9  -9020819.72329       102.000
  21636416.101    -4124042.360 9   -955402.13129       108.000
  24000820.698    17113229.862 8  10712007.45025        64.000
  24096235.853   -10187570.137 8  -6198807.23326        66.000
 96  6  5 20 10 15.0030000  0  6G 6G 4G 5G24G 9G16
  25071210.722   -17901442.069 6  -1116050.17825        36.000
  23484057.255    20283030.676 7  11713520.86626        62.000
  21402916.269   -18033401.092 9  -9022609.61429       104.000
  21642093.420    -4094223.699 9   -932166.82629       108.000
  24011099.592    17167248.574 8  10754099.88625        66.000
  24089721.663   -10221806.760 8  -6225485.09826        68.000
 96  6  5 20 10 30.0030000  0  6G 6G 4G 5G24G 9G16
  25066993.751   -17923614.516 6  -1133327.34025        40.000
  23494642.148    20338683.834 8  11756886.92625        64.000
  21402501.866   -18035581.905 9  -9024308.94829       106.000
  21647783.991    -4064295.503 9   -908846.15329       106.000
  24021381.514    17221319.977 7  10796233.40625        62.000
  24083216.556   -10255992.308 8  -6252123.14126        68.000
 96  6  5 20 10 45.0030000  0  6G 6G 4G 5G24G 9G16
  25062771.654   -17945783.363 6  -1150601.69225        38.000
  23505240.860    20394383.265 7  11800289.05125        62.000
  21402108.089   -18037650.789 9  -9025921.07429       106.000
  21653498.155    -4034261.195 9   -885442.80429       104.000
  24031688.498    17275438.538 8  10838403.69625        66.000
  24076717.475   -10290130.476 8  -6278724.29326        66.000
 96  6  5 20 11  0.0030000  0  6G 6G 4G 5G24G 9G16
  25058554.234   -17967944.609 6  -1167870.06424        34.000
  23515853.064    20450130.313 8  11843728.28425        66.000
  21401737.605   -18039603.698 9  -9027442.81029       104.000
  21659237.352    -4004118.500 9   -861954.97129       108.000
  24041998.061    17329603.537 8  10880610.19525        66.000
  24070230.446   -10324220.047 8  -6305287.59326        68.000
 96  6  5 20 11 15.0030000  0  6G 6G 4G 5G24G 9G16
  25054339.242   -17990103.686 6  -1185136.81024        36.000
  23526471.743    20505923.403 8  11887203.37625        64.000
  21401385.379   -18041443.133 9  -9028876.16829       104.000
  21664991.299    -3973873.531 9   -838387.50329       108.000
  24052313.590    17383811.247 8  10922849.92925        66.000
  24063752.591   -10358266.124 8  -6331817.04826        64.000
 96  6  5 20 11 30.0030000  0  6G 6G 4G 5G24G 9G16
  25050119.513   -18012257.951 6  -1202399.72924        36.000
  23537091.201    20561766.645 8  11930717.58125        64.000
  21401056.147   -18043165.092 9  -9030217.95429       104.000
  21670766.381    -3943528.444 9   -814741.97829       106.000
  24062631.517    17438064.517 8  10965125.18025        64.000
  24057284.508   -10392264.904 8  -6358309.55826        66.000
 96  6  5 20 11 45.0030000  0  6G 6G 4G 5G24G 9G16
  25045906.320   -18034406.480 6  -1219658.27024        36.000
  23547731.135    20617656.546 8  11974268.17525        64.000
  21400753.417   -18044771.544 9  -9031469.70629       106.000
  21676559.720    -3913088.034 9   -791022.15929       110.000
  24072968.751    17492361.172 8  11007434.22525        64.000
  24050823.112   -10426217.950 8  -6384766.40026        64.000
 96  6  5 20 12  0.0030000  0  6G 6G 4G 5G24G 9G16
  25041690.788   -18056550.744 6  -1236913.52625        38.000
  23558370.290    20673589.521 7  12017852.28525        60.000
  21400468.074   -18046266.722 9  -9032634.80429       106.000
  21682368.199    -3882555.918 9   -767230.92929       108.000
  24083299.958    17546698.628 7  11049775.02225        62.000
  24044373.137   -10460128.338 8  -6411190.06626        66.000
 96  6  5 20 12 15.0030000  0  6G 6G 4G 5G24G 9G16
  25037477.355   -18078687.751 6  -1254163.05925        36.000
  23569025.333    20729568.329 7  12061472.14025        60.000
  21400209.173   -18047647.690 9  -9033710.90029       108.000
  21688194.485    -3851932.309 9   -743368.37729       110.000
  24093657.368    17601077.810 8  11092148.40225        66.000
  24037926.820   -10493993.221 8  -6437578.25126        64.000
 96  6  5 20 12 30.0030000  0  6G 6G 4G 5G24G 9G16
  25033268.239   -18100818.289 6  -1271407.51724        38.000
  23579686.103    20785589.246 7  12105124.77225        60.000
  21399963.853   -18048915.493 9  -9034698.78129       104.000
  21694041.877    -3821222.324 9   -719438.50129       108.000
  24104010.761    17655496.981 8  11134552.97625        64.000
  24031487.787   -10527816.122 7  -6463933.69226        62.000
 96  6  5 20 12 45.0030000  0  6G 6G 4G 5G24G 9G16
  25029064.909   -18122933.396 6  -1288639.99524        40.000
  23590356.286    20841657.677 7  12148814.38925        62.000
  21399746.324   -18050063.413 9  -9035593.29029       108.000
  21699900.661    -3790418.840 9   -695435.81229       108.000
  24114375.455    17709964.606 8  11176995.23425        64.000
  24025059.847   -10561592.646 8  -6490253.07826        64.000
 96  6  5 20 13  0.0030000  0  6G 6G 4G 5G24G 9G16
  25024850.277   -18145037.651 6  -1305863.99924        38.000
  23601033.514    20897766.010 7  12192535.17625        60.000
  21399549.990   -18051094.067 9  -9036396.38429       106.000
  21705779.082    -3759526.534 9   -671363.88429       108.000
  24124747.795    17764473.663 7  11219469.82225        62.000
  24018642.880   -10595330.401 8  -6516542.24026        66.000
 96  6  5 20 13 15.0030000  0  6G 6G 4G 5G24G 9G16
  25020649.165   -18167131.817 7  -1323080.09824        42.000
  23611722.135    20953918.933 8  12236290.69125        64.000
  21399377.669   -18052004.232 9  -9037105.61329       104.000
  21711676.299    -3728542.793 9   -647220.72529       108.000
  24135132.426    17819029.012 8  11261980.38225        66.000
  24012229.030   -10629026.315 8  -6542798.80626        66.000
 96  6  5 20 13 30.0030000  0  6G 6G 4G 5G24G 9G16
  25016447.244   -18189217.362 6  -1340289.51024        40.000
  23622412.404    21010114.102 7  12280079.14225        62.000
  21399227.683   -18052793.667 9  -9037720.75929       104.000
  21717593.993    -3697468.033 9   -623006.63129       110.000
  24145522.303    17873629.320 7  11304526.02025        60.000
  24005825.103   -10662682.330 8  -6569024.23126        68.000
 96  6  5 20 13 45.0030000  0  6G 6G 4G 5G24G 9G16
  25012247.631   -18211291.193 6  -1357489.87525        40.000
  23633113.886    21066349.615 7  12323899.01625        62.000
  21399098.982   -18053460.555 9  -9038240.42129       104.000
  21723522.598    -3666297.816 9   -598718.15629       112.000
  24155915.028    17928273.721 7  11347106.08225        60.000
  23999426.033   -10696295.906 8  -6595216.59126        66.000
 96  6  5 20 14  0.0030000  0  6G 6G 4G 5G24G 9G16
  25008052.426   -18233349.147 6  -1374677.84125        40.000
  23643822.322    21122631.997 7  12367755.41225        62.000
  21398996.603   -18053997.594 9  -9038658.89729       102.000
  21729471.320    -3635023.388 9   -574348.46429       108.000
  24166334.465    17982969.547 8  11389726.19725        64.000
  23993038.985   -10729858.387 8  -6621369.13226        66.000
 96  6  5 20 14 15.0030000  0  6G 6G 4G 5G24G 9G16
  25003849.335   -18255403.282 6  -1391862.78625        36.000
  23654541.791    21178954.524 7  12411643.09025        62.000
  21398917.817   -18054413.477 9  -9038982.96829       102.000
  21735442.946    -3603650.795 9   -549902.29929       108.000
  24176739.931    18037706.609 7  11432378.42425        62.000
  23986662.399   -10763377.431 8  -6647487.83126        66.000
 96  6  5 20 14 30.0030000  0  6G 6G 4G 5G24G 9G16
  24999657.907   -18277446.652 6  -1409039.39524        36.000
  23665268.545    21235325.169 7  12455568.20525        62.000
  21398863.435   -18054701.310 9  -9039207.27629       106.000
  21741434.898    -3572174.662 9   -525375.45229       108.000
  24187165.274    18092492.767 7  11475068.90125        62.000
  23980297.116   -10796844.508 8  -6673566.09126        68.000
 96  6  5 20 14 45.0030000  0  6G 6G 4G 5G24G 9G16
  24995465.519   -18299486.432 6  -1426213.13724        34.000
  23675996.679    21291735.381 7  12499524.18025        58.000
  21398830.758   -18054868.192 9  -9039337.30429       104.000
  21747440.670    -3540599.323 9   -500771.29129       110.000
  24197604.737    18147320.567 7  11517791.80025        62.000
  23973935.010   -10830269.619 8  -6699611.64026        68.000
 96  6  5 20 15  0.0030000  0  6G 6G 4G 5G24G 9G16
  24991276.190   -18321519.971 6  -1443381.92324        32.000
  23686747.476    21348192.347 7  12543516.60225        62.000
  21398821.764   -18054909.950 9  -9039369.85129       104.000
  21753464.430    -3508920.118 9   -476086.20129       106.000
  24208042.521    18202192.835 8  11560549.36625        64.000
  23967581.389   -10863647.589 8  -6725620.44026        70.000
 96  6  5 20 15 15.0030000  0  6G 6G 4G 5G24G 9G16
  24987081.553   -18343548.005 6  -1460546.54724        32.000
  23697496.265    21404698.773 7  12587547.58825        62.000
  21398842.210   -18054822.102 9  -9039301.39329       102.000
  21759519.548    -3477136.405 9   -451319.67329       108.000
  24218494.275    18257111.139 8  11603342.82425        64.000
  23961241.168   -10896975.669 8  -6751590.33926        70.000
 96  6  5 20 15 30.0030000  0  6G 6G 4G 5G24G 9G16
  24982883.110   -18365572.578 6  -1477708.47724        30.000
  23708262.981    21461251.927 8  12631614.98025        64.000
  21398881.273   -18054608.790 9  -9039135.18329       102.000
  21765585.129    -3445252.531 9   -426475.09929       108.000
  24228951.696    18312072.667 7  11646169.99725        60.000
  23954909.731   -10930257.408 8  -6777524.11926        70.000
 96  6  5 20 15 45.0030000  0  6G 6G 4G 5G24G 9G16
  24978697.078   -18387589.787 6  -1494864.69624        30.000
  23719034.884    21517852.743 8  12675719.52525        66.000
  21398942.580   -18054269.576 9  -9038870.87929       100.000
  21771670.496    -3413267.404 9   -401551.62829       108.000
  24239423.626    18367076.550 8  11689030.15325        64.000
  23948581.172   -10963491.084 8  -6803420.46026        72.000
 96  6  5 20 16  0.0030000  0  6G 6G 4G 5G24G 9G16
  24974509.817   -18409603.204 6  -1512017.96525        32.000
  23729806.697    21574499.494 7  12719859.83225        62.000
  21399030.300   -18053808.052 9  -9038511.24029       100.000
  21777778.348    -3381185.974 9   -376553.12829       112.000
  24249895.946    18422120.866 7  11731921.81325        62.000
  23942268.113   -10996674.334 8  -6829277.52926        70.000
 96  6  5 20 16 15.0030000  0  6G 6G 4G 5G24G 9G16
  24970318.748   -18431609.070 6  -1529165.33525        32.000
  23740597.277    21631197.659 8  12764040.22725        64.000
  21399146.349   -18053222.388 9  -9038054.86329       102.000
  21783903.138    -3349003.240 9   -351475.66029       110.000
  24260373.693    18477209.540 7  11774848.00025        60.000
  23935962.908   -11029805.770 8  -6855094.22326        72.000
 96  6  5 20 16 30.0030000  0  6G 6G 4G 5G24G 9G16
  24966136.943   -18453604.977 6  -1546304.97825        32.000
  23751398.859    21687944.350 8  12808258.35425        64.000
  21399275.170   -18052514.981 9  -9037503.64629       100.000
  21790042.827    -3316722.132 9   -326321.56029       110.000
  24270870.506    18532340.003 7  11817806.70225        62.000
  23929668.735   -11062888.899 8  -6880873.31026        72.000
 96  6  5 20 16 45.0030000  0  6G 6G 4G 5G24G 9G16
  24961947.613   -18475592.503 6  -1563438.06624        30.000
  23762204.248    21744732.888 7  12852509.11725        62.000
  21399436.698   -18051689.297 9  -9036860.26529       102.000
  21796201.434    -3284347.174 9   -301094.32729       108.000
  24281368.728    18587509.117 7  11860795.61425        60.000
  23923383.256   -11095928.913 8  -6906618.75526        74.000
 96  6  5 20 17  0.0030000  0  6G 6G 4G 5G24G 9G16
  24957769.766   -18497570.800 6  -1580564.09923        34.000
  23773016.893    21801562.768 8  12896792.14125        64.000
  21399615.524   -18050744.767 9  -9036124.28329       100.000
  21802385.642    -3251874.055 9   -275790.62629       110.000
  24291869.199    18642716.329 7  11903814.19225        62.000
  23917102.125   -11128924.739 8  -6932329.76926        74.000
 96  6  5 20 17 15.0030000  0  6G 6G 4G 5G24G 9G16
  24953579.177   -18519566.981 6  -1597704.02323        34.000
  23783841.439    21858408.080 8  12941087.18525        64.000
  21399813.118   -18049706.091 9  -9035314.91829       102.000
  21808575.158    -3219329.119 9   -250430.93129       108.000
  24302378.753    18697935.628 7  11946842.21325        62.000
  23910827.918   -11161899.081 8  -6958024.00326        74.000
 96  6  5 20 17 30.0030000  0  6G 6G 4G 5G24G 9G16
  24949390.626   -18541583.526 6  -1614859.72623        36.000
  23794660.859    21915261.243 8  12985388.34725        64.000
  21400027.769   -18048576.717 9  -9034434.90429       104.000
  21814781.161    -3186716.685 9   -225018.64829       108.000
  24312892.175    18753161.443 7  11989875.29825        60.000
  23904553.352   -11194855.522 8  -6983704.34126        74.000
 96  6  5 20 17 45.0030000  0  6G 6G 4G 5G24G 9G16
  24945215.507   -18563587.792 6  -1632005.86223        38.000
  23805477.371    21972154.517 8  13029720.77525        64.000
  21400265.085   -18047325.164 9  -9033459.66229       102.000
  21821006.711    -3154004.258 9   -199528.44529       110.000
  24323404.487    18808425.129 7  12032937.85525        60.000
  23898296.624   -11227757.276 8  -7009342.06226        74.000
 96  6  5 20 18  0.0030000  0  6G 6G 4G 5G24G 9G16
  24941016.134   -18585587.962 6  -1649148.81424        34.000
  23816317.656    22029082.530 8  13074080.21825        64.000
  21400525.784   -18045954.336 9  -9032391.48729       106.000
  21827251.658    -3121195.490 9   -173963.17829       110.000
  24333926.333    18863721.747 7  12076026.08725        58.000
  23892046.460   -11260607.282 8  -7034939.48226        72.000
 96  6  5 20 18 15.0030000  0  6G 6G 4G 5G24G 9G16
  24936832.830   -18607580.776 6  -1666286.00524        34.000
  23827158.302    22086047.516 8  13118468.48825        66.000
  21400811.277   -18044461.062 9  -9031227.91029       102.000
  21833510.785    -3088286.146 9   -148319.52829       108.000
  24344454.265    18919054.970 7  12119142.84825        56.000
  23885805.111   -11293404.414 8  -7060495.66826        74.000
 96  6  5 20 18 30.0030000  0  6G 6G 4G 5G24G 9G16
  24932644.819   -18629569.464 6  -1683420.03224        34.000
  23837999.756    22143043.077 8  13162880.59325        64.000
  21401121.322   -18042844.831 9  -9029968.50429       104.000
  21839791.527    -3055279.183 9   -122599.82029       106.000
  24354993.229    18974421.679 7  12162285.70025        58.000
  23879571.527   -11326155.004 8  -7086015.57326        76.000
 96  6  5 20 18 45.0030000  0  6G 6G 4G 5G24G 9G16
  24928467.151   -18651553.522 6  -1700550.48724        34.000
  23848850.804    22200067.992 7  13207315.57925        60.000
  21401448.575   -18041101.014 9  -9028609.70529       102.000
  21846094.603    -3022178.372 9    -96806.99529       110.000
  24365534.052    19029823.874 7  12205456.25225        60.000
  23873350.713   -11358853.673 8  -7111495.03326        74.000
 96  6  5 20 19  0.0030000  0  6G 6G 4G 5G24G 9G16
  24924284.087   -18673530.279 6  -1717675.29124        36.000
  23859709.497    22257125.591 7  13251776.01125        62.000
  21401809.406   -18039223.695 9  -9027146.87029       102.000
  21852409.672    -2988978.882 9    -70937.28029       108.000
  24376091.333    19085265.645 7  12248657.60725        60.000
  23867137.814   -11391494.276 8  -7136929.23526        74.000
 96  6  5 20 19 15.0030000  0  6G 6G 4G 5G24G 9G16
  24920106.599   -18695498.868 7  -1734793.60824        42.000
  23870575.325    22314217.832 7  13296263.48825        60.000
  21402190.472   -18037212.211 9  -9025579.45229       104.000
  21858748.933    -2955682.747 9    -44992.21229       110.000
  24386641.569    19140744.482 7  12291887.85525        58.000
  23860937.417   -11424074.734 8  -7162316.57626        74.000
 96  6  5 20 19 30.0030000  0  6G 6G 4G 5G24G 9G16
  24915925.694   -18717457.142 6  -1751903.93324        40.000
  23881447.298    22371344.245 7  13340777.56525        60.000
  21402600.888   -18035067.946 9  -9023908.60929       102.000
  21865102.285    -2922295.444 9    -18976.15129       114.000
  24397201.069    19196258.506 7  12335145.43125        56.000
  23854749.221   -11456594.880 8  -7187656.94726        76.000
 96  6  5 20 19 45.0030000  0  6G 6G 4G 5G24G 9G16
  24911755.491   -18739402.333 6  -1769004.00625        38.000
  23892327.996    22428504.631 8  13385318.11325        64.000
  21403029.921   -18032791.307 9  -9022134.61529       102.000
  21871470.386    -2888817.523 9      7110.53729       112.000
  24407776.998    19251809.380 7  12378431.75825        56.000
  23848576.944   -11489053.263 8  -7212949.21826        74.000
 96  6  5 20 20  0.0030000  0  6G 6G 4G 5G24G 9G16
  24907569.698   -18761343.019 6  -1786100.62725        36.000
  23903210.552    22485692.674 8  13429880.15325        64.000
  21403490.372   -18030389.174 9  -9020262.84229       104.000
  21877857.285    -2855254.568 9     33263.47129       110.000
  24418350.348    19307392.185 7  12421743.06125        58.000
  23842405.986   -11521458.340 8  -7238199.92026        74.000
 96  6  5 20 20 15.0030000  0  6G 6G 4G 5G24G 9G16
  24903398.116   -18783272.138 6  -1803188.16525        36.000
  23914096.106    22542912.441 7  13474466.96025        62.000
  21403970.909   -18027857.907 9  -9018290.41529       104.000
  21884261.601    -2821602.428 9     59485.93529       110.000
  24428936.439    19363009.388 7  12465081.15225        58.000
  23836252.626   -11553809.270 8  -7263408.40326        74.000
 96  6  5 20 20 30.0030000  0  6G 6G 4G 5G24G 9G16
  24899238.256   -18805158.711 6  -1820242.62725        40.000
  23924994.911    22600191.463 7  13519099.96125        60.000
  21404481.846   -18025170.760 9  -9016196.54529       104.000
  21890687.293    -2787834.985 9     85798.21529       110.000
  24439533.743    19418686.913 7  12508466.20925        58.000
  23830109.758   -11586076.326 8  -7288551.53626        72.000
 96  6  5 20 20 45.0030000  0  6G 6G 4G 5G24G 9G16
  24895086.370   -18826991.814 6  -1837255.44625        38.000
  23935907.326    22657542.375 7  13563788.96925        58.000
  21405022.911   -18022318.461 9  -9013973.98229       104.000
  21897136.098    -2753942.880 9    112207.65129       110.000
  24450146.456    19474434.806 7  12551906.09125        58.000
  23823986.048   -11618246.706 8  -7313619.34126        70.000
 96  6  5 20 21  0.0030000  0  6G 6G 4G 5G24G 9G16
  24890928.968   -18848809.537 6  -1854256.33525        40.000
  23946831.044    22714930.898 7  13608507.32725        58.000
  21405591.497   -18019341.610 9  -9011654.33529       104.000
  21903600.343    -2719961.567 9    138686.60429       108.000
  24460764.055    19530214.835 7  12595370.93625        60.000
  23817872.890   -11650358.509 8  -7338641.47026        70.000
 96  6  5 20 21 15.0030000  0  6G 6G 4G 5G24G 9G16
  24886778.941   -18870610.423 6  -1871244.01425        36.000
  23957758.869    22772361.748 7  13653258.57925        58.000
  21406180.050   -18016241.169 9  -9009238.43529       104.000
  21910087.552    -2685884.844 9    165239.84229       110.000
  24471381.625    19586026.313 7  12638860.32525        56.000
  23811775.231   -11682411.192 8  -7363617.63126        72.000
 96  6  5 20 21 30.0030000  0  6G 6G 4G 5G24G 9G16
  24882633.201   -18892397.033 6  -1888220.52925        36.000
  23968696.916    22829834.574 7  13698042.60825        56.000
  21406793.485   -18013017.553 9  -9006726.51129       106.000
  21916590.980    -2651713.914 9    191866.56129       110.000
  24482005.520    19641868.884 7  12682374.05625        54.000
  23805688.605   -11714406.687 8  -7388549.17526        74.000
 96  6  5 20 21 45.0030000  0  6G 6G 4G 5G24G 9G16
  24878490.040   -18914172.324 6  -1905188.25625        34.000
  23979637.962    22887347.218 7  13742857.59825        56.000
  21407433.542   -18009669.560 9  -9004117.70429       106.000
  21923110.237    -2617445.539 9    218569.17929       110.000
  24492641.017    19697746.409 7  12725914.97125        56.000
  23799607.405   -11746345.889 8  -7413436.86426        70.000
 96  6  5 20 22  0.0030000  0  6G 6G 4G 5G24G 9G16
  24874352.784   -18935940.957 6  -1922150.76325        38.000
  23990588.961    22944900.268 7  13787704.12825        58.000
  21408095.484   -18006197.707 9  -9001412.35129       106.000
  21929651.438    -2583078.316 9    245348.85429       110.000
  24503274.356    19753656.893 7  12769481.60525        52.000
  23793540.565   -11778230.069 8  -7438281.63026        70.000
 96  6  5 20 22 15.0030000  0  6G 6G 4G 5G24G 9G16
  24870205.305   -18957703.262 6  -1939108.34825        36.000
  24001550.213    23002495.025 7  13832583.12525        56.000
  21408779.011   -18002602.593 9  -8998610.96629       106.000
  21936210.418    -2548611.388 9    272206.20529       112.000
  24513919.956    19809598.653 7  12813072.52325        54.000
  23787487.515   -11810059.311 8  -7463083.60926        70.000
 96  6  5 20 22 30.0030000  0  6G 6G 4G 5G24G 9G16
  24866062.743   -18979459.595 6  -1956061.35825        36.000
  24012523.456    23060131.896 7  13877494.95025        58.000
  21409485.801   -17998883.692 9  -8995713.15729       106.000
  21942788.254    -2514047.185 9    299139.30329       112.000
  24524578.628    19865571.316 7  12856687.41325        56.000
  23781439.052   -11841830.667 8  -7487840.51126        72.000
 96  6  5 20 22 45.0030000  0  6G 6G 4G 5G24G 9G16
  24861919.311   -19001213.804 6  -1973012.80824        38.000
  24023493.581    23117810.183 7  13922439.05125        56.000
  21410217.955   -17995038.867 9  -8992717.19329       104.000
  21949382.459    -2479387.122 9    326147.14329       112.000
  24535232.772    19921576.278 7  12900327.65025        52.000
  23775405.609   -11873543.385 8  -7512551.68026        72.000
 96  6  5 20 23  0.0030000  0  6G 6G 4G 5G24G 9G16
  24857783.465   -19022970.606 6  -1989966.12024        40.000
  24034478.877    23175527.383 7  13967413.51625        54.000
  21410972.532   -17991068.315 9  -8989623.23729       104.000
  21955994.112    -2444634.388 9    353227.21329       110.000
  24545891.833    19977613.688 7  12943993.18325        52.000
  23769381.130   -11905199.938 8  -7537219.10526        74.000
 96  6  5 20 23 15.0030000  0  6G 6G 4G 5G24G 9G16
  24853644.950   -19044729.934 7  -2006921.36524        42.000
  24045468.309    23233281.639 7  14012416.80525        56.000
  21411749.115   -17986970.122 9  -8986429.84429       102.000
  21962627.859    -2409788.586 9    380379.78729       112.000
  24556565.194    20033682.811 7  12987683.41525        52.000
  23763367.563   -11936797.068 8  -7561840.26926        74.000
 96  6  5 20 23 30.0030000  0  6G 6G 4G 5G24G 9G16
  24849510.662   -19066488.086 7  -2023875.75125        42.000
  24056465.955    23291070.160 7  14057446.80925        52.000
  21412555.976   -17982742.049 9  -8983135.25329       100.000
  21969274.258    -2374852.284 9    407602.88029       112.000
  24567248.298    20089784.509 7  13031399.00425        56.000
  23757368.236   -11968331.438 8  -7586412.47326        76.000
 96  6  5 20 23 45.0030000  0  6G 6G 4G 5G24G 9G16
  24845358.806   -19088247.999 6  -2040831.46725        34.000
  24067468.788    23348885.847 7  14102497.96625        54.000
  21413390.029   -17978388.300 9  -8979742.73329       104.000
  21975940.233    -2339832.478 9    434891.02129       112.000
  24577918.781    20145916.637 7  13075138.20825        54.000
  23751379.912   -11999805.915 8  -7610938.02126        76.000
 96  6  5 20 24  0.0030000  0  6G 6G 4G 5G24G 9G16
  24841224.068   -19110008.449 6  -2057787.60625        36.000
  24078471.711    23406728.401 7  14147570.04825        52.000
  21414240.420   -17973910.507 9  -8976253.54129       108.000
  21982618.590    -2304731.513 9    462242.43029       110.000
  24588613.007    20202077.452 7  13118899.80125        56.000
  23745400.551   -12031217.026 8  -7635414.15426        74.000
 96  6  5 20 24 15.0030000  0  6G 6G 4G 5G24G 9G16
  24837080.607   -19131771.462 6  -2074745.78125        32.000
  24089482.278    23464596.906 7  14192662.33625        52.000
  21415114.615   -17969309.937 9  -8972668.69029       104.000
  21989312.865    -2269553.370 9    489653.95629       112.000
  24599304.596    20258264.351 7  13162681.80525        58.000
  23739436.750   -12062566.230 8  -7659842.08926        74.000
 96  6  5 20 24 30.0030000  0  6G 6G 4G 5G24G 9G16
  24832935.946   -19153528.450 6  -2091699.21324        30.000
  24100504.958    23522496.579 7  14237778.96825        54.000
  21416015.071   -17964578.222 9  -8968981.63429       104.000
  21996025.428    -2234292.792 9    517129.73829       114.000
  24610006.767    20314484.580 7  13206489.76525        56.000
  23733484.790   -12093847.207 8  -7684216.85926        74.000
 96  6  5 20 24 45.0030000  0  6G 6G 4G 5G24G 9G16
  24828800.009   -19175283.319 6  -2108651.15124        30.000
  24111527.547    23580422.501 7  14282916.05125        50.000
  21416939.481   -17959718.604 9  -8965194.93029       104.000
  22002751.182    -2198954.338 9    544666.18729       114.000
  24620698.025    20370733.568 7  13250320.15225        54.000
  23727541.405   -12125064.248 8  -7708541.83626        72.000
 96  6  5 20 25  0.0030000  0  6G 6G 4G 5G24G 9G16
  24824666.891   -19197030.619 6  -2125597.11624        30.000
  24122552.414    23638375.192 7  14328074.00125        50.000
  21417885.027   -17954731.645 9  -8961308.98929       106.000
  22009483.801    -2163534.230 9    572266.27429       108.000
  24631411.019    20427012.632 7  13294173.94625        58.000
  23721613.129   -12156218.725 8  -7732818.06726        74.000
 96  6  5 20 25 15.0030000  0  6G 6G 4G 5G24G 9G16
  24820531.134   -19218767.756 6  -2142535.11124        30.000
  24133587.625    23696352.495 7  14373251.11425        54.000
  21418860.342   -17949621.977 9  -8957327.44829       104.000
  22016244.361    -2128033.612 9    599929.07128       112.000
  24642132.766    20483318.348 7  13338048.41525        58.000
  23715695.076   -12187312.498 8  -7757046.96426        76.000
 96  6  5 20 25 30.0030000  0  6G 6G 4G 5G24G 9G16
  24816393.788   -19240487.846 6  -2159459.74425        32.000
  24144624.125    23754357.583 7  14418449.89625        54.000
  21419854.393   -17944386.647 9  -8953247.95629       102.000
  22023015.054    -2092447.356 9    627658.63728       112.000
  24652841.413    20539652.918 7  13381945.41225        58.000
  23709793.062   -12218340.421 8  -7781224.51126        78.000
 96  6  5 20 25 45.0030000  0  6G 6G 4G 5G24G 9G16
  24812267.355   -19262192.939 6  -2176372.82125        34.000
  24155668.299    23812392.335 7  14463671.68025        58.000
  21420874.767   -17939023.309 9  -8949068.76029       102.000
  22029801.486    -2056773.585 9    655456.35428       110.000
  24663571.765    20596017.184 7  13425865.60225        58.000
  23703897.493   -12249304.425 8  -7805352.29426        74.000
 96  6  5 20 26  0.0030000  0  6G 6G 4G 5G24G 9G16
  24808135.195   -19283888.427 6  -2193278.34425        34.000
  24166713.642    23870457.312 7  14508917.04925        56.000
  21421919.933   -17933534.264 9  -8944791.60629       104.000
  22036609.203    -2021012.544 9    683322.07928       110.000
  24674301.277    20652406.900 7  13469805.61825        60.000
  23698018.983   -12280207.535 8  -7829432.62326        76.000
 96  6  5 20 26 15.0030000  0  6G 6G 4G 5G24G 9G16
  24804008.492   -19305577.143 6  -2210178.59725        36.000
  24177774.365    23928551.012 7  14554184.88225        56.000
  21422986.535   -17927919.679 9  -8940416.60329       104.000
  22043429.601    -1985165.105 9    711255.15628       110.000
  24685042.151    20708818.149 8  13513762.43425        64.000
  23692152.224   -12311052.090 8  -7853467.31526        78.000
 96  6  5 20 26 30.0030000  0  6G 6G 4G 5G24G 9G16
  24799881.219   -19327256.657 6  -2227071.70125        36.000
  24188834.009    23986674.492 7  14599475.92225        56.000
  21424082.007   -17922178.286 9  -8935942.77629       104.000
  22050273.114    -1949230.311 9    739256.29728       114.000
  24695782.426    20765249.753 7  13557735.08425        62.000
  23686289.513   -12341838.331 8  -7877456.58626        74.000
 96  6  5 20 26 45.0030000  0  6G 6G 4G 5G24G 9G16
  24795756.855   -19348925.464 6  -2243956.54124        32.000
  24199893.412    24044824.073 7  14644787.27825        52.000
  21425197.654   -17916311.184 9  -8931371.03029       104.000
  22057123.431    -1913208.943 9    767324.88328       112.000
  24706525.039    20821697.438 7  13601720.17025        60.000
  23680444.070   -12372565.159 8  -7901399.57326        78.000
 96  6  5 20 27  0.0030000  0  6G 6G 4G 5G24G 9G16
  24791638.366   -19370585.358 6  -2260834.38024        34.000
  24210968.555    24102997.502 7  14690117.21625        52.000
  21426337.435   -17910320.933 9  -8926703.30029       102.000
  22063994.524    -1877102.207 9    795460.00928       114.000
  24717262.106    20878158.233 7  13645715.56325        56.000
  23674607.590   -12403232.647 8  -7925296.29026        78.000
 96  6  5 20 27 15.0030000  0  6G 6G 4G 5G24G 9G16
  24787517.209   -19392231.112 6  -2277701.17325        36.000
  24222046.126    24161202.122 7  14735471.42625        54.000
  21427502.908   -17904198.576 9  -8921932.65029       104.000
  22070881.956    -1840904.443 9    823666.03128       112.000
  24728013.323    20934638.937 7  13689726.48125        56.000
  23668787.329   -12433831.129 8  -7949139.25826        78.000
 96  6  5 20 27 30.0030000  0  6G 6G 4G 5G24G 9G16
  24783400.669   -19413870.322 6  -2294562.85325        38.000
  24233122.588    24219435.871 7  14780848.33625        52.000
  21428696.862   -17897945.601 9  -8917060.20129       106.000
  22077789.384    -1804620.100 9    851939.54628       114.000
  24738762.501    20991133.814 7  13733748.46825        54.000
  23662974.594   -12464359.195 8  -7972927.31726        78.000
 96  6  5 20 27 45.0030000  0  6G 6G 4G 5G24G 9G16
  24779282.690   -19435508.723 6  -2311423.90125        34.000
  24244212.331    24277698.071 7  14826247.38125        54.000
  21429907.484   -17891561.652 9  -8912085.70529       106.000
  22084706.946    -1768250.235 9    880279.69828       112.000
  24749514.408    21047642.303 7  13777781.03325        54.000
  23657180.715   -12494818.422 8  -7996661.77326        78.000
 96  6  5 20 28  0.0030000  0  6G 6G 4G 5G24G 9G16
  24775162.552   -19457145.282 6  -2328283.54325        34.000
  24255307.500    24335990.808 7  14871670.30125        56.000
  21431149.854   -17885045.371 9  -8907008.07229       104.000
  22091643.663    -1731794.846 9    908686.49528       114.000
  24760280.944    21104168.067 7  13821826.95725        56.000
  23651401.585   -12525206.836 8  -8020341.03126        78.000
 96  6  5 20 28 15.0030000  0  6G 6G 4G 5G24G 9G16
  24771043.074   -19478776.732 6  -2345139.18025        34.000
  24266405.877    24394312.690 7  14917115.91425        54.000
  21432409.672   -17878399.196 9  -8901829.26329       104.000
  22098599.568    -1695256.044 9    937158.27828       116.000
  24771028.204    21160710.232 7  13865885.71125        52.000
  23645627.912   -12555522.875 8  -8043963.94126        76.000
 96  6  5 20 28 30.0030000  0  6G 6G 4G 5G24G 9G16
  24766936.217   -19500400.041 6  -2361988.51425        34.000
  24277506.622    24452663.513 7  14962584.08425        52.000
  21433701.447   -17871621.519 9  -8896547.96729       106.000
  22105567.314    -1658634.726 9    965694.37028       114.000
  24781793.901    21217269.591 7  13909957.93825        56.000
  23639871.118   -12585765.570 8  -8067529.66626        76.000
 96  6  5 20 28 45.0030000  0  6G 6G 4G 5G24G 9G16
  24762820.966   -19522015.806 6  -2378832.03025        36.000
  24288614.652    24511044.052 7  15008075.40225        52.000
  21435020.474   -17864712.499 9  -8891164.33229       106.000
  22112551.429    -1621929.238 9    994296.01728       112.000
  24792562.356    21273847.866 7  13954044.89625        52.000
  23634133.330   -12615936.362 8  -8091039.38326        78.000
 96  6  5 20 29  0.0030000  0  6G 6G 4G 5G24G 9G16
  24758714.049   -19543628.754 6  -2395673.25225        38.000
  24299732.006    24569449.714 7  15053586.31025        52.000
  21436354.041   -17857675.663 9  -8885681.07929       102.000
  22119553.292    -1585140.872 9   1022962.27428       112.000
  24803332.430    21330444.723 7  13998146.34025        52.000
  23628403.427   -12646039.603 8  -8114496.40726        78.000
 96  6  5 20 29 15.0030000  0  6G 6G 4G 5G24G 9G16
  24754597.029   -19565235.586 6  -2412509.70225        36.000
  24310854.935    24627887.707 7  15099122.38025        52.000
  21437719.416   -17850507.322 9  -8880095.35229       104.000
  22126569.844    -1548265.913 9   1051696.00928       114.000
  24814100.256    21387066.797 7  14042267.39125        48.000
  23622688.303   -12676071.958 8  -8137898.20826        80.000
 96  6  5 20 29 30.0030000  0  6G 6G 4G 5G24G 9G16
  24750488.493   -19586836.014 6  -2429341.16325        38.000
  24321979.634    24686358.917 7  15144684.26825        48.000
  21439107.455   -17843206.508 9  -8874406.41829       102.000
  22133602.826    -1511301.881 9   1080499.14728       114.000
  24824882.352    21443717.171 7  14086410.38225        50.000
  23616986.341   -12706032.662 8  -8161244.19826        76.000
 96  6  5 20 29 45.0030000  0  6G 6G 4G 5G24G 9G16
  24746375.821   -19608431.816 6  -2446169.03825        34.000
  24333109.189    24744858.053 7  15190268.00025        50.000
  21440524.694   -17835775.654 9  -8868616.14429       102.000
  22140657.122    -1474251.499 9   1109369.56728       116.000
  24835676.709    21500392.855 7  14130573.23025        50.000
  23611295.980   -12735927.764 8  -8184539.06726        78.000
 96  6  5 20 30  0.0030000  0  6G 6G 4G 5G24G 9G16
  24742263.268   -19630019.562 6  -2462990.62125        34.000
  24344251.905    24803384.510 7  15235873.03125        52.000
  21441959.710   -17828211.326 9  -8862721.87829       104.000
  22147719.693    -1437114.093 9   1138307.80728       118.000
  24846459.254    21557096.779 7  14174758.12225        48.000
  23605621.268   -12765757.136 8  -8207782.73926        78.000
 96  6  5 20 30 15.0030000  0  6G 6G 4G 5G24G 9G16
  24738162.796   -19651595.496 6  -2479803.04225        36.000
  24355389.794    24861939.870 7  15281500.61325        56.000
  21443428.184   -17820513.862 9  -8856723.85729       102.000
  22154808.315    -1399889.007 9   1167314.37528       118.000
  24857257.299    21613828.676 7  14218964.80925        48.000
  23599962.596   -12795519.290 8  -8230974.02926        78.000
 96  6  5 20 30 30.0030000  0  6G 6G 4G 5G24G 9G16
  24734057.738   -19673160.136 6  -2496606.69525        38.000
  24366543.033    24920524.228 7  15327150.75825        54.000
  21444917.732   -17812681.174 9  -8850620.45829       104.000
  22161904.403    -1362576.944 9   1196388.71128       118.000
  24868060.020    21670587.271 7  14263192.31925        46.000
  23594308.540   -12825214.202 8  -8254112.87526        76.000
 96  6  5 20 30 45.0030000  0  6G 6G 4G 5G24G 9G16
  24729956.967   -19694713.517 6  -2513401.53025        40.000
  24377697.531    24979137.939 7  15372823.74725        54.000
  21446436.691   -17804709.941 9  -8844409.14529       106.000
  22169020.606    -1325174.338 9   1225533.54828       116.000
  24878863.491    21727375.019 7  14307442.56625        48.000
  23588669.384   -12854839.091 8  -8277197.19726        76.000
 96  6  5 20 31  0.0040000  0  6G 6G 4G 5G24G 9G16
  24725857.095   -19716257.147 6  -2530188.69925        38.000
  24388850.740    25037782.660 7  15418520.92325        50.000
  21447979.093   -17796600.659 9  -8838090.20929       104.000
  22176158.815    -1287680.404 9   1254749.61428       118.000
  24889676.735    21784194.010 7  14351717.30325        44.000
  23583045.697   -12884394.381 8  -8300227.25526        76.000
 96  6  5 20 31 15.0040000  0  6G 6G 4G 5G24G 9G16
  24721759.022   -19737794.761 6  -2546971.24925        40.000
  24400021.157    25096443.979 7  15464230.97124        48.000
  21449545.958   -17788361.976 9  -8831670.45629       108.000
  22183304.728    -1250110.813 9   1284024.61528       116.000
  24900496.035    21841026.609 7  14396002.45325        48.000
  23577433.103   -12913880.000 8  -8323203.05726        74.000
 96  6  5 20 31 30.0040000  0  6G 6G 4G 5G24G 9G16
  24717668.834   -19759322.678 6  -2563746.23125        40.000
  24411177.843    25155129.364 7  15509959.78924        48.000
  21451136.447   -17779987.094 9  -8825144.60229       108.000
  22190472.046    -1212459.935 9   1313362.93028       118.000
  24911308.860    21897880.360 7  14440304.00825        48.000
  23571840.564   -12943290.919 8  -8346120.67426        76.000
 96  6  5 20 31 45.0040000  0  6G 6G 4G 5G24G 9G16
  24713569.592   -19780836.159 6  -2580509.95025        40.000
  24422359.742    25213838.844 7  15555707.47024        52.000
  21452760.153   -17771471.944 9  -8818509.39929       108.000
  22197653.304    -1174725.345 9   1342766.53628       118.000
  24922139.012    21954757.313 7  14484623.76825        48.000
  23566256.480   -12972622.807 8  -8368976.64626        78.000
 96  6  5 20 32  0.0040000  0  6G 6G 4G 5G24G 9G16
  24709482.761   -19802338.769 6  -2597265.22525        40.000
  24433535.525    25272568.494 7  15601470.82724        46.000
  21454408.832   -17762821.051 9  -8811768.46229       112.000
  22204846.135    -1136912.992 9   1372230.68728       116.000
  24932958.642    22011651.316 7  14528956.84924        48.000
  23560689.094   -13001878.860 8  -8391773.58826        78.000
 96  6  5 20 32 15.0040000  0  6G 6G 4G 5G24G 9G16
  24705390.294   -19823829.250 6  -2614011.03025        40.000
  24444709.540    25331320.221 7  15647251.38824        48.000
  21456078.346   -17754033.761 9  -8804921.21129       110.000
  22212057.642    -1099021.515 9   1401756.53028       118.000
  24943792.152    22068563.790 7  14573304.39824        48.000
  23555135.979   -13031054.405 8  -8414507.72826        80.000
 96  6  5 20 32 30.0040000  0  6G 6G 4G 5G24G 9G16
  24701302.804   -19845311.520 6  -2630750.47825        40.000
  24455896.805    25390089.325 7  15693045.47825        52.000
  21457775.351   -17745113.566 9  -8797970.43029       108.000
  22219283.120    -1061054.498 9   1431341.20528       116.000
  24954625.962    22125490.223 7  14617662.63824        52.000
  23549602.769   -13060150.368 8  -8437179.87526        82.000
 96  6  5 20 32 45.0040000  0  6G 6G 4G 5G24G 9G16
  24697210.907   -19866783.171 6  -2647481.63325        38.000
  24467081.852    25448876.467 7  15738853.58524        52.000
  21459498.258   -17736055.653 9  -8790912.34629       114.000
  22226522.389    -1023008.927 9   1460987.06228       114.000
  24965456.384    22182433.939 7  14662034.35525        50.000
  23544077.924   -13089164.259 8  -8459788.10426        80.000
 96  6  5 20 33  0.0040000  0  6G 6G 4G 5G24G 9G16
  24693123.776   -19888247.014 6  -2664206.65725        36.000
  24478269.866    25507679.123 7  15784673.83824        50.000
  21461246.708   -17726864.789 9  -8783750.61529       110.000
  22233776.617     -984887.152 9   1490692.35528       114.000
  24976297.029    22239392.120 7  14706417.36625        54.000
  23538572.565   -13118099.731 8  -8482335.20326        82.000
 96  6  5 20 33 15.0040000  0  6G 6G 4G 5G24G 9G16
  24689041.083   -19909706.811 6  -2680928.56225        38.000
  24489466.095    25566494.186 7  15830503.71524        50.000
  21463023.248   -17717544.997 9  -8776488.43429       112.000
  22241044.245     -946695.771 9   1520451.88828       116.000
  24987136.805    22296360.735 7  14750808.48924        54.000
  23533082.016   -13146961.358 8  -8504824.77326        82.000
 96  6  5 20 33 30.0040000  0  6G 6G 4G 5G24G 9G16
  24684966.573   -19931154.288 6  -2697640.86825        40.000
  24500664.183    25625331.024 7  15876350.56524        48.000
  21464823.562   -17708085.515 9  -8769117.43729       112.000
  22248328.003     -908424.607 9   1550273.55028       116.000
  24997987.373    22353352.729 7  14795217.60523        56.000
  23527609.545   -13175741.319 9  -8527250.73126        84.000
 96  6  5 20 33 45.0040000  0  6G 6G 4G 5G24G 9G16
  24680884.779   -19952595.941 6  -2714348.59225        40.000
  24511855.585    25684180.653 7  15922207.43924        46.000
  21466647.949   -17698493.093 9  -8761642.81329       112.000
  22255623.093     -870081.396 9   1580151.38228       114.000
  25008834.764    22410361.856 7  14839640.27524        56.000
  23522144.029   -13204449.174 9  -8549620.45326        84.000
 96  6  5 20 34  0.0040000  0  6G 6G 4G 5G24G 9G16
  24676806.492   -19974031.872 6  -2731051.89825        40.000
  24523062.307    25743048.704 7  15968078.63725        48.000
  21468498.508   -17688765.698 9  -8754063.02029       112.000
  22262936.290     -831665.507 9   1610085.84028       116.000
  25019688.150    22467388.270 7  14884076.43925        56.000
  23516691.733   -13233083.069 9  -8571932.54027        84.000
 96  6  5 20 34 15.0040000  0  6G 6G 4G 5G24G 9G16
  24672722.779   -19995459.511 6  -2747748.80025        38.000
  24534266.691    25801940.775 7  16013968.54825        52.000
  21470375.988   -17678899.355 9  -8746374.95229       112.000
  22270258.091     -793174.465 9   1640078.87428       116.000
  25030535.421    22524435.996 7  14928529.23225        54.000
  23511258.474   -13261639.839 8  -8594184.55727        82.000
 96  6  5 20 34 30.0040000  0  6G 6G 4G 5G24G 9G16
  24668647.910   -20016877.779 7  -2764438.34825        44.000
  24545477.520    25860855.817 7  16059876.36825        50.000
  21472277.602   -17668895.902 9  -8738580.05129       112.000
  22277600.578     -754608.719 9   1670130.09928       116.000
  25041399.690    22581504.731 7  14972998.25525        54.000
  23505836.968   -13290120.251 8  -8616377.05427        82.000
 96  6  5 20 34 45.0040000  0  6G 6G 4G 5G24G 9G16
  24664571.363   -20038292.761 6  -2781125.26725        38.000
  24556691.286    25919789.276 7  16105798.52024        52.000
  21474206.436   -17658763.302 9  -8730684.52029       110.000
  22284950.020     -715975.036 9   1700234.25828       114.000
  25052261.290    22638586.162 7  15017477.20525        50.000
  23500432.759   -13318533.222 8  -8638517.00927        82.000
 96  6  5 20 35  0.0040000  0  6G 6G 4G 5G24G 9G16
  24660497.393   -20059699.712 6  -2797805.98025        38.000
  24567907.542    25978748.717 7  16151740.89524        50.000
  21476160.963   -17648495.397 9  -8722683.56629       110.000
  22292316.940     -677264.666 9   1730398.16828       116.000
  25063131.555    22695686.102 7  15061970.64225        50.000
  23495040.362   -13346872.516 9  -8660599.56927        86.000
 96  6  5 20 35 15.0040000  0  6G 6G 4G 5G24G 9G16
  24656431.338   -20081094.623 6  -2814477.32225        38.000
  24579138.247    26037739.478 7  16197707.69324        48.000
  21478143.011   -17638088.834 9  -8714574.55929       110.000
  22299696.751     -638473.835 9   1760624.79028       112.000
  25073998.792    22752806.437 7  15106479.96625        50.000
  23489664.034   -13375129.809 9  -8682618.24127        86.000
 96  6  5 20 35 30.0040000  0  6G 6G 4G 5G24G 9G16
  24652361.445   -20102478.674 6  -2831140.18625        36.000
  24590368.292    26096760.420 7  16243698.02025        48.000
  21480149.582   -17627544.087 9  -8706357.88229       110.000
  22307093.021     -599602.617 9   1790914.04928       112.000
  25084867.168    22809943.571 7  15151002.39925        46.000
  23484300.267   -13403304.519 9  -8704572.56127        86.000
 96  6  5 20 35 45.0040000  0  6G 6G 4G 5G24G 9G16
  24648296.679   -20123848.854 6  -2847792.27925        38.000
  24601607.392    26155813.238 7  16289713.20325        48.000
  21482183.314   -17616859.946 9  -8698032.56129       110.000
  22314508.777     -560647.366 9   1821268.78328       114.000
  25095742.919    22867097.089 7  15195537.54625        44.000
  23478955.477   -13431394.554 9  -8726460.85727        88.000
 96  6  5 20 36  0.0040000  0  6G 6G 4G 5G24G 9G16
  24644233.922   -20145209.168 6  -2864436.66325        40.000
  24612849.159    26214894.905 7  16335750.86325        46.000
  21484240.130   -17606040.301 9  -8689601.69229       108.000
  22321932.628     -521611.280 9   1851686.49028       114.000
  25106633.299    22924259.432 7  15240079.46625        48.000
  23473625.317   -13459401.454 9  -8748284.40027        88.000
 96  6  5 20 36 15.0040000  0  6G 6G 4G 5G24G 9G16
  24640170.835   -20166558.007 7  -2881072.11025        42.000
  24624100.970    26274008.401 7  16381813.30225        48.000
  21486324.017   -17595081.455 9  -8681062.34829       108.000
  22329379.772     -482489.281 9   1882171.15328       116.000
  25117510.909    22981430.776 7  15284628.55625        46.000
  23468311.796   -13487320.833 9  -8770039.74027        84.000
 96  6  5 20 36 30.0040000  0  6G 6G 4G 5G24G 9G16
  24636112.184   -20187899.232 7  -2897701.63125        46.000
  24635356.767    26333144.082 7  16427893.04425        46.000
  21488435.006   -17583990.665 9  -8672420.17129       106.000
  22336838.369     -443283.638 9   1912721.00428       110.000
  25128385.161    23038605.273 7  15329180.09125        42.000
  23463016.532   -13515156.675 9  -8791729.99627        86.000
 96  6  5 20 36 45.0040000  0  6G 6G 4G 5G24G 9G16
  24632050.536   -20209233.294 7  -2914325.53425        48.000
  24646609.747    26392303.500 7  16473991.18424        48.000
  21490571.477   -17572767.847 9  -8663675.10729       108.000
  22344317.831     -403992.684 9   1943337.34228       112.000
  25139262.681    23095781.587 6  15373733.07425        38.000
  23457732.360   -13542906.906 9  -8813353.55027        86.000
 96  6  5 20 37  0.0040000  0  6G 6G 4G 5G24G 9G16
  24627985.051   -20230557.465 7  -2930941.72925        50.000
  24657875.318    26451491.080 7  16520111.35925        46.000
  21492735.169   -17561404.839 9  -8654820.83229       106.000
  22351809.674     -364612.318 9   1974023.32928       110.000
  25150149.794    23152963.833 7  15418290.58625        44.000
  23452467.884   -13570568.544 9  -8834908.06127        86.000
 96  6  5 20 37 15.0040000  0  6G 6G 4G 5G24G 9G16
  24623930.508   -20251872.532 7  -2947550.86725        48.000
  24669135.163    26510702.006 7  16566249.74925        48.000
  21494921.466   -17549904.299 9  -8645859.38529       106.000
  22359320.704     -325148.949 9   2004774.00528       112.000
  25161023.386    23210147.936 6  15462849.50525        38.000
  23447223.075   -13598144.672 9  -8856395.95327        88.000
 96  6  5 20 37 30.0040000  0  6G 6G 4G 5G24G 9G16
  24619877.793   -20273175.043 7  -2964150.19925        46.000
  24680414.405    26569937.995 7  16612407.65025        46.000
  21497137.232   -17538265.526 9  -8636790.21229       106.000
  22366847.414     -285602.672 9   2035589.27828       112.000
  25171904.983    23267335.984 7  15507411.58925        42.000
  23441990.468   -13625636.875 9  -8877818.40727        90.000
 96  6  5 20 37 45.0040000  0  6G 6G 4G 5G24G 9G16
  24615830.715   -20294475.028 7  -2980747.54925        42.000
  24691691.218    26629187.414 7  16658576.07125        46.000
  21499378.180   -17526496.937 9  -8627619.88229       106.000
  22374386.984     -245983.556 9   2066461.31028       112.000
  25182799.501    23324519.865 7  15551970.44925        46.000
  23436771.021   -13653057.487 9  -8899185.10227        88.000
 96  6  5 20 38  0.0040000  0  6G 6G 4G 5G24G 9G16
  24611775.003   -20315764.776 7  -2997336.98325        44.000
  24702966.562    26688455.193 7  16704758.71125        42.000
  21501643.412   -17514590.358 9  -8618342.03629       106.000
  22381940.645     -206287.754 9   2097393.09528       110.000
  25193674.712    23381707.077 7  15596531.90325        46.000
  23431569.112   -13680399.779 9  -8920490.75727        88.000
 96  6  5 20 38 15.0040000  0  6G 6G 4G 5G24G 9G16
  24607724.837   -20337049.099 7  -3013922.22624        44.000
  24714245.534    26747736.641 7  16750952.02725        42.000
  21503936.824   -17502550.160 9  -8608960.06729       108.000
  22389506.717     -166519.549 9   2128381.31528       110.000
  25204559.846    23438894.456 7  15641093.46324        46.000
  23426384.831   -13707666.452 9  -8941737.50727        88.000
 96  6  5 20 38 30.0040000  0  6G 6G 4G 5G24G 9G16
  24603668.405   -20358371.411 7  -3030536.99324        46.000
  24725526.514    26806987.744 7  16797121.62825        44.000
  21506243.727   -17490422.682 9  -8599510.11329       110.000
  22397080.734     -126725.438 9   2159389.68428       110.000
  25215442.343    23496039.944 7  15685622.20324        46.000
  23421200.250   -13734901.532 9  -8962959.64127        86.000
 96  6  5 20 38 45.0040000  0  6G 6G 4G 5G24G 9G16
  24599609.005   -20379703.230 7  -3047159.13724        46.000
  24736793.974    26866235.593 7  16843288.74225        42.000
  21508572.455   -17478182.152 9  -8589972.04829       110.000
  22404660.896      -86882.368 9   2190436.22328       108.000
  25226298.097    23553171.691 7  15730140.42624        46.000
  23416023.854   -13762077.710 9  -8984135.87727        84.000
 96  6  5 20 39  0.0040000  0  6G 6G 4G 5G24G 9G16
  24595554.132   -20401021.221 7  -3063770.53824        48.000
  24748078.192    26925505.798 7  16889473.31725        46.000
  21510926.426   -17465803.352 9  -8580326.21929       108.000
  22412256.018      -46966.736 9   2221539.30828       108.000
  25237178.615    23610314.839 7  15774667.60324        46.000
  23410874.019   -13789170.407 9  -9005247.05127        86.000
 96  6  5 20 39 15.0040000  0  6G 6G 4G 5G24G 9G16
  24591497.431   -20422328.786 7  -3080373.77825        44.000
  24759356.564    26984789.981 7  16935668.82125        42.000
  21513306.208   -17453291.234 9  -8570576.53129       110.000
  22419869.967       -6985.213 9   2252693.73728       110.000
  25248051.188    23667464.209 7  15819199.51524        52.000
  23405727.962   -13816185.106 9  -9026297.47527        86.000
 96  6  5 20 39 30.0040000  0  6G 6G 4G 5G24G 9G16
  24587441.059   -20443625.195 7  -3096968.35525        42.000
  24770642.461    27044091.125 7  16981877.47724        44.000
  21515713.541   -17440645.375 9  -8560722.59929       110.000
  22427488.773       33067.427 9   2283903.59828       108.000
  25258929.457    23724624.900 7  15863740.17823        52.000
  23400607.447   -13843114.332 9  -9047281.26027        86.000
 96  6  5 20 39 45.0040000  0  6G 6G 4G 5G24G 9G16
  24583391.552   -20464918.072 7  -3113560.15325        46.000
  24781933.424    27103403.182 7  17028094.63724        42.000
  21518144.319   -17427868.399 9  -8550766.52229       112.000
  22435122.538       73187.437 9   2315165.92728       106.000
  25269807.516    23781794.563 7  15908287.93723        52.000
  23395498.294   -13869959.804 9  -9068199.78827        88.000
 96  6  5 20 40  0.0040000  0  6G 6G 4G 5G24G 9G16
  24579344.444   -20486203.241 7  -3130145.94725        50.000
  24793215.604    27162730.453 7  17074323.57024        42.000
  21520601.777   -17414955.442 9  -8540704.47529       114.000
  22442769.764      113376.856 9   2346482.36628       110.000
  25280695.709    23838977.006 7  15952845.65924        52.000
  23390407.728   -13896715.594 9  -9089048.44127        86.000
 96  6  5 20 40 15.0040000  0  6G 6G 4G 5G24G 9G16
  24575293.378   -20507476.336 7  -3146722.40425        48.000
  24804510.645    27222078.554 7  17120568.84424        42.000
  21523085.888   -17401903.361 9  -8530534.04329       116.000
  22450432.159      153641.133 9   2377857.12527       106.000
  25291573.648    23896177.352 7  15997417.36423        52.000
  23385330.802   -13923374.695 9  -9109821.77227        86.000
 96  6  5 20 40 30.0040000  0  6G 6G 4G 5G24G 9G16
  24571245.611   -20528736.405 7  -3163288.68325        48.000
  24815808.923    27281452.350 7  17166834.15324        42.000
  21525596.620   -17388711.108 9  -8520254.36029       114.000
  22458109.634      193983.729 9   2409292.91627       110.000
  25302458.482    23953395.816 7  16042003.16223        48.000
  23380280.828   -13949935.367 9  -9130518.36727        88.000
 96  6  5 20 40 45.0040000  0  6G 6G 4G 5G24G 9G16
  24567212.353   -20549973.869 7  -3179837.40725        52.000
  24827111.099    27340860.718 6  17213126.40224        40.000
  21528136.911   -17375367.911 9  -8509857.08629       118.000
  22465804.197      234415.415 9   2440798.08627       110.000
  25313351.142    24010640.035 7  16086608.87223        46.000
  23375245.184   -13976387.064 9  -9151130.05727        88.000
 96  6  5 20 41  0.0040000  0  6G 6G 4G 5G24G 9G16
  24563176.007   -20571144.522 7  -3196333.96225        52.000
  24838433.450    27400346.462 6  17259478.88324        40.000
  21530712.728   -17361827.319 9  -8499305.98529       116.000
  22473526.881      274981.338 9   2472407.90327       108.000
  25324255.493    24067954.136 7  16131269.19023        48.000
  23370244.796   -14002686.754 9  -9171623.30827        88.000
 96  6  5 20 41 15.0040000  0  6G 6G 4G 5G24G 9G16
  24559155.520   -20592301.549 7  -3212819.91425        52.000
  24849756.851    27459854.516 7  17305848.84624        42.000
  21533317.175   -17348140.581 9  -8488640.99129       118.000
  22481253.282      315629.924 9   2504082.12227       106.000
  25335173.035    24125285.247 7  16175942.78323        44.000
  23365254.241   -14028887.920 9  -9192039.79127        86.000
 96  6  5 20 41 30.0040000  0  6G 6G 4G 5G24G 9G16
  24555127.359   -20613442.717 7  -3229293.50925        52.000
  24861093.113    27519385.710 7  17352236.73023        44.000
  21535950.102   -17334305.824 9  -8477860.66529       120.000
  22489007.474      356360.067 9   2535819.89327       108.000
  25346080.534    24182634.348 6  16220630.37624        40.000
  23360289.738   -14054989.935 9  -9212379.00327        88.000
 96  6  5 20 41 45.0040000  0  6G 6G 4G 5G24G 9G16
  24551106.003   -20634568.207 7  -3245754.89925        52.000
  24872417.923    27578940.451 7  17398642.87923        44.000
  21538610.550   -17320319.675 9  -8466962.38529       118.000
  22496773.358      397173.193 9   2567622.30727       110.000
  25357003.862    24239999.060 6  16265330.05623        38.000
  23355343.012   -14080991.671 9  -9232640.09427        88.000
 96  6  5 20 42  0.0040000  0  6G 6G 4G 5G24G 9G16
  24547091.482   -20655673.540 7  -3262200.58625        52.000
  24883758.472    27638520.855 7  17445069.21023        46.000
  21541302.057   -17306182.066 9  -8455946.07129       120.000
  22504557.949      438066.816 9   2599487.48327       110.000
  25367914.298    24297375.927 6  16310039.22723        40.000
  23350412.806   -14106894.100 9  -9252823.78027        88.000
 96  6  5 20 42 15.0040000  0  6G 6G 4G 5G24G 9G16
  24543082.418   -20676753.485 7  -3278626.51425        48.000
  24895099.411    27698131.527 7  17491519.09923        48.000
  21544020.875   -17291890.384 9  -8444809.69829       122.000
  22512354.441      479046.519 9   2631419.72627       108.000
  25378835.258    24354767.957 6  16354760.25524        36.000
  23345504.633   -14132692.371 9  -9272926.30727        90.000
 96  6  5 20 42 30.0040000  0  6G 6G 4G 5G24G 9G16
  24539068.257   -20697820.857 7  -3295042.60925        50.000
  24906447.155    27757759.494 7  17537982.44923        46.000
  21546769.402   -17277457.211 9  -8433563.07029       122.000
  22520170.660      520101.154 9   2663410.34227       110.000
  25389771.657    24412162.144 6  16399482.99824        38.000
  23340610.671   -14158397.816 9  -9292956.49927        90.000
 96  6  5 20 42 45.0040000  0  6G 6G 4G 5G24G 9G16
  24535061.500   -20718868.418 7  -3311443.35725        46.000
  24917800.506    27817408.844 7  17584462.44523        44.000
  21549542.092   -17262875.375 9  -8422200.61729       120.000
  22527993.535      561234.039 9   2695461.90927       110.000
  25400683.832    24469562.031 6  16444210.09724        38.000
  23335736.796   -14184006.875 9  -9312911.61427        90.000
 96  6  5 20 43  0.0040000  0  6G 6G 4G 5G24G 9G16
  24531063.378   -20739902.173 7  -3327833.29125        46.000
  24929148.460    27877069.836 7  17630951.49323        44.000
  21552345.901   -17248149.304 9  -8410725.76529       120.000
  22535834.337      602438.675 9   2727569.40427       108.000
  25411599.126    24526964.559 6  16488939.24524        32.000
  23330880.308   -14209524.406 9  -9332795.39927        90.000
 96  6  5 20 43 15.0040000  0  6G 6G 4G 5G24G 9G16
  24527065.346   -20760916.887 7  -3344208.33825        44.000
  24940505.767    27936747.358 7  17677453.49923        44.000
  21555176.482   -17233273.535 9  -8399134.24229       120.000
  22543691.777      643719.198 9   2759736.06027       106.000
  25422525.812    24584376.394 6  16533675.63424        38.000
  23326044.835   -14234944.357 9  -9352603.13727        88.000
 96  6  5 20 43 30.0040000  0  6G 6G 4G 5G24G 9G16
  24523070.282   -20781914.852 7  -3360570.34225        44.000
  24951867.871    27996441.696 7  17723968.43023        42.000
  21558034.913   -17218250.929 9  -8387428.34529       120.000
  22551560.460      685074.194 9   2791960.71427       104.000
  25433461.551    24641793.664 6  16578416.33124        36.000
  23321221.534   -14260267.270 9  -9372335.27727        88.000
 96  6  5 20 43 45.0040000  0  6G 6G 4G 5G24G 9G16
  24519074.468   -20802901.129 7  -3376923.23325        46.000
  24963228.387    28056150.166 7  17770494.44423        42.000
  21560921.015   -17203085.121 9  -8375610.83929       120.000
  22559446.050      726501.324 9   2824241.59527       106.000
  25444384.489    24699212.721 6  16623158.45024        38.000
  23316421.707   -14285494.558 9  -9391992.87227        86.000
 96  6  5 20 44  0.0040000  0  6G 6G 4G 5G24G 9G16
  24515087.528   -20823869.189 7  -3393261.94425        48.000
  24974591.780    28115879.540 6  17817036.85723        40.000
  21563834.668   -17187773.038 9  -8363679.35329       118.000
  22567346.541      768006.474 9   2856583.27027       110.000
  25455321.847    24756642.090 6  16667908.59724        40.000
  23311643.975   -14310619.842 9  -9411570.99627        90.000
 96  6  5 20 44 15.0040000  0  6G 6G 4G 5G24G 9G16
  24511105.055   -20844823.245 7  -3409589.74725        48.000
  24985967.944    28175626.130 7  17863592.62023        42.000
  21566775.602   -17172320.864 9  -8351638.71429       118.000
  22575253.447      809585.539 9   2888982.52227       108.000
  25466258.846    24814081.305 6  16712666.23524        40.000
  23306881.801   -14335644.924 9  -9431071.06727        90.000
 96  6  5 20 44 30.0040000  0  6G 6G 4G 5G24G 9G16
  24507108.012   -20865768.645 7  -3425910.85525        46.000
  24997343.299    28235385.697 7  17910158.54123        46.000
  21569739.260   -17156728.331 9  -8339488.68329       114.000
  22583178.161      851237.612 9   2921438.68727       106.000
  25477178.546    24871528.504 6  16757430.20924        40.000
  23302141.243   -14360571.729 9  -9450494.52327        92.000
 96  6  5 20 44 45.0040000  0  6G 6G 4G 5G24G 9G16
  24503133.244   -20886704.490 7  -3442224.51925        48.000
  25008713.888    28295159.863 7  17956735.78623        44.000
  21572735.506   -17140991.829 9  -8327226.45529       114.000
  22591118.254      892962.858 9   2953951.85927       106.000
  25488111.857    24928983.471 6  16802200.37324        40.000
  23297411.418   -14385397.958 9  -9469839.61227        92.000
 96  6  5 20 45  0.0040000  0  6G 6G 4G 5G24G 9G16
  24499148.522   -20907633.541 7  -3458532.86225        48.000
  25020089.183    28354947.486 7  18003323.51523        42.000
  21575759.303   -17125114.426 9  -8314854.46729       114.000
  22599073.007      934758.734 9   2986520.05427       108.000
  25499041.871    24986442.793 6  16846973.78324        40.000
  23292709.413   -14410124.149 9  -9489106.77227        92.000
 96  6  5 20 45 15.0040000  0  6G 6G 4G 5G24G 9G16
  24495167.848   -20928552.669 7  -3474833.44125        46.000
  25031471.253    28414754.895 7  18049926.64723        42.000
  21578806.453   -17109093.967 9  -8302371.01029       114.000
  22607041.251      976629.383 9   3019146.53527       110.000
  25509982.257    25043910.971 7  16891754.12324        46.000
  23288023.387   -14434744.966 9  -9508291.81527        88.000
 96  6  5 20 45 30.0040000  0  6G 6G 4G 5G24G 9G16
  24491184.536   -20949459.966 7  -3491124.80525        46.000
  25042854.313    28474586.905 6  18096548.93123        40.000
  21581881.844   -17092932.968 9  -8289778.04029       114.000
  22615022.776     1018573.968 9   3051830.63227       106.000
  25520916.797    25101385.745 7  16936539.50824        44.000
  23283358.376   -14459259.328 9  -9527393.90027        90.000
 96  6  5 20 45 45.0040000  0  6G 6G 4G 5G24G 9G16
  24487208.778   -20970362.905 7  -3507412.75025        46.000
  25054240.160    28534435.942 6  18143184.49623        38.000
  21584981.248   -17076640.172 9  -8277082.35529       110.000
  22623017.071     1060584.252 9   3084565.90427       108.000
  25531852.596    25158856.806 7  16981322.13724        46.000
  23278713.272   -14483676.477 9  -9546420.21927        90.000
 96  6  5 20 46  0.0040000  0  6G 6G 4G 5G24G 9G16
  24483234.639   -20991252.152 7  -3523690.02925        48.000
  25065640.698    28594311.485 6  18189840.77824        38.000
  21588110.932   -17060206.904 9  -8264277.21529       112.000
  22631021.740     1102667.018 9   3117357.66227       108.000
  25542796.220    25216333.818 7  17026109.41424        50.000
  23274084.896   -14507988.420 9  -9565364.57827        90.000
 96  6  5 20 46 15.0040000  0  6G 6G 4G 5G24G 9G16
  24479261.490   -21012129.249 7  -3539957.90125        50.000
  25077034.640    28654210.826 6  18236515.58024        38.000
  21591261.181   -17043636.237 9  -8251365.00929       112.000
  22639049.672     1144818.402 9   3150202.90127       108.000
  25553736.426    25273808.495 7  17070894.80424        50.000
  23269476.217   -14532197.988 9  -9584229.16927        90.000
 96  6  5 20 46 30.0040000  0  6G 6G 4G 5G24G 9G16
  24475296.825   -21032992.615 7  -3556215.15225        54.000
  25088442.313    28714135.756 6  18283210.27623        36.000
  21594442.519   -17026924.115 9  -8238342.57029       112.000
  22647080.482     1187042.138 9   3183104.51027       102.000
  25564665.091    25331278.866 7  17115676.81324        46.000
  23264891.431   -14556303.957 9  -9603013.03527        92.000
 96  6  5 20 46 45.0040000  0  6G 6G 4G 5G24G 9G16
  24471323.675   -21053845.240 7  -3572463.95425        52.000
  25099846.688    28774080.094 6  18329920.09723        40.000
  21597648.619   -17010076.956 9  -8225214.93629       108.000
  22655130.270     1229330.771 9   3216056.66727       102.000
  25575597.113    25388738.066 7  17160450.13024        42.000
  23260319.626   -14580312.878 9  -9621721.27927        94.000
 96  6  5 20 47  0.0040000  0  6G 6G 4G 5G24G 9G16
  24467354.903   -21074677.698 7  -3588696.99825        50.000
  25111259.787    28834049.817 6  18376649.68723        38.000
  21600881.881   -16993090.619 9  -8211978.85529       112.000
  22663190.040     1271689.462 9   3249063.41527       104.000
  25586531.563    25446191.356 7  17205218.91324        46.000
  23255768.716   -14604219.840 9  -9640350.07027        92.000
 96  6  5 20 47 15.0040000  0  6G 6G 4G 5G24G 9G16
  24463399.261   -21095485.707 7  -3604911.00525        46.000
  25122678.012    28894044.815 6  18423399.03623        38.000
  21604137.387   -16975964.784 9  -8198634.05429       112.000
  22671265.579     1314121.613 9   3282127.43027       104.000
  25597471.499    25503643.001 7  17249986.43824        48.000
  23251244.458   -14628025.948 9  -9658900.26427        98.000
 96  6  5 20 47 30.0040000  0  6G 6G 4G 5G24G 9G16
  24459448.926   -21116267.265 7  -3621104.35625        48.000
  25134099.925    28954063.648 6  18470166.93423        38.000
  21607427.010   -16958696.454 9  -8185178.20729       110.000
  22679348.734     1356628.104 9   3315249.36827       102.000
  25608406.009    25561094.446 7  17294753.75324        46.000
  23246729.584   -14651733.630 9  -9677373.75327        94.000
 96  6  5 20 47 45.0040000  0  6G 6G 4G 5G24G 9G16
  24455495.892   -21137022.412 7  -3637277.16225        48.000
  25145524.925    29014100.187 6  18516948.70923        40.000
  21610739.506   -16941282.841 9  -8171609.16629       110.000
  22687455.841     1399207.816 9   3348428.36427       104.000
  25619331.286    25618543.686 7  17339519.22124        42.000
  23242237.164   -14675344.201 9  -9695771.59227        94.000
 96  6  5 20 48  0.0040000  0  6G 6G 4G 5G24G 9G16
  24451550.264   -21157747.099 7  -3653426.23725        50.000
  25156954.693    29074155.532 7  18563745.04823        42.000
  21614081.263   -16923712.797 9  -8157918.23029       112.000
  22695574.041     1441867.250 9   3381669.46727       102.000
  25630257.432    25675997.372 7  17384288.24124        42.000
  23237764.620   -14698850.596 9  -9714088.27227        94.000
 96  6  5 20 48 15.0040000  0  6G 6G 4G 5G24G 9G16
  24447614.858   -21178447.927 7  -3669556.77525        52.000
  25168375.946    29134221.034 7  18610549.32623        42.000
  21617453.748   -16905993.472 9  -8144110.94429       112.000
  22703700.965     1484598.018 9   3414966.17727       100.000
  25641195.810    25733448.229 7  17429055.18824        44.000
  23233311.443   -14722258.367 9  -9732328.07327        96.000
 96  6  5 20 48 30.0040000  0  6G 6G 4G 5G24G 9G16
  24443680.832   -21199120.385 7  -3685665.20525        48.000
  25179818.634    29194300.870 7  18657364.64423        44.000
  21620857.802   -16888118.246 9  -8130182.22429       114.000
  22711850.613     1527407.375 9   3448324.10027        98.000
  25652134.697    25790903.643 7  17473825.63824        42.000
  23228876.943   -14745559.749 9  -9750484.98327        96.000
 96  6  5 20 48 45.0040000  0  6G 6G 4G 5G24G 9G16
  24439747.405   -21219768.003 7  -3701754.26125        46.000
  25191245.314    29254387.948 7  18704185.71923        42.000
  21624288.507   -16870091.654 9  -8116135.53928       114.000
  22720009.165     1570290.904 9   3481739.82627       100.000
  25663056.316    25848365.049 6  17518600.71123        38.000
  23224465.377   -14768759.639 9  -9768562.80427        96.000
 96  6  5 20 49  0.0040000  0  6G 6G 4G 5G24G 9G16
  24435814.458   -21240396.103 7  -3717828.05525        46.000
  25202686.263    29314476.510 7  18751007.95622        44.000
  21627744.664   -16851917.916 9  -8101974.19328       114.000
  22728180.338     1613241.398 9   3515207.72427        96.000
  25673994.843    25905828.613 6  17563377.28923        38.000
  23220068.981   -14791860.690 9  -9786563.60727        98.000
 96  6  5 20 49 15.0040000  0  6G 6G 4G 5G24G 9G16
  24431902.466   -21261008.579 7  -3733889.67325        50.000
  25214117.530    29374567.464 7  18797832.08022        42.000
  21631232.090   -16833593.826 9  -8087695.68428       116.000
  22736367.970     1656260.471 9   3548729.07927       100.000
  25684940.386    25963295.799 7  17608156.89923        44.000
  23215689.163   -14814860.284 9  -9804485.35127        90.000
 96  6  5 20 49 30.0040000  0  6G 6G 4G 5G24G 9G16
  24427971.917   -21281651.542 7  -3749975.05025        54.000
  25225545.948    29434618.398 7  18844625.08422        44.000
  21634737.113   -16815161.286 9  -8073332.65429       112.000
  22744562.647     1699306.229 9   3582271.23327       100.000
  25695860.566    26020726.437 6  17652908.03623        38.000
  23211327.662   -14837799.742 9  -9822360.22427        96.000
 96  6  5 20 49 45.0040000  0  6G 6G 4G 5G24G 9G16
  24424039.989   -21302300.509 7  -3766065.13325        50.000
  25236972.807    29494657.124 7  18891408.48022        42.000
  21638271.666   -16796594.520 9  -8058865.05829       116.000
  22752763.320     1742402.210 9   3615852.50827        98.000
  25706793.038    26078146.255 6  17697650.80723        36.000
  23206977.254   -14860646.914 9  -9840163.21327        96.000
 96  6  5 20 50  0.0040000  0  6G 6G 4G 5G24G 9G16
  24420118.704   -21322936.382 7  -3782145.05025        52.000
  25248396.909    29554706.095 7  18938199.96323        44.000
  21641834.220   -16777874.235 9  -8044277.83629       114.000
  22760976.794     1785567.579 9   3649487.82727        98.000
  25717722.931    26135575.515 6  17742400.94622        40.000
  23202649.360   -14883378.743 9  -9857876.30727        96.000
 96  6  5 20 50 15.0040000  0  6G 6G 4G 5G24G 9G16
  24416190.913   -21343565.553 7  -3798219.78125        52.000
  25259824.248    29614763.373 7  18984997.90422        44.000
  21645424.894   -16759010.463 9  -8029578.80529       110.000
  22769203.279     1828797.018 9   3683173.10027        98.000
  25728647.878    26193009.839 6  17787155.08422        38.000
  23198345.360   -14906001.362 9  -9875504.32927        94.000
 96  6  5 20 50 30.0040000  0  6G 6G 4G 5G24G 9G16
  24412271.276   -21364186.684 7  -3814288.17525        48.000
  25271254.105    29674830.332 7  19031803.49722        44.000
  21649043.629   -16740005.407 9  -8014769.67129       118.000
  22777436.539     1872089.587 9   3716907.58927        94.000
  25739579.900    26250449.411 6  17831913.20223        40.000
  23194062.794   -14928515.800 9  -9893048.01827        96.000
 96  6  5 20 50 45.0040000  0  6G 6G 4G 5G24G 9G16
  24408342.646   -21384798.068 7  -3830348.96925        48.000
  25282687.170    29734906.317 7  19078616.03722        44.000
  21652684.039   -16720856.423 9  -7999848.39529       116.000
  22785691.504     1915447.985 9   3750693.32227        98.000
  25750518.847    26307895.453 6  17876676.36823        40.000
  23189798.277   -14950920.966 9  -9910506.57327       100.000
 96  6  5 20 51  0.0040000  0  6G 6G 4G 5G24G 9G16
  24404425.977   -21405396.571 7  -3846399.71825        48.000
  25294118.826    29794992.793 7  19125436.71222        42.000
  21656356.406   -16701561.771 9  -7984813.60829       114.000
  22793953.364     1958871.225 9   3784529.60527       100.000
  25761448.650    26365346.092 6  17921443.25222        36.000
  23185555.884   -14973213.783 9  -9927877.57727       102.000
 96  6  5 20 51 15.0040000  0  6G 6G 4G 5G24G 9G16
  24400509.069   -21425984.223 7  -3862441.97625        50.000
  25305561.155    29855092.726 7  19172267.76622        44.000
  21660057.974   -16682118.171 9  -7969662.75029       114.000
  22802228.596     2002360.401 9   3818417.28027        98.000
  25772374.227    26422799.335 6  17966212.10222        36.000
  23181335.885   -14995393.000 9  -9945160.06327        98.000
 96  6  5 20 51 30.0040000  0  6G 6G 4G 5G24G 9G16
  24396602.144   -21446523.322 7  -3878446.43225        54.000
  25317006.541    29915243.554 7  19219138.58322        42.000
  21663792.009   -16662491.283 9  -7954369.08529       114.000
  22810527.301     2045952.392 9   3852385.04927        98.000
  25783319.889    26480290.342 6  18011010.24923        36.000
  23177141.939   -15017424.781 9  -9962327.66627        98.000
 96  6  5 20 51 45.0040000  0  6G 6G 4G 5G24G 9G16
  24392692.640   -21467041.532 7  -3894434.64725        54.000
  25328453.217    29975413.225 7  19266023.93723        42.000
  21667556.952   -16642716.245 9  -7938959.96529       116.000
  22818831.342     2089614.705 9   3886407.61227        98.000
  25794262.704    26537785.973 6  18055812.00023        36.000
  23172975.273   -15039341.547 9  -9979405.66527       100.000
 96  6  5 20 52  0.0040000  0  6G 6G 4G 5G24G 9G16
  24388785.775   -21487581.165 7  -3910439.57725        52.000
  25339900.582    30035557.872 6  19312889.91522        40.000
  21671339.224   -16622835.010 9  -7923468.10729       116.000
  22827146.835     2133302.924 9   3920450.37927        96.000
  25805191.218    26595237.953 6  18100579.64123        34.000
  23168814.004   -15061189.146 9  -9996429.74727       102.000
 96  6  5 20 52 15.0040000  0  6G 6G 4G 5G24G 9G16
  24384878.370   -21508103.026 7  -3926430.67625        52.000
  25351347.887    30095717.163 6  19359767.21423        38.000
  21675149.736   -16602807.117 9  -7907861.97529       114.000
  22835472.102     2177060.158 9   3954546.92527        98.000
  25816115.145    26652683.831 6  18145342.54523        34.000
  23164677.348   -15082930.873 9 -10013371.33327       102.000
 96  6  5 20 52 30.0040000  0  6G 6G 4G 5G24G 9G16
  24380981.428   -21528601.853 7  -3942403.77025        52.000
  25362800.589    30155894.570 6  19406658.70323        38.000
  21678989.388   -16582627.487 9  -7892137.58329       112.000
  22843814.037     2220892.541 9   3988702.02027       100.000
  25827050.885    26710129.350 6  18190105.25223        36.000
  23160561.797   -15104559.381 9 -10030224.70227       102.000
 96  6  5 20 52 45.0040000  0  6G 6G 4G 5G24G 9G16
  24377080.229   -21549083.849 7  -3958363.70025        50.000
  25374254.399    30216084.734 6  19453560.07123        36.000
  21682858.210   -16562299.193 9  -7876297.36229       110.000
  22852175.338     2264795.114 9   4022911.80527       104.000
  25837971.904    26767565.924 6  18234861.01623        34.000
  23156466.062   -15126074.537 9 -10046989.73528       102.000
 96  6  5 20 53  0.0040000  0  6G 6G 4G 5G24G 9G16
  24373184.186   -21569548.726 7  -3974310.34525        48.000
  25385715.405    30276288.179 6  19500471.83023        32.000
  21686755.961   -16541824.995 9  -7860343.44829       114.000
  22860542.486     2308767.697 9   4057176.13527       106.000
  25848920.535    26824992.358 6  18279608.83423        40.000
  23152398.208   -15147474.999 9 -10063665.41928       102.000
 96  6  5 20 53 15.0040000  0  6G 6G 4G 5G24G 9G16
  24369297.946   -21589997.360 7  -3990244.29225        52.000
  25397166.547    30336509.172 6  19547397.28623        34.000
  21690677.546   -16521206.169 9  -7844276.83329       110.000
  22868919.886     2352809.134 9   4091494.13427       104.000
  25859839.276    26882410.506 6  18324350.02623        38.000
  23148344.684   -15168760.088 9 -10080251.17327       102.000
 96  6  5 20 53 30.0040000  0  6G 6G 4G 5G24G 9G16
  24365407.240   -21610428.701 7  -4006164.79525        52.000
  25408627.253    30396749.358 6  19594337.68723        32.000
  21694629.321   -16500443.730 9  -7828098.31429       110.000
  22877311.287     2396920.816 9   4125866.87827       100.000
  25870766.561    26939819.795 6  18369084.53124        40.000
  23144314.814   -15189930.176 9 -10096747.33027       100.000
 96  6  5 20 53 45.0040000  0  6G 6G 4G 5G24G 9G16
  24361526.186   -21630842.047 7  -4022071.32425        50.000
  25420092.216    30457004.218 6  19641289.48723        32.000
  21698607.237   -16479541.710 9  -7811811.06629       110.000
  22885721.335     2441101.056 9   4160293.00327       102.000
  25881681.974    26997219.026 6  18413811.14624        36.000
  23140308.658   -15210984.253 9 -10113153.11027       100.000
 96  6  5 20 54  0.0040000  0  6G 6G 4G 5G24G 9G16
  24357647.442   -21651193.992 7  -4037929.96325        50.000
  25431576.366    30517316.958 6  19688286.32323        32.000
  21702619.899   -16458453.029 9  -7795378.31829       110.000
  22894151.589     2485393.947 9   4194806.97427       104.000
  25892620.202    27054652.628 7  18458564.53323        46.000
  23136333.380   -15231874.717 9 -10129431.35727       100.000
 96  6  5 20 54 15.0040000  0  6G 6G 4G 5G24G 9G16
  24353778.740   -21671516.685 7  -4053765.84525        50.000
  25443049.513    30577658.749 6  19735305.92223        30.000
  21706663.230   -16437205.000 9  -7778821.41729       110.000
  22902594.943     2529767.890 9   4229384.05327       102.000
  25903546.648    27112090.767 7  18503321.41823        42.000
  23132385.773   -15252630.956 9 -10145605.01627       104.000
 96  6  5 20 54 30.0040000  0  6G 6G 4G 5G24G 9G16
  24349919.062   -21691829.510 7  -4069593.97825        52.000
  25454546.284    30638008.335 6  19782331.50923        32.000
  21710732.103   -16415820.868 9  -7762158.46729       110.000
  22911047.502     2574199.707 9   4264006.24727       102.000
  25914472.644    27169514.799 7  18548067.28423        44.000
  23128456.243   -15273271.054 9 -10161688.18627       102.000
 96  6  5 20 54 45.0040000  0  6G 6G 4G 5G24G 9G16
  24346057.105   -21712125.546 7  -4085409.06825        50.000
  25466026.417    30698370.455 6  19829366.91823        32.000
  21714828.797   -16394297.115 9  -7745386.71129       110.000
  22919513.311     2618692.097 9   4298675.62327       104.000
  25925398.280    27226929.616 7  18592806.12123        42.000
  23124551.296   -15293789.714 9 -10177676.76227       102.000
 96  6  5 20 55  0.0040000  0  6G 6G 4G 5G24G 9G16
  24342194.370   -21732399.872 7  -4101207.16825        50.000
  25477514.943    30758750.880 6  19876416.60623        36.000
  21718952.082   -16372629.796 9  -7728503.07929       108.000
  22927993.450     2663247.246 9   4333393.91427       104.000
  25936328.024    27284338.255 7  18637540.04223        44.000
  23120670.993   -15314185.886 9 -10193569.86327       104.000
 96  6  5 20 55 15.0040000  0  6G 6G 4G 5G24G 9G16
  24338343.176   -21752654.902 7  -4116990.26226        50.000
  25489011.325    30819145.658 6  19923477.38123        36.000
  21723102.199   -16350822.750 9  -7711510.60329       110.000
  22936483.153     2707860.518 9   4368157.49627       104.000
  25947244.307    27341741.076 7  18682269.33223        44.000
  23116811.404   -15334468.014 9 -10209374.12027       102.000
 96  6  5 20 55 30.0040000  0  6G 6G 4G 5G24G 9G16
  24334482.958   -21772948.552 7  -4132803.51225        52.000
  25500498.352    30879496.943 6  19970504.33523        38.000
  21727265.087   -16328928.614 9  -7694450.25629       110.000
  22944974.475     2752476.518 9   4402923.21227       102.000
  25958154.504    27399079.416 7  18726948.53523        42.000
  23112962.129   -15354694.206 9 -10225134.77327       102.000
 96  6  5 20 55 45.0040000  0  6G 6G 4G 5G24G 9G16
  24330618.903   -21793224.467 7  -4148602.92925        48.000
  25511979.444    30939855.314 6  20017536.73623        38.000
  21731462.362   -16306890.112 9  -7677277.41929       110.000
  22953475.899     2797150.978 9   4437734.47127       106.000
  25969065.210    27456405.893 6  18771618.53623        40.000
  23109135.428   -15374811.094 9 -10240810.26727       102.000
 96  6  5 20 56  0.0040000  0  6G 6G 4G 5G24G 9G16
  24326771.127   -21813482.589 7  -4164388.51325        50.000
  25523468.600    31000221.020 6  20064574.94923        40.000
  21735679.902   -16284705.867 9  -7659991.00029       110.000
  22961987.727     2841883.058 9   4472590.62927       102.000
  25979976.517    27513721.462 7  18816279.75423        44.000
  23105326.385   -15394820.163 9 -10256401.73427       102.000
 96  6  5 20 56 15.0040000  0  6G 6G 4G 5G24G 9G16
  24322915.646   -21833724.457 7  -4180161.37025        56.000
  25534955.928    31060596.505 7  20111620.79223        42.000
  21739931.678   -16262376.921 9  -7642591.83229       110.000
  22970511.965     2886671.201 9   4507490.47727       104.000
  25990884.495    27571023.611 7  18860930.74023        44.000
  23101540.396   -15414724.888 9 -10271911.89527       102.000
 96  6  5 20 56 30.0040000  0  6G 6G 4G 5G24G 9G16
  24319065.831   -21853949.850 7  -4195921.39825        54.000
  25546448.262    31120982.321 7  20158674.72023        42.000
  21744211.186   -16239902.962 9  -7625079.64729       110.000
  22979043.459     2931516.777 9   4542435.09427       106.000
  26001780.332    27628314.105 6  18905572.70623        36.000
  23097771.855   -15434525.875 9 -10287341.20627       102.000
 96  6  5 20 56 45.0040000  0  6G 6G 4G 5G24G 9G16
  24315222.342   -21874153.646 7  -4211664.58025        56.000
  25557944.044    31181381.049 7  20205738.65223        42.000
  21748511.109   -16217280.045 9  -7607451.41129       110.000
  22987589.973     2976426.912 9   4577429.99127       104.000
  26012678.208    27685596.135 6  18950208.13123        38.000
  23094025.139   -15454219.160 9 -10302686.60727       106.000
 96  6  5 20 57  0.0040000  0  6G 6G 4G 5G24G 9G16
  24311382.240   -21894339.104 7  -4227393.45425        56.000
  25569437.876    31241789.622 7  20252810.28322        44.000
  21752844.909   -16194507.018 9  -7589706.21029       106.000
  22996149.377     3021401.388 9   4612475.00927       102.000
  26023572.306    27742866.466 6  18994834.51523        36.000
  23090295.121   -15473807.393 9 -10317950.16127       104.000
 96  6  5 20 57 15.0040000  0  6G 6G 4G 5G24G 9G16
  24307544.807   -21914511.592 7  -4243112.26725        54.000
  25580938.215    31302199.377 7  20299882.74222        42.000
  21757208.118   -16171585.673 9  -7571845.44329       110.000
  23004718.375     3066435.034 9   4647566.15527       104.000
  26034475.428    27800118.487 6  19039446.47223        36.000
  23086585.669   -15493296.921 9 -10333136.80827       102.000
 96  6  5 20 57 30.0040000  0  6G 6G 4G 5G24G 9G16
  24303710.341   -21934631.668 7  -4258790.25725        52.000
  25592427.881    31362647.173 6  20346984.82122        38.000
  21761603.585   -16148475.803 9  -7553837.77429       110.000
  23013307.908     3111569.068 9   4682735.52927       104.000
  26045378.819    27857389.977 6  19084073.54323        32.000
  23082903.738   -15512646.522 9 -10348214.41427       102.000
 96  6  5 20 57 45.0040000  0  6G 6G 4G 5G24G 9G16
  24299895.452   -21954712.462 7  -4274437.67325        56.000
  25603942.160    31423120.921 6  20394107.28322        40.000
  21766036.856   -16125188.755 9  -7535692.02229       108.000
  23021911.173     3156789.629 9   4717972.34827       104.000
  26056271.898    27914666.737 6  19128704.88023        36.000
  23079248.009   -15531865.079 9 -10363189.88327       104.000
 96  6  5 20 58  0.0040000  0  6G 6G 4G 5G24G 9G16
  24296075.737   -21974775.899 7  -4290071.49725        58.000
  25615447.505    31483601.565 6  20441235.00922        36.000
  21770499.147   -16101749.981 9  -7517428.03629       112.000
  23030527.927     3202070.363 9   4753256.02027       102.000
  26067174.900    27971930.276 6  19173325.96523        36.000
  23075610.088   -15550971.401 9 -10378077.89927       102.000
 96  6  5 20 58 15.0040000  0  6G 6G 4G 5G24G 9G16
  24292262.946   -21994823.389 7  -4305692.89725        56.000
  25626960.165    31544091.989 6  20488370.38422        34.000
  21774986.381   -16078161.123 9  -7499047.12729       110.000
  23039159.132     3247412.751 9   4788587.75027       104.000
  26078068.939    28029185.293 6  19217940.23723        30.000
  23071997.379   -15569959.082 9 -10392873.48428       102.000
 96  6  5 20 58 30.0040000  0  6G 6G 4G 5G24G 9G16
  24288450.995   -22014859.825 7  -4321305.63026        56.000
  25638480.080    31604585.088 6  20535507.86922        34.000
  21779504.223   -16054425.662 9  -7480551.95529       112.000
  23047798.041     3292812.459 9   4823964.12826        98.000
  26088966.544    28086428.282 6  19262545.19923        34.000
  23068405.835   -15588830.143 9 -10407578.18728       102.000
 96  6  5 20 58 45.0040000  0  6G 6G 4G 5G24G 9G16
  24284637.485   -22034881.081 7  -4336906.57826        56.000
  25649989.412    31665078.342 6  20582645.54222        34.000
  21784049.316   -16030543.550 9  -7461942.51729       112.000
  23056445.285     3338272.225 9   4859387.32426       102.000
  26099840.646    28143658.194 6  19307140.06123        28.000
  23064841.093   -15607578.537 9 -10422187.31428       102.000
 96  6  5 20 59  0.0040000  0  6G 6G 4G 5G24G 9G16
  24280828.712   -22054884.347 7  -4352493.52926        56.000
  25661497.725    31725573.662 6  20629784.75522        32.000
  21788620.522   -16006516.186 9  -7443219.92829       110.000
  23065108.448     3383793.663 9   4894858.56326       100.000
  26110738.522    28200875.357 6  19351724.88323        30.000
  23061294.278   -15626200.519 9 -10436697.94228       102.000
 96  6  5 20 59 15.0040000  0  6G 6G 4G 5G24G 9G16
  24277027.074   -22074875.732 7  -4368071.26125        54.000
  25673011.494    31786066.902 6  20676922.13621        30.000
  21793219.698   -15982349.670 9  -7424388.89729       112.000
  23073783.302     3429369.131 9   4930371.88426       100.000
  26121621.438    28258075.543 6  19396296.47923        28.000
  23057777.233   -15644698.241 9 -10451111.76328       102.000
 96  6  5 20 59 30.0040000  0  6G 6G 4G 5G24G 9G16
  24273227.264   -22094858.297 7  -4383642.10525        58.000
  25684523.914    31846558.107 6  20724058.18521        28.000
  21797842.917   -15958050.495 9  -7405454.47029       114.000
  23082465.232     3474995.989 9   4965925.30426        98.000
  26132491.792    28315256.712 6  19440853.25523        26.000
  23054277.276   -15663072.346 9 -10465429.21728       106.000
 96  6  5 20 59 45.0040000  0  6G 6G 4G 5G24G 9G16
  24269424.667   -22114828.580 7  -4399203.36125        62.000
  25696036.244    31907056.613 6  20771199.81222        28.000
  21802491.199   -15933616.089 9  -7386414.67229       112.000
  23091155.885     3520678.391 9   5001521.97726        96.000
  26143383.822    28372425.679 6  19485400.62823        36.000
  23050808.317   -15681315.191 9 -10479644.39728       104.000
 96  6  5 21  0  0.0040000  0  6G 6G 4G 5G24G 9G16
  24265619.101   -22134848.411 7  -4414803.19725        62.000
  25707530.317    31967499.898 6  20818298.50822        26.000
  21807153.961   -15909109.306 9  -7367318.48529       112.000
  23099853.254     3566351.776 9   5037111.61226        98.000
  26154240.596    28429520.365 6  19529890.06723        32.000
  23047349.522   -15699490.311 9 -10493806.81228       102.000
 96  6  5 21  0 15.0040000  0  6G 6G 4G 5G24G 9G16
  24261808.290   -22154867.079 7  -4430402.12826        60.000
  25719040.369    32027933.201 6  20865389.29422        26.000
  21811841.816   -15884481.950 9  -7348128.34729       110.000
  23108552.122     3612068.494 9   5072735.01626        98.000
  26165103.666    28486588.497 6  19574358.64722        34.000
  23043914.470   -15717550.651 9 -10507879.78728       102.000
